<?xml version="1.0" encoding="UTF-8" standalone="no" ?>
<gpx xmlns="http://www.topografix.com/GPX/1/1" xmlns:xsi="http://www.w3.org/2001/XMLSchema-instance" xsi:schemaLocation="http://www.topografix.com/GPX/1/1 http://www.topografix.com/GPX/1/1/gpx.xsd" version="1.1" creator="VisuGPX - https://www.visugpx.com">
  <metadata>
    <name>Stevenson - Le Monastier sur Gazeille - Landos</name>
    <desc><![CDATA[Etape 1 - ASVEL Ski Montagne le 19 Mai 2012]]></desc>
  </metadata>
  <trk>
    <name><![CDATA[ACTIVE LOG071034]]></name>
    <trkseg>
      <trkpt lat="44.93587" lon="3.99559">
        <ele>924.039</ele>
        <time>2012-05-19T07:10:36Z</time>
      </trkpt>
      <trkpt lat="44.93585" lon="3.99557">
        <ele>926.262</ele>
        <time>2012-05-19T07:10:38Z</time>
      </trkpt>
      <trkpt lat="44.93584" lon="3.99555">
        <ele>927.549</ele>
        <time>2012-05-19T07:10:49Z</time>
      </trkpt>
      <trkpt lat="44.93582" lon="3.99555">
        <ele>925.039</ele>
        <time>2012-05-19T07:11:08Z</time>
      </trkpt>
      <trkpt lat="44.9358" lon="3.99547">
        <ele>926.666</ele>
        <time>2012-05-19T07:12:33Z</time>
      </trkpt>
      <trkpt lat="44.93573" lon="3.99545">
        <ele>925.983</ele>
        <time>2012-05-19T07:12:39Z</time>
      </trkpt>
      <trkpt lat="44.9357" lon="3.99544">
        <ele>924.721</ele>
        <time>2012-05-19T07:12:42Z</time>
      </trkpt>
      <trkpt lat="44.93568" lon="3.99544">
        <ele>925</ele>
        <time>2012-05-19T07:12:44Z</time>
      </trkpt>
      <trkpt lat="44.9355" lon="3.99549">
        <ele>920.965</ele>
        <time>2012-05-19T07:13:01Z</time>
      </trkpt>
      <trkpt lat="44.93543" lon="3.9955">
        <ele>919.932</ele>
        <time>2012-05-19T07:13:07Z</time>
      </trkpt>
      <trkpt lat="44.93541" lon="3.99547">
        <ele>918.711</ele>
        <time>2012-05-19T07:13:09Z</time>
      </trkpt>
      <trkpt lat="44.93541" lon="3.99542">
        <ele>918.436</ele>
        <time>2012-05-19T07:13:12Z</time>
      </trkpt>
      <trkpt lat="44.93545" lon="3.99526">
        <ele>916.958</ele>
        <time>2012-05-19T07:13:31Z</time>
      </trkpt>
      <trkpt lat="44.93548" lon="3.99516">
        <ele>916.112</ele>
        <time>2012-05-19T07:13:46Z</time>
      </trkpt>
      <trkpt lat="44.93556" lon="3.995">
        <ele>914.294</ele>
        <time>2012-05-19T07:14:25Z</time>
      </trkpt>
      <trkpt lat="44.93562" lon="3.99489">
        <ele>911.984</ele>
        <time>2012-05-19T07:14:44Z</time>
      </trkpt>
      <trkpt lat="44.93574" lon="3.99458">
        <ele>908.646</ele>
        <time>2012-05-19T07:15:04Z</time>
      </trkpt>
      <trkpt lat="44.93583" lon="3.99431">
        <ele>905.43</ele>
        <time>2012-05-19T07:15:22Z</time>
      </trkpt>
      <trkpt lat="44.93588" lon="3.99412">
        <ele>902.423</ele>
        <time>2012-05-19T07:15:34Z</time>
      </trkpt>
      <trkpt lat="44.93596" lon="3.99384">
        <ele>898.667</ele>
        <time>2012-05-19T07:15:52Z</time>
      </trkpt>
      <trkpt lat="44.93598" lon="3.99376">
        <ele>897.459</ele>
        <time>2012-05-19T07:15:58Z</time>
      </trkpt>
      <trkpt lat="44.93604" lon="3.99358">
        <ele>895.01</ele>
        <time>2012-05-19T07:16:11Z</time>
      </trkpt>
      <trkpt lat="44.93612" lon="3.99325">
        <ele>891.867</ele>
        <time>2012-05-19T07:16:34Z</time>
      </trkpt>
      <trkpt lat="44.93621" lon="3.99303">
        <ele>888.638</ele>
        <time>2012-05-19T07:16:50Z</time>
      </trkpt>
      <trkpt lat="44.93631" lon="3.99263">
        <ele>885.079</ele>
        <time>2012-05-19T07:17:15Z</time>
      </trkpt>
      <trkpt lat="44.93638" lon="3.99215">
        <ele>882.994</ele>
        <time>2012-05-19T07:17:44Z</time>
      </trkpt>
      <trkpt lat="44.93639" lon="3.99173">
        <ele>879.712</ele>
        <time>2012-05-19T07:18:09Z</time>
      </trkpt>
      <trkpt lat="44.93638" lon="3.99163">
        <ele>879.854</ele>
        <time>2012-05-19T07:18:15Z</time>
      </trkpt>
      <trkpt lat="44.93638" lon="3.99129">
        <ele>876.524</ele>
        <time>2012-05-19T07:18:36Z</time>
      </trkpt>
      <trkpt lat="44.9364" lon="3.99099">
        <ele>873.446</ele>
        <time>2012-05-19T07:18:55Z</time>
      </trkpt>
      <trkpt lat="44.93643" lon="3.99067">
        <ele>870.319</ele>
        <time>2012-05-19T07:19:14Z</time>
      </trkpt>
      <trkpt lat="44.93647" lon="3.99036">
        <ele>867.935</ele>
        <time>2012-05-19T07:19:33Z</time>
      </trkpt>
      <trkpt lat="44.93652" lon="3.99008">
        <ele>864.727</ele>
        <time>2012-05-19T07:19:51Z</time>
      </trkpt>
      <trkpt lat="44.93654" lon="3.98994">
        <ele>863.58</ele>
        <time>2012-05-19T07:20:07Z</time>
      </trkpt>
      <trkpt lat="44.93655" lon="3.98988">
        <ele>862.043</ele>
        <time>2012-05-19T07:20:26Z</time>
      </trkpt>
      <trkpt lat="44.93658" lon="3.98973">
        <ele>859.844</ele>
        <time>2012-05-19T07:20:43Z</time>
      </trkpt>
      <trkpt lat="44.93669" lon="3.98941">
        <ele>858.717</ele>
        <time>2012-05-19T07:21:07Z</time>
      </trkpt>
      <trkpt lat="44.93682" lon="3.98916">
        <ele>855.533</ele>
        <time>2012-05-19T07:21:26Z</time>
      </trkpt>
      <trkpt lat="44.9369" lon="3.98881">
        <ele>852.408</ele>
        <time>2012-05-19T07:21:49Z</time>
      </trkpt>
      <trkpt lat="44.93689" lon="3.98857">
        <ele>849.287</ele>
        <time>2012-05-19T07:22:03Z</time>
      </trkpt>
      <trkpt lat="44.93693" lon="3.98809">
        <ele>846.045</ele>
        <time>2012-05-19T07:22:30Z</time>
      </trkpt>
      <trkpt lat="44.93703" lon="3.9878">
        <ele>843.202</ele>
        <time>2012-05-19T07:22:50Z</time>
      </trkpt>
      <trkpt lat="44.93716" lon="3.98758">
        <ele>839.73</ele>
        <time>2012-05-19T07:23:07Z</time>
      </trkpt>
      <trkpt lat="44.93723" lon="3.98724">
        <ele>837.367</ele>
        <time>2012-05-19T07:23:28Z</time>
      </trkpt>
      <trkpt lat="44.93719" lon="3.98688">
        <ele>834.013</ele>
        <time>2012-05-19T07:23:49Z</time>
      </trkpt>
      <trkpt lat="44.93709" lon="3.98644">
        <ele>831.195</ele>
        <time>2012-05-19T07:24:16Z</time>
      </trkpt>
      <trkpt lat="44.93698" lon="3.98607">
        <ele>828.192</ele>
        <time>2012-05-19T07:24:40Z</time>
      </trkpt>
      <trkpt lat="44.93694" lon="3.98583">
        <ele>824.575</ele>
        <time>2012-05-19T07:24:55Z</time>
      </trkpt>
      <trkpt lat="44.93682" lon="3.98536">
        <ele>823.536</ele>
        <time>2012-05-19T07:25:23Z</time>
      </trkpt>
      <trkpt lat="44.93671" lon="3.98494">
        <ele>821.481</ele>
        <time>2012-05-19T07:25:48Z</time>
      </trkpt>
      <trkpt lat="44.9366" lon="3.98456">
        <ele>821.429</ele>
        <time>2012-05-19T07:26:11Z</time>
      </trkpt>
      <trkpt lat="44.93638" lon="3.98426">
        <ele>818.723</ele>
        <time>2012-05-19T07:26:35Z</time>
      </trkpt>
      <trkpt lat="44.93617" lon="3.98407">
        <ele>817.076</ele>
        <time>2012-05-19T07:26:55Z</time>
      </trkpt>
      <trkpt lat="44.9359" lon="3.98385">
        <ele>817.008</ele>
        <time>2012-05-19T07:27:21Z</time>
      </trkpt>
      <trkpt lat="44.93563" lon="3.98369">
        <ele>817.633</ele>
        <time>2012-05-19T07:27:45Z</time>
      </trkpt>
      <trkpt lat="44.93538" lon="3.98367">
        <ele>818.214</ele>
        <time>2012-05-19T07:28:07Z</time>
      </trkpt>
      <trkpt lat="44.93518" lon="3.98364">
        <ele>818.824</ele>
        <time>2012-05-19T07:28:25Z</time>
      </trkpt>
      <trkpt lat="44.93506" lon="3.98358">
        <ele>819.207</ele>
        <time>2012-05-19T07:28:36Z</time>
      </trkpt>
      <trkpt lat="44.93502" lon="3.98354">
        <ele>819.631</ele>
        <time>2012-05-19T07:28:41Z</time>
      </trkpt>
      <trkpt lat="44.93492" lon="3.98344">
        <ele>820.226</ele>
        <time>2012-05-19T07:28:53Z</time>
      </trkpt>
      <trkpt lat="44.93488" lon="3.98335">
        <ele>822.278</ele>
        <time>2012-05-19T07:29:03Z</time>
      </trkpt>
      <trkpt lat="44.93483" lon="3.98329">
        <ele>822.857</ele>
        <time>2012-05-19T07:29:10Z</time>
      </trkpt>
      <trkpt lat="44.93472" lon="3.98325">
        <ele>825.776</ele>
        <time>2012-05-19T07:29:26Z</time>
      </trkpt>
      <trkpt lat="44.93461" lon="3.98329">
        <ele>829.151</ele>
        <time>2012-05-19T07:29:43Z</time>
      </trkpt>
      <trkpt lat="44.93454" lon="3.98329">
        <ele>830.061</ele>
        <time>2012-05-19T07:29:51Z</time>
      </trkpt>
      <trkpt lat="44.93452" lon="3.98329">
        <ele>830.818</ele>
        <time>2012-05-19T07:29:53Z</time>
      </trkpt>
      <trkpt lat="44.93444" lon="3.98321">
        <ele>831.065</ele>
        <time>2012-05-19T07:30:01Z</time>
      </trkpt>
      <trkpt lat="44.93422" lon="3.98311">
        <ele>833.112</ele>
        <time>2012-05-19T07:30:20Z</time>
      </trkpt>
      <trkpt lat="44.9341" lon="3.98302">
        <ele>833.813</ele>
        <time>2012-05-19T07:30:33Z</time>
      </trkpt>
      <trkpt lat="44.93409" lon="3.98299">
        <ele>834.143</ele>
        <time>2012-05-19T07:30:35Z</time>
      </trkpt>
      <trkpt lat="44.93407" lon="3.98293">
        <ele>834.855</ele>
        <time>2012-05-19T07:30:39Z</time>
      </trkpt>
      <trkpt lat="44.9341" lon="3.98283">
        <ele>835.961</ele>
        <time>2012-05-19T07:30:47Z</time>
      </trkpt>
      <trkpt lat="44.93412" lon="3.98282">
        <ele>836.235</ele>
        <time>2012-05-19T07:30:49Z</time>
      </trkpt>
      <trkpt lat="44.93415" lon="3.98277">
        <ele>837.334</ele>
        <time>2012-05-19T07:30:53Z</time>
      </trkpt>
      <trkpt lat="44.93416" lon="3.98275">
        <ele>837.342</ele>
        <time>2012-05-19T07:30:55Z</time>
      </trkpt>
      <trkpt lat="44.93421" lon="3.98266">
        <ele>837.57</ele>
        <time>2012-05-19T07:31:02Z</time>
      </trkpt>
      <trkpt lat="44.93429" lon="3.98241">
        <ele>839.32</ele>
        <time>2012-05-19T07:31:22Z</time>
      </trkpt>
      <trkpt lat="44.93429" lon="3.9823">
        <ele>840.41</ele>
        <time>2012-05-19T07:31:32Z</time>
      </trkpt>
      <trkpt lat="44.93422" lon="3.9821">
        <ele>842.728</ele>
        <time>2012-05-19T07:31:50Z</time>
      </trkpt>
      <trkpt lat="44.93421" lon="3.98207">
        <ele>843.268</ele>
        <time>2012-05-19T07:31:54Z</time>
      </trkpt>
      <trkpt lat="44.93418" lon="3.982">
        <ele>844.558</ele>
        <time>2012-05-19T07:33:34Z</time>
      </trkpt>
      <trkpt lat="44.93423" lon="3.98193">
        <ele>845.909</ele>
        <time>2012-05-19T07:33:47Z</time>
      </trkpt>
      <trkpt lat="44.93423" lon="3.98189">
        <ele>845.953</ele>
        <time>2012-05-19T07:37:08Z</time>
      </trkpt>
      <trkpt lat="44.93425" lon="3.98172">
        <ele>847.392</ele>
        <time>2012-05-19T07:37:53Z</time>
      </trkpt>
      <trkpt lat="44.93423" lon="3.98157">
        <ele>847.561</ele>
        <time>2012-05-19T07:38:07Z</time>
      </trkpt>
      <trkpt lat="44.93417" lon="3.98146">
        <ele>850.646</ele>
        <time>2012-05-19T07:38:21Z</time>
      </trkpt>
      <trkpt lat="44.93416" lon="3.9814">
        <ele>851.713</ele>
        <time>2012-05-19T07:38:27Z</time>
      </trkpt>
      <trkpt lat="44.93415" lon="3.98125">
        <ele>851.312</ele>
        <time>2012-05-19T07:38:39Z</time>
      </trkpt>
      <trkpt lat="44.93414" lon="3.9811">
        <ele>852.418</ele>
        <time>2012-05-19T07:38:49Z</time>
      </trkpt>
      <trkpt lat="44.93403" lon="3.98088">
        <ele>852.853</ele>
        <time>2012-05-19T07:39:10Z</time>
      </trkpt>
      <trkpt lat="44.93401" lon="3.98084">
        <ele>853.421</ele>
        <time>2012-05-19T07:39:14Z</time>
      </trkpt>
      <trkpt lat="44.93396" lon="3.98076">
        <ele>856.929</ele>
        <time>2012-05-19T07:39:24Z</time>
      </trkpt>
      <trkpt lat="44.9339" lon="3.98068">
        <ele>857.285</ele>
        <time>2012-05-19T07:39:35Z</time>
      </trkpt>
      <trkpt lat="44.93384" lon="3.9806">
        <ele>859.94</ele>
        <time>2012-05-19T07:39:47Z</time>
      </trkpt>
      <trkpt lat="44.93381" lon="3.98055">
        <ele>861.432</ele>
        <time>2012-05-19T07:39:54Z</time>
      </trkpt>
      <trkpt lat="44.93371" lon="3.9805">
        <ele>864.804</ele>
        <time>2012-05-19T07:40:06Z</time>
      </trkpt>
      <trkpt lat="44.93369" lon="3.98049">
        <ele>866.029</ele>
        <time>2012-05-19T07:40:09Z</time>
      </trkpt>
      <trkpt lat="44.9336" lon="3.98043">
        <ele>868.107</ele>
        <time>2012-05-19T07:40:23Z</time>
      </trkpt>
      <trkpt lat="44.93348" lon="3.98036">
        <ele>871.183</ele>
        <time>2012-05-19T07:40:39Z</time>
      </trkpt>
      <trkpt lat="44.93345" lon="3.9803">
        <ele>872.534</ele>
        <time>2012-05-19T07:40:44Z</time>
      </trkpt>
      <trkpt lat="44.93346" lon="3.98015">
        <ele>873.048</ele>
        <time>2012-05-19T07:40:55Z</time>
      </trkpt>
      <trkpt lat="44.93341" lon="3.97992">
        <ele>873.12</ele>
        <time>2012-05-19T07:41:11Z</time>
      </trkpt>
      <trkpt lat="44.93336" lon="3.97975">
        <ele>873.364</ele>
        <time>2012-05-19T07:41:24Z</time>
      </trkpt>
      <trkpt lat="44.93336" lon="3.97972">
        <ele>873.648</ele>
        <time>2012-05-19T07:41:26Z</time>
      </trkpt>
      <trkpt lat="44.93338" lon="3.97956">
        <ele>874.523</ele>
        <time>2012-05-19T07:41:37Z</time>
      </trkpt>
      <trkpt lat="44.93347" lon="3.97939">
        <ele>874.212</ele>
        <time>2012-05-19T07:42:03Z</time>
      </trkpt>
      <trkpt lat="44.93347" lon="3.97933">
        <ele>874.08</ele>
        <time>2012-05-19T07:42:07Z</time>
      </trkpt>
      <trkpt lat="44.93348" lon="3.9792">
        <ele>873.618</ele>
        <time>2012-05-19T07:42:15Z</time>
      </trkpt>
      <trkpt lat="44.93347" lon="3.97917">
        <ele>873.092</ele>
        <time>2012-05-19T07:42:17Z</time>
      </trkpt>
      <trkpt lat="44.93346" lon="3.97907">
        <ele>872.814</ele>
        <time>2012-05-19T07:42:23Z</time>
      </trkpt>
      <trkpt lat="44.93345" lon="3.97901">
        <ele>873.876</ele>
        <time>2012-05-19T07:42:26Z</time>
      </trkpt>
      <trkpt lat="44.93345" lon="3.97897">
        <ele>874</ele>
        <time>2012-05-19T07:42:29Z</time>
      </trkpt>
      <trkpt lat="44.93346" lon="3.9789">
        <ele>875.959</ele>
        <time>2012-05-19T07:42:33Z</time>
      </trkpt>
      <trkpt lat="44.9335" lon="3.97876">
        <ele>878.326</ele>
        <time>2012-05-19T07:42:47Z</time>
      </trkpt>
      <trkpt lat="44.93357" lon="3.97855">
        <ele>880.542</ele>
        <time>2012-05-19T07:43:05Z</time>
      </trkpt>
      <trkpt lat="44.93358" lon="3.97848">
        <ele>880.334</ele>
        <time>2012-05-19T07:43:10Z</time>
      </trkpt>
      <trkpt lat="44.93366" lon="3.97837">
        <ele>877.571</ele>
        <time>2012-05-19T07:43:23Z</time>
      </trkpt>
      <trkpt lat="44.93368" lon="3.97835">
        <ele>876.947</ele>
        <time>2012-05-19T07:43:25Z</time>
      </trkpt>
      <trkpt lat="44.93377" lon="3.97816">
        <ele>874.817</ele>
        <time>2012-05-19T07:43:43Z</time>
      </trkpt>
      <trkpt lat="44.93376" lon="3.97796">
        <ele>872.206</ele>
        <time>2012-05-19T07:44:05Z</time>
      </trkpt>
      <trkpt lat="44.93375" lon="3.97792">
        <ele>872.002</ele>
        <time>2012-05-19T07:44:07Z</time>
      </trkpt>
      <trkpt lat="44.93368" lon="3.9777">
        <ele>870.014</ele>
        <time>2012-05-19T07:44:20Z</time>
      </trkpt>
      <trkpt lat="44.93362" lon="3.97757">
        <ele>869.29</ele>
        <time>2012-05-19T07:44:29Z</time>
      </trkpt>
      <trkpt lat="44.93355" lon="3.97751">
        <ele>869.258</ele>
        <time>2012-05-19T07:44:46Z</time>
      </trkpt>
      <trkpt lat="44.93354" lon="3.97733">
        <ele>870.044</ele>
        <time>2012-05-19T07:44:56Z</time>
      </trkpt>
      <trkpt lat="44.93354" lon="3.97731">
        <ele>870.081</ele>
        <time>2012-05-19T07:44:58Z</time>
      </trkpt>
      <trkpt lat="44.9335" lon="3.9771">
        <ele>871.426</ele>
        <time>2012-05-19T07:45:12Z</time>
      </trkpt>
      <trkpt lat="44.93345" lon="3.97693">
        <ele>870.813</ele>
        <time>2012-05-19T07:45:26Z</time>
      </trkpt>
      <trkpt lat="44.93342" lon="3.97676">
        <ele>872.056</ele>
        <time>2012-05-19T07:45:39Z</time>
      </trkpt>
      <trkpt lat="44.93335" lon="3.97662">
        <ele>873.486</ele>
        <time>2012-05-19T07:45:54Z</time>
      </trkpt>
      <trkpt lat="44.93327" lon="3.97653">
        <ele>874.874</ele>
        <time>2012-05-19T07:46:08Z</time>
      </trkpt>
      <trkpt lat="44.93322" lon="3.97642">
        <ele>877.213</ele>
        <time>2012-05-19T07:46:25Z</time>
      </trkpt>
      <trkpt lat="44.93319" lon="3.97633">
        <ele>878.39</ele>
        <time>2012-05-19T07:46:32Z</time>
      </trkpt>
      <trkpt lat="44.93324" lon="3.97617">
        <ele>879.717</ele>
        <time>2012-05-19T07:46:45Z</time>
      </trkpt>
      <trkpt lat="44.93325" lon="3.97593">
        <ele>881.391</ele>
        <time>2012-05-19T07:47:03Z</time>
      </trkpt>
      <trkpt lat="44.93331" lon="3.97576">
        <ele>881.762</ele>
        <time>2012-05-19T07:47:21Z</time>
      </trkpt>
      <trkpt lat="44.93339" lon="3.97555">
        <ele>883.61</ele>
        <time>2012-05-19T07:47:37Z</time>
      </trkpt>
      <trkpt lat="44.93348" lon="3.97539">
        <ele>884.867</ele>
        <time>2012-05-19T07:47:53Z</time>
      </trkpt>
      <trkpt lat="44.93355" lon="3.97522">
        <ele>886.578</ele>
        <time>2012-05-19T07:48:06Z</time>
      </trkpt>
      <trkpt lat="44.93363" lon="3.97509">
        <ele>886.559</ele>
        <time>2012-05-19T07:48:19Z</time>
      </trkpt>
      <trkpt lat="44.93364" lon="3.97491">
        <ele>888.248</ele>
        <time>2012-05-19T07:48:33Z</time>
      </trkpt>
      <trkpt lat="44.93366" lon="3.97468">
        <ele>889.556</ele>
        <time>2012-05-19T07:48:49Z</time>
      </trkpt>
      <trkpt lat="44.93367" lon="3.97453">
        <ele>890.07</ele>
        <time>2012-05-19T07:48:59Z</time>
      </trkpt>
      <trkpt lat="44.93371" lon="3.97436">
        <ele>892.094</ele>
        <time>2012-05-19T07:49:13Z</time>
      </trkpt>
      <trkpt lat="44.93375" lon="3.97419">
        <ele>893.488</ele>
        <time>2012-05-19T07:49:25Z</time>
      </trkpt>
      <trkpt lat="44.93375" lon="3.97412">
        <ele>893.779</ele>
        <time>2012-05-19T07:49:31Z</time>
      </trkpt>
      <trkpt lat="44.93372" lon="3.97398">
        <ele>893.7</ele>
        <time>2012-05-19T07:49:43Z</time>
      </trkpt>
      <trkpt lat="44.93368" lon="3.97383">
        <ele>895.403</ele>
        <time>2012-05-19T07:49:56Z</time>
      </trkpt>
      <trkpt lat="44.93364" lon="3.97366">
        <ele>896.741</ele>
        <time>2012-05-19T07:50:11Z</time>
      </trkpt>
      <trkpt lat="44.9336" lon="3.97349">
        <ele>898.659</ele>
        <time>2012-05-19T07:50:27Z</time>
      </trkpt>
      <trkpt lat="44.93354" lon="3.97328">
        <ele>900.375</ele>
        <time>2012-05-19T07:50:46Z</time>
      </trkpt>
      <trkpt lat="44.93352" lon="3.97321">
        <ele>900.43</ele>
        <time>2012-05-19T07:50:52Z</time>
      </trkpt>
      <trkpt lat="44.93351" lon="3.97316">
        <ele>901.083</ele>
        <time>2012-05-19T07:50:56Z</time>
      </trkpt>
      <trkpt lat="44.93351" lon="3.97297">
        <ele>905.007</ele>
        <time>2012-05-19T07:51:15Z</time>
      </trkpt>
      <trkpt lat="44.93347" lon="3.97285">
        <ele>906.62</ele>
        <time>2012-05-19T07:51:28Z</time>
      </trkpt>
      <trkpt lat="44.93346" lon="3.97277">
        <ele>906.698</ele>
        <time>2012-05-19T07:51:35Z</time>
      </trkpt>
      <trkpt lat="44.93347" lon="3.97257">
        <ele>909.738</ele>
        <time>2012-05-19T07:51:54Z</time>
      </trkpt>
      <trkpt lat="44.9335" lon="3.97236">
        <ele>912.021</ele>
        <time>2012-05-19T07:52:12Z</time>
      </trkpt>
      <trkpt lat="44.93351" lon="3.97221">
        <ele>912.931</ele>
        <time>2012-05-19T07:52:28Z</time>
      </trkpt>
      <trkpt lat="44.93352" lon="3.97201">
        <ele>915.854</ele>
        <time>2012-05-19T07:52:44Z</time>
      </trkpt>
      <trkpt lat="44.93353" lon="3.97187">
        <ele>918.653</ele>
        <time>2012-05-19T07:52:59Z</time>
      </trkpt>
      <trkpt lat="44.93362" lon="3.97164">
        <ele>919.703</ele>
        <time>2012-05-19T07:53:18Z</time>
      </trkpt>
      <trkpt lat="44.9336" lon="3.97147">
        <ele>922.521</ele>
        <time>2012-05-19T07:53:34Z</time>
      </trkpt>
      <trkpt lat="44.93361" lon="3.9714">
        <ele>923.368</ele>
        <time>2012-05-19T07:53:41Z</time>
      </trkpt>
      <trkpt lat="44.9336" lon="3.97122">
        <ele>925.833</ele>
        <time>2012-05-19T07:53:57Z</time>
      </trkpt>
      <trkpt lat="44.93353" lon="3.97113">
        <ele>927.367</ele>
        <time>2012-05-19T07:54:11Z</time>
      </trkpt>
      <trkpt lat="44.93349" lon="3.97112">
        <ele>928.714</ele>
        <time>2012-05-19T07:54:15Z</time>
      </trkpt>
      <trkpt lat="44.93337" lon="3.97115">
        <ele>928.827</ele>
        <time>2012-05-19T07:54:29Z</time>
      </trkpt>
      <trkpt lat="44.93329" lon="3.97114">
        <ele>930.205</ele>
        <time>2012-05-19T07:54:41Z</time>
      </trkpt>
      <trkpt lat="44.93322" lon="3.97112">
        <ele>930.948</ele>
        <time>2012-05-19T07:54:50Z</time>
      </trkpt>
      <trkpt lat="44.93315" lon="3.97112">
        <ele>931.452</ele>
        <time>2012-05-19T07:54:56Z</time>
      </trkpt>
      <trkpt lat="44.93313" lon="3.9711">
        <ele>932.516</ele>
        <time>2012-05-19T07:54:58Z</time>
      </trkpt>
      <trkpt lat="44.93309" lon="3.97109">
        <ele>932.514</ele>
        <time>2012-05-19T07:55:01Z</time>
      </trkpt>
      <trkpt lat="44.93297" lon="3.97105">
        <ele>934.005</ele>
        <time>2012-05-19T07:55:14Z</time>
      </trkpt>
      <trkpt lat="44.93292" lon="3.97101">
        <ele>934.589</ele>
        <time>2012-05-19T07:55:22Z</time>
      </trkpt>
      <trkpt lat="44.93283" lon="3.97096">
        <ele>935.645</ele>
        <time>2012-05-19T07:55:32Z</time>
      </trkpt>
      <trkpt lat="44.93273" lon="3.97087">
        <ele>936.802</ele>
        <time>2012-05-19T07:55:45Z</time>
      </trkpt>
      <trkpt lat="44.93268" lon="3.97079">
        <ele>937.469</ele>
        <time>2012-05-19T07:55:52Z</time>
      </trkpt>
      <trkpt lat="44.93262" lon="3.97054">
        <ele>937.961</ele>
        <time>2012-05-19T07:56:08Z</time>
      </trkpt>
      <trkpt lat="44.93256" lon="3.97021">
        <ele>940.618</ele>
        <time>2012-05-19T07:56:31Z</time>
      </trkpt>
      <trkpt lat="44.93255" lon="3.96999">
        <ele>942.48</ele>
        <time>2012-05-19T07:56:46Z</time>
      </trkpt>
      <trkpt lat="44.93256" lon="3.96981">
        <ele>945.639</ele>
        <time>2012-05-19T07:56:59Z</time>
      </trkpt>
      <trkpt lat="44.93258" lon="3.96952">
        <ele>945.664</ele>
        <time>2012-05-19T07:57:18Z</time>
      </trkpt>
      <trkpt lat="44.93259" lon="3.96924">
        <ele>946.161</ele>
        <time>2012-05-19T07:57:36Z</time>
      </trkpt>
      <trkpt lat="44.93265" lon="3.96892">
        <ele>946.033</ele>
        <time>2012-05-19T07:57:56Z</time>
      </trkpt>
      <trkpt lat="44.93265" lon="3.96862">
        <ele>947.349</ele>
        <time>2012-05-19T07:58:16Z</time>
      </trkpt>
      <trkpt lat="44.93258" lon="3.96835">
        <ele>947.604</ele>
        <time>2012-05-19T07:58:35Z</time>
      </trkpt>
      <trkpt lat="44.93256" lon="3.96831">
        <ele>947.806</ele>
        <time>2012-05-19T07:58:39Z</time>
      </trkpt>
      <trkpt lat="44.93247" lon="3.96815">
        <ele>948.268</ele>
        <time>2012-05-19T07:58:52Z</time>
      </trkpt>
      <trkpt lat="44.93242" lon="3.96809">
        <ele>949.023</ele>
        <time>2012-05-19T07:59:00Z</time>
      </trkpt>
      <trkpt lat="44.9323" lon="3.96784">
        <ele>951.616</ele>
        <time>2012-05-19T07:59:22Z</time>
      </trkpt>
      <trkpt lat="44.93227" lon="3.96774">
        <ele>953.452</ele>
        <time>2012-05-19T07:59:30Z</time>
      </trkpt>
      <trkpt lat="44.93223" lon="3.96753">
        <ele>953.925</ele>
        <time>2012-05-19T07:59:46Z</time>
      </trkpt>
      <trkpt lat="44.93221" lon="3.96749">
        <ele>954.349</ele>
        <time>2012-05-19T07:59:49Z</time>
      </trkpt>
      <trkpt lat="44.93202" lon="3.9672">
        <ele>955.783</ele>
        <time>2012-05-19T08:00:15Z</time>
      </trkpt>
      <trkpt lat="44.93187" lon="3.96698">
        <ele>956.357</ele>
        <time>2012-05-19T08:00:36Z</time>
      </trkpt>
      <trkpt lat="44.93184" lon="3.96696">
        <ele>957.707</ele>
        <time>2012-05-19T08:00:39Z</time>
      </trkpt>
      <trkpt lat="44.93166" lon="3.96672">
        <ele>959.453</ele>
        <time>2012-05-19T08:01:02Z</time>
      </trkpt>
      <trkpt lat="44.93161" lon="3.96661">
        <ele>960.822</ele>
        <time>2012-05-19T08:01:11Z</time>
      </trkpt>
      <trkpt lat="44.93143" lon="3.96644">
        <ele>960.611</ele>
        <time>2012-05-19T08:01:32Z</time>
      </trkpt>
      <trkpt lat="44.93129" lon="3.9664">
        <ele>960.525</ele>
        <time>2012-05-19T08:01:46Z</time>
      </trkpt>
      <trkpt lat="44.93127" lon="3.96638">
        <ele>963.011</ele>
        <time>2012-05-19T08:01:49Z</time>
      </trkpt>
      <trkpt lat="44.93107" lon="3.96626">
        <ele>964.016</ele>
        <time>2012-05-19T08:02:09Z</time>
      </trkpt>
      <trkpt lat="44.93105" lon="3.96624">
        <ele>962.171</ele>
        <time>2012-05-19T08:02:11Z</time>
      </trkpt>
      <trkpt lat="44.93095" lon="3.96617">
        <ele>965.708</ele>
        <time>2012-05-19T08:02:21Z</time>
      </trkpt>
      <trkpt lat="44.93087" lon="3.9661">
        <ele>965.224</ele>
        <time>2012-05-19T08:02:30Z</time>
      </trkpt>
      <trkpt lat="44.93062" lon="3.96592">
        <ele>962.689</ele>
        <time>2012-05-19T08:02:56Z</time>
      </trkpt>
      <trkpt lat="44.9306" lon="3.96591">
        <ele>964.947</ele>
        <time>2012-05-19T08:02:58Z</time>
      </trkpt>
      <trkpt lat="44.93038" lon="3.96582">
        <ele>965.412</ele>
        <time>2012-05-19T08:03:19Z</time>
      </trkpt>
      <trkpt lat="44.93029" lon="3.9658">
        <ele>963.354</ele>
        <time>2012-05-19T08:03:26Z</time>
      </trkpt>
      <trkpt lat="44.93021" lon="3.96578">
        <ele>964.866</ele>
        <time>2012-05-19T08:03:35Z</time>
      </trkpt>
      <trkpt lat="44.93017" lon="3.96577">
        <ele>964.736</ele>
        <time>2012-05-19T08:04:45Z</time>
      </trkpt>
      <trkpt lat="44.93014" lon="3.96576">
        <ele>962.959</ele>
        <time>2012-05-19T08:04:47Z</time>
      </trkpt>
      <trkpt lat="44.93013" lon="3.96575">
        <ele>965.512</ele>
        <time>2012-05-19T08:04:49Z</time>
      </trkpt>
      <trkpt lat="44.93005" lon="3.96571">
        <ele>960.82</ele>
        <time>2012-05-19T08:11:44Z</time>
      </trkpt>
      <trkpt lat="44.93002" lon="3.96571">
        <ele>962.209</ele>
        <time>2012-05-19T08:11:46Z</time>
      </trkpt>
      <trkpt lat="44.92998" lon="3.96569">
        <ele>959.887</ele>
        <time>2012-05-19T08:11:49Z</time>
      </trkpt>
      <trkpt lat="44.92993" lon="3.96566">
        <ele>962.464</ele>
        <time>2012-05-19T08:11:53Z</time>
      </trkpt>
      <trkpt lat="44.92978" lon="3.96557">
        <ele>961.329</ele>
        <time>2012-05-19T08:12:08Z</time>
      </trkpt>
      <trkpt lat="44.92974" lon="3.96553">
        <ele>960.951</ele>
        <time>2012-05-19T08:12:13Z</time>
      </trkpt>
      <trkpt lat="44.9296" lon="3.96543">
        <ele>958.073</ele>
        <time>2012-05-19T08:12:28Z</time>
      </trkpt>
      <trkpt lat="44.92958" lon="3.96542">
        <ele>959.751</ele>
        <time>2012-05-19T08:12:30Z</time>
      </trkpt>
      <trkpt lat="44.92955" lon="3.9654">
        <ele>957.196</ele>
        <time>2012-05-19T08:12:32Z</time>
      </trkpt>
      <trkpt lat="44.92951" lon="3.96536">
        <ele>956.98</ele>
        <time>2012-05-19T08:12:36Z</time>
      </trkpt>
      <trkpt lat="44.92944" lon="3.96533">
        <ele>955.567</ele>
        <time>2012-05-19T08:12:42Z</time>
      </trkpt>
      <trkpt lat="44.92939" lon="3.96531">
        <ele>957.696</ele>
        <time>2012-05-19T08:12:46Z</time>
      </trkpt>
      <trkpt lat="44.92926" lon="3.96532">
        <ele>960.723</ele>
        <time>2012-05-19T08:12:56Z</time>
      </trkpt>
      <trkpt lat="44.92923" lon="3.96533">
        <ele>957.95</ele>
        <time>2012-05-19T08:12:58Z</time>
      </trkpt>
      <trkpt lat="44.9292" lon="3.96535">
        <ele>956.878</ele>
        <time>2012-05-19T08:13:01Z</time>
      </trkpt>
      <trkpt lat="44.92918" lon="3.96535">
        <ele>956.02</ele>
        <time>2012-05-19T08:13:03Z</time>
      </trkpt>
      <trkpt lat="44.92907" lon="3.9654">
        <ele>952.043</ele>
        <time>2012-05-19T08:13:12Z</time>
      </trkpt>
      <trkpt lat="44.929" lon="3.96539">
        <ele>951.038</ele>
        <time>2012-05-19T08:13:17Z</time>
      </trkpt>
      <trkpt lat="44.92879" lon="3.96531">
        <ele>949.342</ele>
        <time>2012-05-19T08:13:34Z</time>
      </trkpt>
      <trkpt lat="44.92874" lon="3.96529">
        <ele>949.369</ele>
        <time>2012-05-19T08:13:37Z</time>
      </trkpt>
      <trkpt lat="44.92869" lon="3.96524">
        <ele>949.04</ele>
        <time>2012-05-19T08:13:42Z</time>
      </trkpt>
      <trkpt lat="44.92864" lon="3.96513">
        <ele>948.696</ele>
        <time>2012-05-19T08:13:50Z</time>
      </trkpt>
      <trkpt lat="44.92861" lon="3.9651">
        <ele>948.314</ele>
        <time>2012-05-19T08:13:54Z</time>
      </trkpt>
      <trkpt lat="44.92857" lon="3.96502">
        <ele>946.717</ele>
        <time>2012-05-19T08:14:00Z</time>
      </trkpt>
      <trkpt lat="44.92854" lon="3.96495">
        <ele>945.664</ele>
        <time>2012-05-19T08:14:05Z</time>
      </trkpt>
      <trkpt lat="44.92853" lon="3.96493">
        <ele>947.174</ele>
        <time>2012-05-19T08:14:07Z</time>
      </trkpt>
      <trkpt lat="44.92847" lon="3.96477">
        <ele>944.469</ele>
        <time>2012-05-19T08:14:20Z</time>
      </trkpt>
      <trkpt lat="44.92845" lon="3.9647">
        <ele>944.505</ele>
        <time>2012-05-19T08:14:26Z</time>
      </trkpt>
      <trkpt lat="44.92833" lon="3.96445">
        <ele>942.266</ele>
        <time>2012-05-19T08:14:43Z</time>
      </trkpt>
      <trkpt lat="44.9282" lon="3.96414">
        <ele>938.6</ele>
        <time>2012-05-19T08:15:06Z</time>
      </trkpt>
      <trkpt lat="44.9282" lon="3.9641">
        <ele>938.293</ele>
        <time>2012-05-19T08:15:08Z</time>
      </trkpt>
      <trkpt lat="44.92811" lon="3.96394">
        <ele>936.221</ele>
        <time>2012-05-19T08:15:22Z</time>
      </trkpt>
      <trkpt lat="44.92806" lon="3.96388">
        <ele>935.207</ele>
        <time>2012-05-19T08:15:28Z</time>
      </trkpt>
      <trkpt lat="44.92795" lon="3.96378">
        <ele>934.676</ele>
        <time>2012-05-19T08:15:40Z</time>
      </trkpt>
      <trkpt lat="44.92772" lon="3.96358">
        <ele>931.956</ele>
        <time>2012-05-19T08:16:02Z</time>
      </trkpt>
      <trkpt lat="44.92755" lon="3.96335">
        <ele>933.403</ele>
        <time>2012-05-19T08:16:24Z</time>
      </trkpt>
      <trkpt lat="44.92745" lon="3.96315">
        <ele>933.67</ele>
        <time>2012-05-19T08:16:42Z</time>
      </trkpt>
      <trkpt lat="44.92742" lon="3.96313">
        <ele>935.265</ele>
        <time>2012-05-19T08:16:45Z</time>
      </trkpt>
      <trkpt lat="44.92724" lon="3.96301">
        <ele>937.428</ele>
        <time>2012-05-19T08:17:04Z</time>
      </trkpt>
      <trkpt lat="44.92708" lon="3.96288">
        <ele>937.858</ele>
        <time>2012-05-19T08:17:24Z</time>
      </trkpt>
      <trkpt lat="44.92705" lon="3.96288">
        <ele>940.636</ele>
        <time>2012-05-19T08:17:27Z</time>
      </trkpt>
      <trkpt lat="44.92691" lon="3.96283">
        <ele>940.678</ele>
        <time>2012-05-19T08:17:43Z</time>
      </trkpt>
      <trkpt lat="44.92686" lon="3.96274">
        <ele>941.1</ele>
        <time>2012-05-19T08:17:51Z</time>
      </trkpt>
      <trkpt lat="44.92677" lon="3.96247">
        <ele>944.202</ele>
        <time>2012-05-19T08:18:14Z</time>
      </trkpt>
      <trkpt lat="44.92665" lon="3.96227">
        <ele>945.733</ele>
        <time>2012-05-19T08:18:35Z</time>
      </trkpt>
      <trkpt lat="44.92648" lon="3.96217">
        <ele>949.021</ele>
        <time>2012-05-19T08:18:56Z</time>
      </trkpt>
      <trkpt lat="44.92639" lon="3.96213">
        <ele>949.656</ele>
        <time>2012-05-19T08:19:05Z</time>
      </trkpt>
      <trkpt lat="44.92626" lon="3.96209">
        <ele>951.435</ele>
        <time>2012-05-19T08:19:20Z</time>
      </trkpt>
      <trkpt lat="44.92614" lon="3.96199">
        <ele>953.421</ele>
        <time>2012-05-19T08:19:37Z</time>
      </trkpt>
      <trkpt lat="44.92612" lon="3.9619">
        <ele>955.094</ele>
        <time>2012-05-19T08:19:45Z</time>
      </trkpt>
      <trkpt lat="44.92612" lon="3.96178">
        <ele>956.826</ele>
        <time>2012-05-19T08:19:53Z</time>
      </trkpt>
      <trkpt lat="44.92614" lon="3.96144">
        <ele>958.317</ele>
        <time>2012-05-19T08:20:16Z</time>
      </trkpt>
      <trkpt lat="44.92607" lon="3.96108">
        <ele>960.497</ele>
        <time>2012-05-19T08:20:42Z</time>
      </trkpt>
      <trkpt lat="44.92598" lon="3.96085">
        <ele>962.655</ele>
        <time>2012-05-19T08:21:02Z</time>
      </trkpt>
      <trkpt lat="44.92596" lon="3.96078">
        <ele>963.966</ele>
        <time>2012-05-19T08:21:09Z</time>
      </trkpt>
      <trkpt lat="44.92595" lon="3.96076">
        <ele>961.899</ele>
        <time>2012-05-19T08:21:11Z</time>
      </trkpt>
      <trkpt lat="44.92589" lon="3.96061">
        <ele>963.786</ele>
        <time>2012-05-19T08:21:22Z</time>
      </trkpt>
      <trkpt lat="44.92576" lon="3.96042">
        <ele>964.998</ele>
        <time>2012-05-19T08:21:39Z</time>
      </trkpt>
      <trkpt lat="44.92574" lon="3.9604">
        <ele>964.696</ele>
        <time>2012-05-19T08:21:41Z</time>
      </trkpt>
      <trkpt lat="44.92557" lon="3.9601">
        <ele>962.383</ele>
        <time>2012-05-19T08:22:05Z</time>
      </trkpt>
      <trkpt lat="44.92544" lon="3.95984">
        <ele>960.124</ele>
        <time>2012-05-19T08:22:25Z</time>
      </trkpt>
      <trkpt lat="44.92538" lon="3.95961">
        <ele>956.595</ele>
        <time>2012-05-19T08:22:43Z</time>
      </trkpt>
      <trkpt lat="44.92534" lon="3.95955">
        <ele>955.182</ele>
        <time>2012-05-19T08:22:48Z</time>
      </trkpt>
      <trkpt lat="44.92529" lon="3.95941">
        <ele>952.704</ele>
        <time>2012-05-19T08:22:58Z</time>
      </trkpt>
      <trkpt lat="44.92525" lon="3.95922">
        <ele>953.851</ele>
        <time>2012-05-19T08:23:10Z</time>
      </trkpt>
      <trkpt lat="44.92525" lon="3.9591">
        <ele>954.537</ele>
        <time>2012-05-19T08:23:21Z</time>
      </trkpt>
      <trkpt lat="44.9253" lon="3.95888">
        <ele>955.108</ele>
        <time>2012-05-19T08:23:37Z</time>
      </trkpt>
      <trkpt lat="44.92532" lon="3.95876">
        <ele>956.589</ele>
        <time>2012-05-19T08:23:46Z</time>
      </trkpt>
      <trkpt lat="44.92533" lon="3.9587">
        <ele>957.339</ele>
        <time>2012-05-19T08:23:52Z</time>
      </trkpt>
      <trkpt lat="44.92527" lon="3.95843">
        <ele>958.871</ele>
        <time>2012-05-19T08:24:12Z</time>
      </trkpt>
      <trkpt lat="44.92524" lon="3.95838">
        <ele>956.124</ele>
        <time>2012-05-19T08:24:16Z</time>
      </trkpt>
      <trkpt lat="44.92523" lon="3.95835">
        <ele>957.927</ele>
        <time>2012-05-19T08:24:19Z</time>
      </trkpt>
      <trkpt lat="44.9252" lon="3.95831">
        <ele>959.277</ele>
        <time>2012-05-19T08:24:23Z</time>
      </trkpt>
      <trkpt lat="44.92517" lon="3.95825">
        <ele>961.62</ele>
        <time>2012-05-19T08:24:29Z</time>
      </trkpt>
      <trkpt lat="44.92514" lon="3.95818">
        <ele>960.991</ele>
        <time>2012-05-19T08:24:36Z</time>
      </trkpt>
      <trkpt lat="44.92512" lon="3.95814">
        <ele>962.29</ele>
        <time>2012-05-19T08:24:39Z</time>
      </trkpt>
      <trkpt lat="44.92506" lon="3.95791">
        <ele>963.861</ele>
        <time>2012-05-19T08:24:54Z</time>
      </trkpt>
      <trkpt lat="44.92494" lon="3.9576">
        <ele>964.484</ele>
        <time>2012-05-19T08:25:17Z</time>
      </trkpt>
      <trkpt lat="44.92484" lon="3.95741">
        <ele>965.741</ele>
        <time>2012-05-19T08:25:32Z</time>
      </trkpt>
      <trkpt lat="44.92482" lon="3.9573">
        <ele>966.583</ele>
        <time>2012-05-19T08:25:42Z</time>
      </trkpt>
      <trkpt lat="44.92477" lon="3.95721">
        <ele>967.082</ele>
        <time>2012-05-19T08:26:09Z</time>
      </trkpt>
      <trkpt lat="44.92475" lon="3.95716">
        <ele>965.858</ele>
        <time>2012-05-19T08:26:12Z</time>
      </trkpt>
      <trkpt lat="44.92472" lon="3.95707">
        <ele>970.062</ele>
        <time>2012-05-19T08:26:19Z</time>
      </trkpt>
      <trkpt lat="44.9247" lon="3.957">
        <ele>967.912</ele>
        <time>2012-05-19T08:26:24Z</time>
      </trkpt>
      <trkpt lat="44.92461" lon="3.95664">
        <ele>967.277</ele>
        <time>2012-05-19T08:28:20Z</time>
      </trkpt>
      <trkpt lat="44.92454" lon="3.95663">
        <ele>968.045</ele>
        <time>2012-05-19T08:28:37Z</time>
      </trkpt>
      <trkpt lat="44.92443" lon="3.95647">
        <ele>968.894</ele>
        <time>2012-05-19T08:28:56Z</time>
      </trkpt>
      <trkpt lat="44.92437" lon="3.95645">
        <ele>969.101</ele>
        <time>2012-05-19T08:29:02Z</time>
      </trkpt>
      <trkpt lat="44.92417" lon="3.95629">
        <ele>971.188</ele>
        <time>2012-05-19T08:29:25Z</time>
      </trkpt>
      <trkpt lat="44.92403" lon="3.95623">
        <ele>973.184</ele>
        <time>2012-05-19T08:29:38Z</time>
      </trkpt>
      <trkpt lat="44.92398" lon="3.95619">
        <ele>973.233</ele>
        <time>2012-05-19T08:29:43Z</time>
      </trkpt>
      <trkpt lat="44.92395" lon="3.95609">
        <ele>972.713</ele>
        <time>2012-05-19T08:29:52Z</time>
      </trkpt>
      <trkpt lat="44.92395" lon="3.956">
        <ele>973.727</ele>
        <time>2012-05-19T08:30:22Z</time>
      </trkpt>
      <trkpt lat="44.92398" lon="3.95568">
        <ele>973.729</ele>
        <time>2012-05-19T08:30:42Z</time>
      </trkpt>
      <trkpt lat="44.92395" lon="3.95522">
        <ele>974.576</ele>
        <time>2012-05-19T08:31:09Z</time>
      </trkpt>
      <trkpt lat="44.92394" lon="3.95506">
        <ele>973.866</ele>
        <time>2012-05-19T08:31:50Z</time>
      </trkpt>
      <trkpt lat="44.92394" lon="3.95494">
        <ele>973.143</ele>
        <time>2012-05-19T08:31:59Z</time>
      </trkpt>
      <trkpt lat="44.92395" lon="3.95486">
        <ele>974.226</ele>
        <time>2012-05-19T08:32:04Z</time>
      </trkpt>
      <trkpt lat="44.92399" lon="3.95459">
        <ele>972.794</ele>
        <time>2012-05-19T08:32:44Z</time>
      </trkpt>
      <trkpt lat="44.92404" lon="3.95441">
        <ele>972.216</ele>
        <time>2012-05-19T08:33:02Z</time>
      </trkpt>
      <trkpt lat="44.92403" lon="3.95436">
        <ele>973.158</ele>
        <time>2012-05-19T08:33:05Z</time>
      </trkpt>
      <trkpt lat="44.92416" lon="3.95408">
        <ele>969.542</ele>
        <time>2012-05-19T08:33:23Z</time>
      </trkpt>
      <trkpt lat="44.92423" lon="3.95398">
        <ele>970.385</ele>
        <time>2012-05-19T08:33:30Z</time>
      </trkpt>
      <trkpt lat="44.92426" lon="3.95395">
        <ele>968.921</ele>
        <time>2012-05-19T08:33:33Z</time>
      </trkpt>
      <trkpt lat="44.92428" lon="3.95392">
        <ele>968.072</ele>
        <time>2012-05-19T08:33:35Z</time>
      </trkpt>
      <trkpt lat="44.92428" lon="3.95384">
        <ele>965.78</ele>
        <time>2012-05-19T08:33:39Z</time>
      </trkpt>
      <trkpt lat="44.92424" lon="3.95342">
        <ele>965.425</ele>
        <time>2012-05-19T08:34:01Z</time>
      </trkpt>
      <trkpt lat="44.92423" lon="3.95331">
        <ele>963.849</ele>
        <time>2012-05-19T08:34:07Z</time>
      </trkpt>
      <trkpt lat="44.92421" lon="3.95306">
        <ele>964.203</ele>
        <time>2012-05-19T08:34:20Z</time>
      </trkpt>
      <trkpt lat="44.92416" lon="3.95268">
        <ele>961.618</ele>
        <time>2012-05-19T08:34:45Z</time>
      </trkpt>
      <trkpt lat="44.92414" lon="3.95244">
        <ele>960.764</ele>
        <time>2012-05-19T08:35:05Z</time>
      </trkpt>
      <trkpt lat="44.92409" lon="3.95209">
        <ele>960.429</ele>
        <time>2012-05-19T08:35:24Z</time>
      </trkpt>
      <trkpt lat="44.92404" lon="3.95174">
        <ele>957.825</ele>
        <time>2012-05-19T08:35:42Z</time>
      </trkpt>
      <trkpt lat="44.92402" lon="3.95166">
        <ele>960.283</ele>
        <time>2012-05-19T08:35:46Z</time>
      </trkpt>
      <trkpt lat="44.92395" lon="3.95127">
        <ele>961.566</ele>
        <time>2012-05-19T08:36:07Z</time>
      </trkpt>
      <trkpt lat="44.92395" lon="3.95124">
        <ele>959.412</ele>
        <time>2012-05-19T08:36:09Z</time>
      </trkpt>
      <trkpt lat="44.92392" lon="3.95098">
        <ele>960.351</ele>
        <time>2012-05-19T08:36:22Z</time>
      </trkpt>
      <trkpt lat="44.92386" lon="3.95061">
        <ele>960.366</ele>
        <time>2012-05-19T08:36:43Z</time>
      </trkpt>
      <trkpt lat="44.92378" lon="3.95019">
        <ele>958.244</ele>
        <time>2012-05-19T08:37:06Z</time>
      </trkpt>
      <trkpt lat="44.92372" lon="3.94991">
        <ele>957.237</ele>
        <time>2012-05-19T08:37:21Z</time>
      </trkpt>
      <trkpt lat="44.9237" lon="3.9497">
        <ele>957.998</ele>
        <time>2012-05-19T08:38:09Z</time>
      </trkpt>
      <trkpt lat="44.92368" lon="3.94966">
        <ele>958.523</ele>
        <time>2012-05-19T08:38:13Z</time>
      </trkpt>
      <trkpt lat="44.92363" lon="3.9495">
        <ele>960.463</ele>
        <time>2012-05-19T08:38:22Z</time>
      </trkpt>
      <trkpt lat="44.92361" lon="3.94946">
        <ele>956.572</ele>
        <time>2012-05-19T08:38:24Z</time>
      </trkpt>
      <trkpt lat="44.92359" lon="3.94944">
        <ele>958.223</ele>
        <time>2012-05-19T08:38:26Z</time>
      </trkpt>
      <trkpt lat="44.92356" lon="3.94939">
        <ele>956.806</ele>
        <time>2012-05-19T08:38:29Z</time>
      </trkpt>
      <trkpt lat="44.92347" lon="3.94917">
        <ele>958.083</ele>
        <time>2012-05-19T08:38:43Z</time>
      </trkpt>
      <trkpt lat="44.92335" lon="3.9489">
        <ele>958.43</ele>
        <time>2012-05-19T08:38:59Z</time>
      </trkpt>
      <trkpt lat="44.92333" lon="3.94883">
        <ele>957.641</ele>
        <time>2012-05-19T08:39:03Z</time>
      </trkpt>
      <trkpt lat="44.92326" lon="3.94873">
        <ele>957.602</ele>
        <time>2012-05-19T08:39:10Z</time>
      </trkpt>
      <trkpt lat="44.92308" lon="3.9484">
        <ele>957.524</ele>
        <time>2012-05-19T08:39:31Z</time>
      </trkpt>
      <trkpt lat="44.92288" lon="3.94809">
        <ele>957.929</ele>
        <time>2012-05-19T08:39:52Z</time>
      </trkpt>
      <trkpt lat="44.92286" lon="3.94807">
        <ele>959.401</ele>
        <time>2012-05-19T08:39:54Z</time>
      </trkpt>
      <trkpt lat="44.92259" lon="3.94779">
        <ele>957.833</ele>
        <time>2012-05-19T08:40:18Z</time>
      </trkpt>
      <trkpt lat="44.92226" lon="3.94753">
        <ele>958.392</ele>
        <time>2012-05-19T08:40:45Z</time>
      </trkpt>
      <trkpt lat="44.92223" lon="3.94751">
        <ele>959.651</ele>
        <time>2012-05-19T08:40:47Z</time>
      </trkpt>
      <trkpt lat="44.92193" lon="3.94729">
        <ele>955.863</ele>
        <time>2012-05-19T08:41:12Z</time>
      </trkpt>
      <trkpt lat="44.92192" lon="3.94728">
        <ele>955.862</ele>
        <time>2012-05-19T08:41:13Z</time>
      </trkpt>
      <trkpt lat="44.92164" lon="3.94709">
        <ele>952.662</ele>
        <time>2012-05-19T08:41:35Z</time>
      </trkpt>
      <trkpt lat="44.92142" lon="3.94695">
        <ele>949.91</ele>
        <time>2012-05-19T08:41:54Z</time>
      </trkpt>
      <trkpt lat="44.92133" lon="3.9469">
        <ele>946.576</ele>
        <time>2012-05-19T08:42:02Z</time>
      </trkpt>
      <trkpt lat="44.92131" lon="3.94688">
        <ele>945.095</ele>
        <time>2012-05-19T08:42:04Z</time>
      </trkpt>
      <trkpt lat="44.9212" lon="3.94679">
        <ele>941.61</ele>
        <time>2012-05-19T08:42:14Z</time>
      </trkpt>
      <trkpt lat="44.92116" lon="3.94675">
        <ele>941.54</ele>
        <time>2012-05-19T08:42:18Z</time>
      </trkpt>
      <trkpt lat="44.9211" lon="3.94669">
        <ele>939.281</ele>
        <time>2012-05-19T08:42:25Z</time>
      </trkpt>
      <trkpt lat="44.92107" lon="3.94667">
        <ele>938.461</ele>
        <time>2012-05-19T08:42:27Z</time>
      </trkpt>
      <trkpt lat="44.92096" lon="3.94663">
        <ele>937.254</ele>
        <time>2012-05-19T08:42:36Z</time>
      </trkpt>
      <trkpt lat="44.92088" lon="3.94665">
        <ele>936.237</ele>
        <time>2012-05-19T08:42:43Z</time>
      </trkpt>
      <trkpt lat="44.92068" lon="3.94687">
        <ele>932.158</ele>
        <time>2012-05-19T08:43:01Z</time>
      </trkpt>
      <trkpt lat="44.92044" lon="3.94705">
        <ele>928.982</ele>
        <time>2012-05-19T08:43:24Z</time>
      </trkpt>
      <trkpt lat="44.92038" lon="3.94707">
        <ele>927.574</ele>
        <time>2012-05-19T08:43:30Z</time>
      </trkpt>
      <trkpt lat="44.92019" lon="3.94701">
        <ele>925.313</ele>
        <time>2012-05-19T08:43:50Z</time>
      </trkpt>
      <trkpt lat="44.92012" lon="3.94688">
        <ele>922.9</ele>
        <time>2012-05-19T08:44:00Z</time>
      </trkpt>
      <trkpt lat="44.92009" lon="3.94662">
        <ele>920.617</ele>
        <time>2012-05-19T08:44:19Z</time>
      </trkpt>
      <trkpt lat="44.9201" lon="3.9465">
        <ele>921.224</ele>
        <time>2012-05-19T08:44:27Z</time>
      </trkpt>
      <trkpt lat="44.92011" lon="3.94617">
        <ele>922.532</ele>
        <time>2012-05-19T08:44:49Z</time>
      </trkpt>
      <trkpt lat="44.92012" lon="3.94595">
        <ele>924.394</ele>
        <time>2012-05-19T08:45:06Z</time>
      </trkpt>
      <trkpt lat="44.92015" lon="3.94577">
        <ele>925.872</ele>
        <time>2012-05-19T08:45:24Z</time>
      </trkpt>
      <trkpt lat="44.92014" lon="3.94557">
        <ele>927.604</ele>
        <time>2012-05-19T08:45:45Z</time>
      </trkpt>
      <trkpt lat="44.92014" lon="3.9454">
        <ele>930.771</ele>
        <time>2012-05-19T08:46:01Z</time>
      </trkpt>
      <trkpt lat="44.92015" lon="3.94525">
        <ele>932.118</ele>
        <time>2012-05-19T08:46:17Z</time>
      </trkpt>
      <trkpt lat="44.92013" lon="3.94507">
        <ele>933.988</ele>
        <time>2012-05-19T08:46:39Z</time>
      </trkpt>
      <trkpt lat="44.92009" lon="3.94487">
        <ele>935.866</ele>
        <time>2012-05-19T08:46:55Z</time>
      </trkpt>
      <trkpt lat="44.92005" lon="3.94483">
        <ele>936.544</ele>
        <time>2012-05-19T08:47:00Z</time>
      </trkpt>
      <trkpt lat="44.92003" lon="3.94474">
        <ele>938.081</ele>
        <time>2012-05-19T08:47:07Z</time>
      </trkpt>
      <trkpt lat="44.92001" lon="3.94464">
        <ele>938.268</ele>
        <time>2012-05-19T08:47:14Z</time>
      </trkpt>
      <trkpt lat="44.92001" lon="3.94458">
        <ele>938.148</ele>
        <time>2012-05-19T08:47:19Z</time>
      </trkpt>
      <trkpt lat="44.91995" lon="3.94442">
        <ele>935.573</ele>
        <time>2012-05-19T08:47:30Z</time>
      </trkpt>
      <trkpt lat="44.91994" lon="3.94437">
        <ele>937.805</ele>
        <time>2012-05-19T08:47:33Z</time>
      </trkpt>
      <trkpt lat="44.91987" lon="3.94418">
        <ele>937.816</ele>
        <time>2012-05-19T08:47:47Z</time>
      </trkpt>
      <trkpt lat="44.91984" lon="3.94413">
        <ele>937.998</ele>
        <time>2012-05-19T08:47:51Z</time>
      </trkpt>
      <trkpt lat="44.91982" lon="3.94405">
        <ele>939.297</ele>
        <time>2012-05-19T08:47:56Z</time>
      </trkpt>
      <trkpt lat="44.91973" lon="3.94373">
        <ele>939.19</ele>
        <time>2012-05-19T08:48:19Z</time>
      </trkpt>
      <trkpt lat="44.91965" lon="3.94351">
        <ele>937.4</ele>
        <time>2012-05-19T08:48:33Z</time>
      </trkpt>
      <trkpt lat="44.91956" lon="3.94332">
        <ele>936.256</ele>
        <time>2012-05-19T08:48:47Z</time>
      </trkpt>
      <trkpt lat="44.91939" lon="3.94309">
        <ele>937.955</ele>
        <time>2012-05-19T08:49:07Z</time>
      </trkpt>
      <trkpt lat="44.91934" lon="3.94303">
        <ele>937.413</ele>
        <time>2012-05-19T08:49:12Z</time>
      </trkpt>
      <trkpt lat="44.91932" lon="3.94299">
        <ele>939.115</ele>
        <time>2012-05-19T08:49:15Z</time>
      </trkpt>
      <trkpt lat="44.9193" lon="3.94297">
        <ele>939.538</ele>
        <time>2012-05-19T08:49:17Z</time>
      </trkpt>
      <trkpt lat="44.91926" lon="3.94291">
        <ele>940.523</ele>
        <time>2012-05-19T08:49:22Z</time>
      </trkpt>
      <trkpt lat="44.91923" lon="3.94289">
        <ele>940.574</ele>
        <time>2012-05-19T08:49:25Z</time>
      </trkpt>
      <trkpt lat="44.9192" lon="3.94285">
        <ele>940.318</ele>
        <time>2012-05-19T08:49:29Z</time>
      </trkpt>
      <trkpt lat="44.91912" lon="3.94276">
        <ele>941.039</ele>
        <time>2012-05-19T08:49:38Z</time>
      </trkpt>
      <trkpt lat="44.9191" lon="3.94273">
        <ele>940.799</ele>
        <time>2012-05-19T08:49:41Z</time>
      </trkpt>
      <trkpt lat="44.91902" lon="3.94262">
        <ele>940.769</ele>
        <time>2012-05-19T08:49:51Z</time>
      </trkpt>
      <trkpt lat="44.919" lon="3.94256">
        <ele>941.651</ele>
        <time>2012-05-19T08:49:55Z</time>
      </trkpt>
      <trkpt lat="44.91897" lon="3.9425">
        <ele>941.765</ele>
        <time>2012-05-19T08:50:00Z</time>
      </trkpt>
      <trkpt lat="44.91892" lon="3.94246">
        <ele>940.698</ele>
        <time>2012-05-19T08:50:05Z</time>
      </trkpt>
      <trkpt lat="44.91883" lon="3.94247">
        <ele>941.851</ele>
        <time>2012-05-19T08:50:15Z</time>
      </trkpt>
      <trkpt lat="44.91876" lon="3.94243">
        <ele>942.057</ele>
        <time>2012-05-19T08:50:20Z</time>
      </trkpt>
      <trkpt lat="44.91869" lon="3.94238">
        <ele>941.49</ele>
        <time>2012-05-19T08:50:29Z</time>
      </trkpt>
      <trkpt lat="44.91865" lon="3.94229">
        <ele>941.243</ele>
        <time>2012-05-19T08:50:36Z</time>
      </trkpt>
      <trkpt lat="44.91861" lon="3.94196">
        <ele>937.789</ele>
        <time>2012-05-19T08:50:55Z</time>
      </trkpt>
      <trkpt lat="44.91854" lon="3.94173">
        <ele>934.268</ele>
        <time>2012-05-19T08:51:09Z</time>
      </trkpt>
      <trkpt lat="44.91852" lon="3.94142">
        <ele>933.101</ele>
        <time>2012-05-19T08:51:29Z</time>
      </trkpt>
      <trkpt lat="44.91852" lon="3.94134">
        <ele>934.636</ele>
        <time>2012-05-19T08:51:34Z</time>
      </trkpt>
      <trkpt lat="44.9185" lon="3.94116">
        <ele>935.662</ele>
        <time>2012-05-19T08:51:48Z</time>
      </trkpt>
      <trkpt lat="44.91842" lon="3.94103">
        <ele>937.868</ele>
        <time>2012-05-19T08:52:03Z</time>
      </trkpt>
      <trkpt lat="44.91837" lon="3.94098">
        <ele>936.26</ele>
        <time>2012-05-19T08:52:11Z</time>
      </trkpt>
      <trkpt lat="44.91833" lon="3.94097">
        <ele>939.011</ele>
        <time>2012-05-19T08:52:15Z</time>
      </trkpt>
      <trkpt lat="44.9183" lon="3.94096">
        <ele>940.215</ele>
        <time>2012-05-19T08:52:19Z</time>
      </trkpt>
      <trkpt lat="44.91829" lon="3.94093">
        <ele>938.857</ele>
        <time>2012-05-19T08:52:22Z</time>
      </trkpt>
      <trkpt lat="44.91826" lon="3.94089">
        <ele>939.627</ele>
        <time>2012-05-19T08:52:27Z</time>
      </trkpt>
      <trkpt lat="44.91834" lon="3.94063">
        <ele>940.924</ele>
        <time>2012-05-19T08:52:44Z</time>
      </trkpt>
      <trkpt lat="44.91854" lon="3.94019">
        <ele>940.519</ele>
        <time>2012-05-19T08:53:11Z</time>
      </trkpt>
      <trkpt lat="44.91861" lon="3.93984">
        <ele>940.377</ele>
        <time>2012-05-19T08:53:32Z</time>
      </trkpt>
      <trkpt lat="44.91858" lon="3.93977">
        <ele>940.259</ele>
        <time>2012-05-19T08:54:02Z</time>
      </trkpt>
      <trkpt lat="44.9185" lon="3.93973">
        <ele>941.068</ele>
        <time>2012-05-19T08:54:52Z</time>
      </trkpt>
      <trkpt lat="44.91845" lon="3.93966">
        <ele>941.103</ele>
        <time>2012-05-19T08:55:08Z</time>
      </trkpt>
      <trkpt lat="44.9184" lon="3.93961">
        <ele>938.925</ele>
        <time>2012-05-19T08:55:14Z</time>
      </trkpt>
      <trkpt lat="44.91834" lon="3.93959">
        <ele>941.489</ele>
        <time>2012-05-19T08:55:20Z</time>
      </trkpt>
      <trkpt lat="44.91824" lon="3.93957">
        <ele>941.78</ele>
        <time>2012-05-19T08:55:29Z</time>
      </trkpt>
      <trkpt lat="44.91819" lon="3.93958">
        <ele>942.278</ele>
        <time>2012-05-19T08:55:34Z</time>
      </trkpt>
      <trkpt lat="44.91785" lon="3.93946">
        <ele>942.67</ele>
        <time>2012-05-19T08:56:05Z</time>
      </trkpt>
      <trkpt lat="44.9177" lon="3.93915">
        <ele>944.027</ele>
        <time>2012-05-19T08:56:26Z</time>
      </trkpt>
      <trkpt lat="44.91755" lon="3.93891">
        <ele>943.518</ele>
        <time>2012-05-19T08:56:44Z</time>
      </trkpt>
      <trkpt lat="44.91736" lon="3.9386">
        <ele>942.561</ele>
        <time>2012-05-19T08:57:07Z</time>
      </trkpt>
      <trkpt lat="44.91732" lon="3.93856">
        <ele>943.23</ele>
        <time>2012-05-19T08:57:11Z</time>
      </trkpt>
      <trkpt lat="44.91724" lon="3.93854">
        <ele>944.421</ele>
        <time>2012-05-19T08:57:17Z</time>
      </trkpt>
      <trkpt lat="44.91687" lon="3.93864">
        <ele>944.774</ele>
        <time>2012-05-19T08:57:47Z</time>
      </trkpt>
      <trkpt lat="44.91655" lon="3.93869">
        <ele>945.525</ele>
        <time>2012-05-19T08:58:13Z</time>
      </trkpt>
      <trkpt lat="44.91624" lon="3.93872">
        <ele>946.424</ele>
        <time>2012-05-19T08:58:38Z</time>
      </trkpt>
      <trkpt lat="44.91596" lon="3.93878">
        <ele>947.911</ele>
        <time>2012-05-19T08:59:04Z</time>
      </trkpt>
      <trkpt lat="44.9157" lon="3.93877">
        <ele>948.833</ele>
        <time>2012-05-19T08:59:28Z</time>
      </trkpt>
      <trkpt lat="44.91563" lon="3.93878">
        <ele>950.131</ele>
        <time>2012-05-19T08:59:37Z</time>
      </trkpt>
      <trkpt lat="44.91561" lon="3.93877">
        <ele>949.441</ele>
        <time>2012-05-19T08:59:42Z</time>
      </trkpt>
      <trkpt lat="44.91535" lon="3.93869">
        <ele>950.023</ele>
        <time>2012-05-19T09:00:08Z</time>
      </trkpt>
      <trkpt lat="44.9151" lon="3.93862">
        <ele>949.633</ele>
        <time>2012-05-19T09:00:30Z</time>
      </trkpt>
      <trkpt lat="44.91505" lon="3.93863">
        <ele>950.027</ele>
        <time>2012-05-19T09:00:38Z</time>
      </trkpt>
      <trkpt lat="44.91477" lon="3.93854">
        <ele>951.473</ele>
        <time>2012-05-19T09:01:03Z</time>
      </trkpt>
      <trkpt lat="44.9145" lon="3.9384">
        <ele>951.169</ele>
        <time>2012-05-19T09:01:28Z</time>
      </trkpt>
      <trkpt lat="44.91427" lon="3.93822">
        <ele>952.303</ele>
        <time>2012-05-19T09:01:51Z</time>
      </trkpt>
      <trkpt lat="44.9141" lon="3.93811">
        <ele>953.555</ele>
        <time>2012-05-19T09:02:07Z</time>
      </trkpt>
      <trkpt lat="44.91383" lon="3.93802">
        <ele>955.888</ele>
        <time>2012-05-19T09:02:35Z</time>
      </trkpt>
      <trkpt lat="44.91379" lon="3.93801">
        <ele>956.069</ele>
        <time>2012-05-19T09:02:39Z</time>
      </trkpt>
      <trkpt lat="44.9136" lon="3.93794">
        <ele>957.81</ele>
        <time>2012-05-19T09:02:59Z</time>
      </trkpt>
      <trkpt lat="44.91351" lon="3.93792">
        <ele>957.898</ele>
        <time>2012-05-19T09:03:08Z</time>
      </trkpt>
      <trkpt lat="44.91347" lon="3.93789">
        <ele>956.605</ele>
        <time>2012-05-19T09:03:13Z</time>
      </trkpt>
      <trkpt lat="44.91323" lon="3.93784">
        <ele>959.572</ele>
        <time>2012-05-19T09:03:38Z</time>
      </trkpt>
      <trkpt lat="44.91303" lon="3.93772">
        <ele>960.948</ele>
        <time>2012-05-19T09:03:59Z</time>
      </trkpt>
      <trkpt lat="44.91299" lon="3.93769">
        <ele>959.193</ele>
        <time>2012-05-19T09:04:02Z</time>
      </trkpt>
      <trkpt lat="44.91288" lon="3.93764">
        <ele>964.094</ele>
        <time>2012-05-19T09:04:13Z</time>
      </trkpt>
      <trkpt lat="44.91286" lon="3.93764">
        <ele>962.28</ele>
        <time>2012-05-19T09:04:15Z</time>
      </trkpt>
      <trkpt lat="44.91277" lon="3.93762">
        <ele>963.619</ele>
        <time>2012-05-19T09:04:24Z</time>
      </trkpt>
      <trkpt lat="44.91257" lon="3.93763">
        <ele>963.462</ele>
        <time>2012-05-19T09:04:41Z</time>
      </trkpt>
      <trkpt lat="44.91255" lon="3.93763">
        <ele>965.474</ele>
        <time>2012-05-19T09:04:43Z</time>
      </trkpt>
      <trkpt lat="44.91229" lon="3.93762">
        <ele>965.768</ele>
        <time>2012-05-19T09:05:04Z</time>
      </trkpt>
      <trkpt lat="44.91204" lon="3.9376">
        <ele>967.334</ele>
        <time>2012-05-19T09:05:26Z</time>
      </trkpt>
      <trkpt lat="44.91183" lon="3.93758">
        <ele>969.101</ele>
        <time>2012-05-19T09:05:45Z</time>
      </trkpt>
      <trkpt lat="44.91167" lon="3.93752">
        <ele>969.165</ele>
        <time>2012-05-19T09:06:00Z</time>
      </trkpt>
      <trkpt lat="44.91159" lon="3.93745">
        <ele>970.101</ele>
        <time>2012-05-19T09:06:09Z</time>
      </trkpt>
      <trkpt lat="44.91155" lon="3.93742">
        <ele>970.519</ele>
        <time>2012-05-19T09:06:14Z</time>
      </trkpt>
      <trkpt lat="44.91152" lon="3.93737">
        <ele>968.435</ele>
        <time>2012-05-19T09:06:18Z</time>
      </trkpt>
      <trkpt lat="44.91148" lon="3.93733">
        <ele>969.604</ele>
        <time>2012-05-19T09:06:22Z</time>
      </trkpt>
      <trkpt lat="44.91142" lon="3.93729">
        <ele>971.216</ele>
        <time>2012-05-19T09:06:27Z</time>
      </trkpt>
      <trkpt lat="44.91132" lon="3.93714">
        <ele>974.705</ele>
        <time>2012-05-19T09:06:41Z</time>
      </trkpt>
      <trkpt lat="44.91125" lon="3.93705">
        <ele>974.568</ele>
        <time>2012-05-19T09:06:50Z</time>
      </trkpt>
      <trkpt lat="44.9112" lon="3.937">
        <ele>975.364</ele>
        <time>2012-05-19T09:06:55Z</time>
      </trkpt>
      <trkpt lat="44.91114" lon="3.93695">
        <ele>975.612</ele>
        <time>2012-05-19T09:07:01Z</time>
      </trkpt>
      <trkpt lat="44.91096" lon="3.9369">
        <ele>976.503</ele>
        <time>2012-05-19T09:07:17Z</time>
      </trkpt>
      <trkpt lat="44.91078" lon="3.93686">
        <ele>978.052</ele>
        <time>2012-05-19T09:07:34Z</time>
      </trkpt>
      <trkpt lat="44.91064" lon="3.93681">
        <ele>978.812</ele>
        <time>2012-05-19T09:07:47Z</time>
      </trkpt>
      <trkpt lat="44.91049" lon="3.93674">
        <ele>979.545</ele>
        <time>2012-05-19T09:08:01Z</time>
      </trkpt>
      <trkpt lat="44.91026" lon="3.93656">
        <ele>982.678</ele>
        <time>2012-05-19T09:08:24Z</time>
      </trkpt>
      <trkpt lat="44.91012" lon="3.93648">
        <ele>983.101</ele>
        <time>2012-05-19T09:08:39Z</time>
      </trkpt>
      <trkpt lat="44.91004" lon="3.93646">
        <ele>983.646</ele>
        <time>2012-05-19T09:08:46Z</time>
      </trkpt>
      <trkpt lat="44.90999" lon="3.93643">
        <ele>983.241</ele>
        <time>2012-05-19T09:08:51Z</time>
      </trkpt>
      <trkpt lat="44.90994" lon="3.93638">
        <ele>984.48</ele>
        <time>2012-05-19T09:08:57Z</time>
      </trkpt>
      <trkpt lat="44.9099" lon="3.93638">
        <ele>984.725</ele>
        <time>2012-05-19T09:09:00Z</time>
      </trkpt>
      <trkpt lat="44.90984" lon="3.93634">
        <ele>985.075</ele>
        <time>2012-05-19T09:09:06Z</time>
      </trkpt>
      <trkpt lat="44.90982" lon="3.9363">
        <ele>985.358</ele>
        <time>2012-05-19T09:09:09Z</time>
      </trkpt>
      <trkpt lat="44.90968" lon="3.93625">
        <ele>985.667</ele>
        <time>2012-05-19T09:09:24Z</time>
      </trkpt>
      <trkpt lat="44.90962" lon="3.93619">
        <ele>986.542</ele>
        <time>2012-05-19T09:09:31Z</time>
      </trkpt>
      <trkpt lat="44.90949" lon="3.93609">
        <ele>988.041</ele>
        <time>2012-05-19T09:09:48Z</time>
      </trkpt>
      <trkpt lat="44.90941" lon="3.93607">
        <ele>988.828</ele>
        <time>2012-05-19T09:10:36Z</time>
      </trkpt>
      <trkpt lat="44.90938" lon="3.93605">
        <ele>987.882</ele>
        <time>2012-05-19T09:10:40Z</time>
      </trkpt>
      <trkpt lat="44.90933" lon="3.93605">
        <ele>988.921</ele>
        <time>2012-05-19T09:10:46Z</time>
      </trkpt>
      <trkpt lat="44.90921" lon="3.93598">
        <ele>992.3</ele>
        <time>2012-05-19T09:10:59Z</time>
      </trkpt>
      <trkpt lat="44.90914" lon="3.93595">
        <ele>993.569</ele>
        <time>2012-05-19T09:11:07Z</time>
      </trkpt>
      <trkpt lat="44.90909" lon="3.93593">
        <ele>994.584</ele>
        <time>2012-05-19T09:11:12Z</time>
      </trkpt>
      <trkpt lat="44.90902" lon="3.93592">
        <ele>995.154</ele>
        <time>2012-05-19T09:11:21Z</time>
      </trkpt>
      <trkpt lat="44.90894" lon="3.93595">
        <ele>997.119</ele>
        <time>2012-05-19T09:11:31Z</time>
      </trkpt>
      <trkpt lat="44.90887" lon="3.93597">
        <ele>997.524</ele>
        <time>2012-05-19T09:11:41Z</time>
      </trkpt>
      <trkpt lat="44.90867" lon="3.93596">
        <ele>1000.145</ele>
        <time>2012-05-19T09:12:01Z</time>
      </trkpt>
      <trkpt lat="44.90849" lon="3.93587">
        <ele>1002.778</ele>
        <time>2012-05-19T09:12:18Z</time>
      </trkpt>
      <trkpt lat="44.90828" lon="3.93575">
        <ele>1003.527</ele>
        <time>2012-05-19T09:12:39Z</time>
      </trkpt>
      <trkpt lat="44.90808" lon="3.93565">
        <ele>1007.503</ele>
        <time>2012-05-19T09:12:59Z</time>
      </trkpt>
      <trkpt lat="44.90799" lon="3.93566">
        <ele>1005.935</ele>
        <time>2012-05-19T09:13:07Z</time>
      </trkpt>
      <trkpt lat="44.90795" lon="3.9357">
        <ele>1006.336</ele>
        <time>2012-05-19T09:13:11Z</time>
      </trkpt>
      <trkpt lat="44.90782" lon="3.93571">
        <ele>1009.319</ele>
        <time>2012-05-19T09:13:28Z</time>
      </trkpt>
      <trkpt lat="44.90765" lon="3.93572">
        <ele>1010.627</ele>
        <time>2012-05-19T09:13:47Z</time>
      </trkpt>
      <trkpt lat="44.90757" lon="3.93573">
        <ele>1012.496</ele>
        <time>2012-05-19T09:13:55Z</time>
      </trkpt>
      <trkpt lat="44.90753" lon="3.93572">
        <ele>1010.433</ele>
        <time>2012-05-19T09:13:59Z</time>
      </trkpt>
      <trkpt lat="44.90747" lon="3.93572">
        <ele>1010.637</ele>
        <time>2012-05-19T09:14:11Z</time>
      </trkpt>
      <trkpt lat="44.9074" lon="3.93575">
        <ele>1011.313</ele>
        <time>2012-05-19T09:14:18Z</time>
      </trkpt>
      <trkpt lat="44.90722" lon="3.93582">
        <ele>1012.475</ele>
        <time>2012-05-19T09:14:34Z</time>
      </trkpt>
      <trkpt lat="44.90719" lon="3.93583">
        <ele>1012.671</ele>
        <time>2012-05-19T09:14:36Z</time>
      </trkpt>
      <trkpt lat="44.90708" lon="3.93588">
        <ele>1013.867</ele>
        <time>2012-05-19T09:14:49Z</time>
      </trkpt>
      <trkpt lat="44.90693" lon="3.93591">
        <ele>1016.276</ele>
        <time>2012-05-19T09:15:06Z</time>
      </trkpt>
      <trkpt lat="44.90674" lon="3.93586">
        <ele>1016.659</ele>
        <time>2012-05-19T09:15:26Z</time>
      </trkpt>
      <trkpt lat="44.9065" lon="3.93584">
        <ele>1015.239</ele>
        <time>2012-05-19T09:15:47Z</time>
      </trkpt>
      <trkpt lat="44.90622" lon="3.9358">
        <ele>1014.551</ele>
        <time>2012-05-19T09:16:12Z</time>
      </trkpt>
      <trkpt lat="44.90612" lon="3.93579">
        <ele>1015.379</ele>
        <time>2012-05-19T09:16:21Z</time>
      </trkpt>
      <trkpt lat="44.90609" lon="3.9358">
        <ele>1016.648</ele>
        <time>2012-05-19T09:16:23Z</time>
      </trkpt>
      <trkpt lat="44.90606" lon="3.93581">
        <ele>1014.787</ele>
        <time>2012-05-19T09:16:25Z</time>
      </trkpt>
      <trkpt lat="44.9059" lon="3.93576">
        <ele>1012.536</ele>
        <time>2012-05-19T09:16:41Z</time>
      </trkpt>
      <trkpt lat="44.90587" lon="3.93571">
        <ele>1012.202</ele>
        <time>2012-05-19T09:16:45Z</time>
      </trkpt>
      <trkpt lat="44.90584" lon="3.93559">
        <ele>1013.355</ele>
        <time>2012-05-19T09:16:53Z</time>
      </trkpt>
      <trkpt lat="44.90582" lon="3.93551">
        <ele>1009.76</ele>
        <time>2012-05-19T09:16:58Z</time>
      </trkpt>
      <trkpt lat="44.90578" lon="3.93539">
        <ele>1006.753</ele>
        <time>2012-05-19T09:17:08Z</time>
      </trkpt>
      <trkpt lat="44.90576" lon="3.93535">
        <ele>1006.829</ele>
        <time>2012-05-19T09:17:11Z</time>
      </trkpt>
      <trkpt lat="44.90566" lon="3.93515">
        <ele>1005.534</ele>
        <time>2012-05-19T09:17:25Z</time>
      </trkpt>
      <trkpt lat="44.90562" lon="3.93511">
        <ele>1003.245</ele>
        <time>2012-05-19T09:17:29Z</time>
      </trkpt>
      <trkpt lat="44.90553" lon="3.93503">
        <ele>1002.867</ele>
        <time>2012-05-19T09:17:48Z</time>
      </trkpt>
      <trkpt lat="44.90552" lon="3.93499">
        <ele>1002.411</ele>
        <time>2012-05-19T09:17:54Z</time>
      </trkpt>
      <trkpt lat="44.90556" lon="3.93485">
        <ele>1002.075</ele>
        <time>2012-05-19T09:18:04Z</time>
      </trkpt>
      <trkpt lat="44.90563" lon="3.93474">
        <ele>1001.109</ele>
        <time>2012-05-19T09:18:18Z</time>
      </trkpt>
      <trkpt lat="44.90561" lon="3.93468">
        <ele>1001.035</ele>
        <time>2012-05-19T09:23:06Z</time>
      </trkpt>
      <trkpt lat="44.90561" lon="3.9346">
        <ele>1000.13</ele>
        <time>2012-05-19T09:23:12Z</time>
      </trkpt>
      <trkpt lat="44.9056" lon="3.93456">
        <ele>1002.523</ele>
        <time>2012-05-19T09:23:15Z</time>
      </trkpt>
      <trkpt lat="44.9056" lon="3.93452">
        <ele>1003.745</ele>
        <time>2012-05-19T09:23:17Z</time>
      </trkpt>
      <trkpt lat="44.90559" lon="3.93449">
        <ele>1002.026</ele>
        <time>2012-05-19T09:23:19Z</time>
      </trkpt>
      <trkpt lat="44.90559" lon="3.93445">
        <ele>1000.856</ele>
        <time>2012-05-19T09:23:22Z</time>
      </trkpt>
      <trkpt lat="44.90557" lon="3.93441">
        <ele>999.68</ele>
        <time>2012-05-19T09:26:49Z</time>
      </trkpt>
      <trkpt lat="44.90547" lon="3.93452">
        <ele>1003.784</ele>
        <time>2012-05-19T09:27:01Z</time>
      </trkpt>
      <trkpt lat="44.9054" lon="3.93451">
        <ele>1001.232</ele>
        <time>2012-05-19T09:27:05Z</time>
      </trkpt>
      <trkpt lat="44.90524" lon="3.93446">
        <ele>998.176</ele>
        <time>2012-05-19T09:27:16Z</time>
      </trkpt>
      <trkpt lat="44.90512" lon="3.93439">
        <ele>994.705</ele>
        <time>2012-05-19T09:27:25Z</time>
      </trkpt>
      <trkpt lat="44.90499" lon="3.93429">
        <ele>995.797</ele>
        <time>2012-05-19T09:27:36Z</time>
      </trkpt>
      <trkpt lat="44.90494" lon="3.9342">
        <ele>994.977</ele>
        <time>2012-05-19T09:29:11Z</time>
      </trkpt>
      <trkpt lat="44.90492" lon="3.93416">
        <ele>995.85</ele>
        <time>2012-05-19T09:30:09Z</time>
      </trkpt>
      <trkpt lat="44.90491" lon="3.93413">
        <ele>994.795</ele>
        <time>2012-05-19T09:30:46Z</time>
      </trkpt>
      <trkpt lat="44.90487" lon="3.93409">
        <ele>995.158</ele>
        <time>2012-05-19T09:30:52Z</time>
      </trkpt>
      <trkpt lat="44.90482" lon="3.93403">
        <ele>994.844</ele>
        <time>2012-05-19T09:30:58Z</time>
      </trkpt>
      <trkpt lat="44.9048" lon="3.93397">
        <ele>994.539</ele>
        <time>2012-05-19T09:31:02Z</time>
      </trkpt>
      <trkpt lat="44.90475" lon="3.93378">
        <ele>993.362</ele>
        <time>2012-05-19T09:31:17Z</time>
      </trkpt>
      <trkpt lat="44.90472" lon="3.93375">
        <ele>993.21</ele>
        <time>2012-05-19T09:31:20Z</time>
      </trkpt>
      <trkpt lat="44.90469" lon="3.93355">
        <ele>992.888</ele>
        <time>2012-05-19T09:31:33Z</time>
      </trkpt>
      <trkpt lat="44.90466" lon="3.93348">
        <ele>991.304</ele>
        <time>2012-05-19T09:31:39Z</time>
      </trkpt>
      <trkpt lat="44.90463" lon="3.93341">
        <ele>991.707</ele>
        <time>2012-05-19T09:31:44Z</time>
      </trkpt>
      <trkpt lat="44.90458" lon="3.93335">
        <ele>992.413</ele>
        <time>2012-05-19T09:31:54Z</time>
      </trkpt>
      <trkpt lat="44.90448" lon="3.93324">
        <ele>993.354</ele>
        <time>2012-05-19T09:32:05Z</time>
      </trkpt>
      <trkpt lat="44.90445" lon="3.93321">
        <ele>993.841</ele>
        <time>2012-05-19T09:32:09Z</time>
      </trkpt>
      <trkpt lat="44.90443" lon="3.93321">
        <ele>993.57</ele>
        <time>2012-05-19T09:32:11Z</time>
      </trkpt>
      <trkpt lat="44.9043" lon="3.93312">
        <ele>995.664</ele>
        <time>2012-05-19T09:32:25Z</time>
      </trkpt>
      <trkpt lat="44.90426" lon="3.93311">
        <ele>994.952</ele>
        <time>2012-05-19T09:32:29Z</time>
      </trkpt>
      <trkpt lat="44.90423" lon="3.93308">
        <ele>997.378</ele>
        <time>2012-05-19T09:32:33Z</time>
      </trkpt>
      <trkpt lat="44.90411" lon="3.93301">
        <ele>997.862</ele>
        <time>2012-05-19T09:32:44Z</time>
      </trkpt>
      <trkpt lat="44.90398" lon="3.93295">
        <ele>999.634</ele>
        <time>2012-05-19T09:32:54Z</time>
      </trkpt>
      <trkpt lat="44.90395" lon="3.93292">
        <ele>998.858</ele>
        <time>2012-05-19T09:32:58Z</time>
      </trkpt>
      <trkpt lat="44.90388" lon="3.93283">
        <ele>999.781</ele>
        <time>2012-05-19T09:33:07Z</time>
      </trkpt>
      <trkpt lat="44.90371" lon="3.9326">
        <ele>999.033</ele>
        <time>2012-05-19T09:33:26Z</time>
      </trkpt>
      <trkpt lat="44.90364" lon="3.93247">
        <ele>1000.909</ele>
        <time>2012-05-19T09:33:35Z</time>
      </trkpt>
      <trkpt lat="44.90358" lon="3.93235">
        <ele>1001.096</ele>
        <time>2012-05-19T09:33:43Z</time>
      </trkpt>
      <trkpt lat="44.90357" lon="3.93232">
        <ele>1002.447</ele>
        <time>2012-05-19T09:33:45Z</time>
      </trkpt>
      <trkpt lat="44.90354" lon="3.93226">
        <ele>998.865</ele>
        <time>2012-05-19T09:33:49Z</time>
      </trkpt>
      <trkpt lat="44.90353" lon="3.93223">
        <ele>1000.217</ele>
        <time>2012-05-19T09:33:51Z</time>
      </trkpt>
      <trkpt lat="44.9035" lon="3.93219">
        <ele>1000.533</ele>
        <time>2012-05-19T09:33:54Z</time>
      </trkpt>
      <trkpt lat="44.90324" lon="3.9319">
        <ele>1001.453</ele>
        <time>2012-05-19T09:34:19Z</time>
      </trkpt>
      <trkpt lat="44.9031" lon="3.93179">
        <ele>1001.697</ele>
        <time>2012-05-19T09:34:32Z</time>
      </trkpt>
      <trkpt lat="44.90308" lon="3.93178">
        <ele>1001.403</ele>
        <time>2012-05-19T09:34:34Z</time>
      </trkpt>
      <trkpt lat="44.903" lon="3.93174">
        <ele>1001.488</ele>
        <time>2012-05-19T09:34:41Z</time>
      </trkpt>
      <trkpt lat="44.90291" lon="3.93164">
        <ele>999.989</ele>
        <time>2012-05-19T09:34:51Z</time>
      </trkpt>
      <trkpt lat="44.90288" lon="3.93161">
        <ele>1002.116</ele>
        <time>2012-05-19T09:34:54Z</time>
      </trkpt>
      <trkpt lat="44.90273" lon="3.93148">
        <ele>1002.016</ele>
        <time>2012-05-19T09:35:10Z</time>
      </trkpt>
      <trkpt lat="44.90257" lon="3.93142">
        <ele>1004.883</ele>
        <time>2012-05-19T09:35:26Z</time>
      </trkpt>
      <trkpt lat="44.90253" lon="3.93144">
        <ele>1007.195</ele>
        <time>2012-05-19T09:35:31Z</time>
      </trkpt>
      <trkpt lat="44.90233" lon="3.93151">
        <ele>1007.895</ele>
        <time>2012-05-19T09:35:52Z</time>
      </trkpt>
      <trkpt lat="44.90227" lon="3.93152">
        <ele>1007.145</ele>
        <time>2012-05-19T09:35:57Z</time>
      </trkpt>
      <trkpt lat="44.90202" lon="3.93149">
        <ele>1007.511</ele>
        <time>2012-05-19T09:36:21Z</time>
      </trkpt>
      <trkpt lat="44.90186" lon="3.93146">
        <ele>1007.73</ele>
        <time>2012-05-19T09:36:34Z</time>
      </trkpt>
      <trkpt lat="44.9015" lon="3.93128">
        <ele>1008.9</ele>
        <time>2012-05-19T09:37:05Z</time>
      </trkpt>
      <trkpt lat="44.90122" lon="3.93114">
        <ele>1008.421</ele>
        <time>2012-05-19T09:37:29Z</time>
      </trkpt>
      <trkpt lat="44.90115" lon="3.93109">
        <ele>1009.095</ele>
        <time>2012-05-19T09:37:36Z</time>
      </trkpt>
      <trkpt lat="44.90104" lon="3.93102">
        <ele>1008.904</ele>
        <time>2012-05-19T09:37:45Z</time>
      </trkpt>
      <trkpt lat="44.901" lon="3.931">
        <ele>1007.343</ele>
        <time>2012-05-19T09:37:48Z</time>
      </trkpt>
      <trkpt lat="44.90065" lon="3.93089">
        <ele>1006.254</ele>
        <time>2012-05-19T09:38:18Z</time>
      </trkpt>
      <trkpt lat="44.9004" lon="3.93088">
        <ele>1008.957</ele>
        <time>2012-05-19T09:38:41Z</time>
      </trkpt>
      <trkpt lat="44.90037" lon="3.93089">
        <ele>1010.791</ele>
        <time>2012-05-19T09:38:43Z</time>
      </trkpt>
      <trkpt lat="44.90019" lon="3.93091">
        <ele>1012.538</ele>
        <time>2012-05-19T09:38:59Z</time>
      </trkpt>
      <trkpt lat="44.90017" lon="3.93091">
        <ele>1011.278</ele>
        <time>2012-05-19T09:39:01Z</time>
      </trkpt>
      <trkpt lat="44.90011" lon="3.93093">
        <ele>1012.422</ele>
        <time>2012-05-19T09:39:06Z</time>
      </trkpt>
      <trkpt lat="44.90002" lon="3.93094">
        <ele>1009.494</ele>
        <time>2012-05-19T09:39:16Z</time>
      </trkpt>
      <trkpt lat="44.89998" lon="3.93094">
        <ele>1011.77</ele>
        <time>2012-05-19T09:39:20Z</time>
      </trkpt>
      <trkpt lat="44.89981" lon="3.93097">
        <ele>1010.922</ele>
        <time>2012-05-19T09:39:34Z</time>
      </trkpt>
      <trkpt lat="44.89975" lon="3.93098">
        <ele>1010.702</ele>
        <time>2012-05-19T09:39:39Z</time>
      </trkpt>
      <trkpt lat="44.89968" lon="3.93101">
        <ele>1010.615</ele>
        <time>2012-05-19T09:39:45Z</time>
      </trkpt>
      <trkpt lat="44.89961" lon="3.93103">
        <ele>1011.024</ele>
        <time>2012-05-19T09:39:50Z</time>
      </trkpt>
      <trkpt lat="44.89953" lon="3.93105">
        <ele>1009.607</ele>
        <time>2012-05-19T09:39:57Z</time>
      </trkpt>
      <trkpt lat="44.89949" lon="3.93106">
        <ele>1011.088</ele>
        <time>2012-05-19T09:40:00Z</time>
      </trkpt>
      <trkpt lat="44.89925" lon="3.93113">
        <ele>1010.418</ele>
        <time>2012-05-19T09:40:20Z</time>
      </trkpt>
      <trkpt lat="44.89919" lon="3.93114">
        <ele>1008.6</ele>
        <time>2012-05-19T09:40:25Z</time>
      </trkpt>
      <trkpt lat="44.89896" lon="3.93115">
        <ele>1008.826</ele>
        <time>2012-05-19T09:40:44Z</time>
      </trkpt>
      <trkpt lat="44.89887" lon="3.93113">
        <ele>1004.884</ele>
        <time>2012-05-19T09:40:54Z</time>
      </trkpt>
      <trkpt lat="44.89875" lon="3.93112">
        <ele>1003.042</ele>
        <time>2012-05-19T09:41:11Z</time>
      </trkpt>
      <trkpt lat="44.89872" lon="3.93111">
        <ele>1007.271</ele>
        <time>2012-05-19T09:41:18Z</time>
      </trkpt>
      <trkpt lat="44.89862" lon="3.93109">
        <ele>1003.903</ele>
        <time>2012-05-19T09:41:27Z</time>
      </trkpt>
      <trkpt lat="44.89839" lon="3.93108">
        <ele>1004.611</ele>
        <time>2012-05-19T09:41:48Z</time>
      </trkpt>
      <trkpt lat="44.89835" lon="3.93108">
        <ele>1002.931</ele>
        <time>2012-05-19T09:41:51Z</time>
      </trkpt>
      <trkpt lat="44.8982" lon="3.93108">
        <ele>1001.144</ele>
        <time>2012-05-19T09:42:02Z</time>
      </trkpt>
      <trkpt lat="44.89806" lon="3.93108">
        <ele>999.563</ele>
        <time>2012-05-19T09:42:14Z</time>
      </trkpt>
      <trkpt lat="44.89781" lon="3.93113">
        <ele>1000.36</ele>
        <time>2012-05-19T09:42:33Z</time>
      </trkpt>
      <trkpt lat="44.89772" lon="3.93115">
        <ele>996.146</ele>
        <time>2012-05-19T09:42:42Z</time>
      </trkpt>
      <trkpt lat="44.8977" lon="3.93119">
        <ele>996.456</ele>
        <time>2012-05-19T09:42:55Z</time>
      </trkpt>
      <trkpt lat="44.89765" lon="3.9312">
        <ele>997.577</ele>
        <time>2012-05-19T09:43:10Z</time>
      </trkpt>
      <trkpt lat="44.89742" lon="3.93122">
        <ele>996.295</ele>
        <time>2012-05-19T09:43:31Z</time>
      </trkpt>
      <trkpt lat="44.89731" lon="3.93125">
        <ele>994.414</ele>
        <time>2012-05-19T09:43:42Z</time>
      </trkpt>
      <trkpt lat="44.89716" lon="3.9313">
        <ele>994.582</ele>
        <time>2012-05-19T09:43:55Z</time>
      </trkpt>
      <trkpt lat="44.89704" lon="3.93132">
        <ele>995.941</ele>
        <time>2012-05-19T09:44:05Z</time>
      </trkpt>
      <trkpt lat="44.89692" lon="3.93135">
        <ele>992.759</ele>
        <time>2012-05-19T09:44:15Z</time>
      </trkpt>
      <trkpt lat="44.89687" lon="3.93136">
        <ele>993.345</ele>
        <time>2012-05-19T09:44:19Z</time>
      </trkpt>
      <trkpt lat="44.89673" lon="3.93138">
        <ele>993.082</ele>
        <time>2012-05-19T09:44:30Z</time>
      </trkpt>
      <trkpt lat="44.89669" lon="3.93138">
        <ele>991.857</ele>
        <time>2012-05-19T09:44:33Z</time>
      </trkpt>
      <trkpt lat="44.89658" lon="3.93139">
        <ele>990.672</ele>
        <time>2012-05-19T09:44:58Z</time>
      </trkpt>
      <trkpt lat="44.8965" lon="3.93141">
        <ele>989.207</ele>
        <time>2012-05-19T09:45:05Z</time>
      </trkpt>
      <trkpt lat="44.89636" lon="3.93142">
        <ele>988.339</ele>
        <time>2012-05-19T09:45:17Z</time>
      </trkpt>
      <trkpt lat="44.89634" lon="3.93143">
        <ele>989.565</ele>
        <time>2012-05-19T09:45:19Z</time>
      </trkpt>
      <trkpt lat="44.89626" lon="3.93143">
        <ele>987.255</ele>
        <time>2012-05-19T09:45:26Z</time>
      </trkpt>
      <trkpt lat="44.89621" lon="3.93144">
        <ele>991.816</ele>
        <time>2012-05-19T09:45:30Z</time>
      </trkpt>
      <trkpt lat="44.89617" lon="3.93144">
        <ele>988.345</ele>
        <time>2012-05-19T09:45:33Z</time>
      </trkpt>
      <trkpt lat="44.89583" lon="3.93149">
        <ele>986.912</ele>
        <time>2012-05-19T09:45:59Z</time>
      </trkpt>
      <trkpt lat="44.89576" lon="3.9315">
        <ele>988.176</ele>
        <time>2012-05-19T09:46:05Z</time>
      </trkpt>
      <trkpt lat="44.89546" lon="3.9315">
        <ele>989.353</ele>
        <time>2012-05-19T09:46:29Z</time>
      </trkpt>
      <trkpt lat="44.89531" lon="3.93148">
        <ele>988.869</ele>
        <time>2012-05-19T09:46:40Z</time>
      </trkpt>
      <trkpt lat="44.89516" lon="3.93141">
        <ele>987.937</ele>
        <time>2012-05-19T09:46:52Z</time>
      </trkpt>
      <trkpt lat="44.89514" lon="3.93139">
        <ele>986.315</ele>
        <time>2012-05-19T09:46:54Z</time>
      </trkpt>
      <trkpt lat="44.89509" lon="3.93134">
        <ele>984.7</ele>
        <time>2012-05-19T09:46:58Z</time>
      </trkpt>
      <trkpt lat="44.89481" lon="3.93107">
        <ele>983.002</ele>
        <time>2012-05-19T09:47:23Z</time>
      </trkpt>
      <trkpt lat="44.89477" lon="3.93103">
        <ele>981.597</ele>
        <time>2012-05-19T09:47:27Z</time>
      </trkpt>
      <trkpt lat="44.89454" lon="3.93087">
        <ele>981.794</ele>
        <time>2012-05-19T09:47:47Z</time>
      </trkpt>
      <trkpt lat="44.89436" lon="3.93071">
        <ele>978.323</ele>
        <time>2012-05-19T09:48:02Z</time>
      </trkpt>
      <trkpt lat="44.89415" lon="3.93041">
        <ele>977.449</ele>
        <time>2012-05-19T09:48:24Z</time>
      </trkpt>
      <trkpt lat="44.89415" lon="3.93008">
        <ele>974.423</ele>
        <time>2012-05-19T09:48:42Z</time>
      </trkpt>
      <trkpt lat="44.89423" lon="3.9298">
        <ele>971.829</ele>
        <time>2012-05-19T09:48:59Z</time>
      </trkpt>
      <trkpt lat="44.89427" lon="3.92975">
        <ele>970.486</ele>
        <time>2012-05-19T09:49:03Z</time>
      </trkpt>
      <trkpt lat="44.89426" lon="3.9296">
        <ele>967.742</ele>
        <time>2012-05-19T09:49:11Z</time>
      </trkpt>
      <trkpt lat="44.89424" lon="3.92957">
        <ele>967.708</ele>
        <time>2012-05-19T09:49:13Z</time>
      </trkpt>
      <trkpt lat="44.89411" lon="3.92942">
        <ele>965.583</ele>
        <time>2012-05-19T09:49:25Z</time>
      </trkpt>
      <trkpt lat="44.89409" lon="3.9294">
        <ele>964.154</ele>
        <time>2012-05-19T09:49:27Z</time>
      </trkpt>
      <trkpt lat="44.89401" lon="3.92931">
        <ele>961.487</ele>
        <time>2012-05-19T09:49:34Z</time>
      </trkpt>
      <trkpt lat="44.89393" lon="3.92923">
        <ele>961.449</ele>
        <time>2012-05-19T09:49:41Z</time>
      </trkpt>
      <trkpt lat="44.89391" lon="3.92921">
        <ele>963.043</ele>
        <time>2012-05-19T09:49:43Z</time>
      </trkpt>
      <trkpt lat="44.89376" lon="3.92907">
        <ele>959.979</ele>
        <time>2012-05-19T09:49:56Z</time>
      </trkpt>
      <trkpt lat="44.89368" lon="3.929">
        <ele>965.257</ele>
        <time>2012-05-19T09:50:04Z</time>
      </trkpt>
      <trkpt lat="44.89364" lon="3.92898">
        <ele>961.827</ele>
        <time>2012-05-19T09:50:08Z</time>
      </trkpt>
      <trkpt lat="44.89359" lon="3.92891">
        <ele>956.228</ele>
        <time>2012-05-19T09:50:13Z</time>
      </trkpt>
      <trkpt lat="44.89356" lon="3.92873">
        <ele>956.026</ele>
        <time>2012-05-19T09:50:25Z</time>
      </trkpt>
      <trkpt lat="44.89353" lon="3.92865">
        <ele>953.817</ele>
        <time>2012-05-19T09:50:33Z</time>
      </trkpt>
      <trkpt lat="44.89351" lon="3.92854">
        <ele>951.426</ele>
        <time>2012-05-19T09:50:39Z</time>
      </trkpt>
      <trkpt lat="44.8935" lon="3.92842">
        <ele>949.7</ele>
        <time>2012-05-19T09:50:46Z</time>
      </trkpt>
      <trkpt lat="44.89349" lon="3.92838">
        <ele>951.707</ele>
        <time>2012-05-19T09:50:48Z</time>
      </trkpt>
      <trkpt lat="44.89347" lon="3.9283">
        <ele>952.157</ele>
        <time>2012-05-19T09:50:53Z</time>
      </trkpt>
      <trkpt lat="44.89347" lon="3.92822">
        <ele>952.077</ele>
        <time>2012-05-19T09:50:59Z</time>
      </trkpt>
      <trkpt lat="44.89346" lon="3.92814">
        <ele>951.388</ele>
        <time>2012-05-19T09:51:03Z</time>
      </trkpt>
      <trkpt lat="44.89341" lon="3.92795">
        <ele>948.805</ele>
        <time>2012-05-19T09:51:14Z</time>
      </trkpt>
      <trkpt lat="44.8934" lon="3.92788">
        <ele>947.062</ele>
        <time>2012-05-19T09:51:18Z</time>
      </trkpt>
      <trkpt lat="44.89344" lon="3.92778">
        <ele>948.634</ele>
        <time>2012-05-19T09:51:25Z</time>
      </trkpt>
      <trkpt lat="44.89346" lon="3.92772">
        <ele>946.266</ele>
        <time>2012-05-19T09:51:30Z</time>
      </trkpt>
      <trkpt lat="44.8935" lon="3.92767">
        <ele>944.584</ele>
        <time>2012-05-19T09:51:34Z</time>
      </trkpt>
      <trkpt lat="44.8936" lon="3.92739">
        <ele>942.336</ele>
        <time>2012-05-19T09:51:53Z</time>
      </trkpt>
      <trkpt lat="44.89362" lon="3.92737">
        <ele>941.787</ele>
        <time>2012-05-19T09:51:55Z</time>
      </trkpt>
      <trkpt lat="44.89366" lon="3.92725">
        <ele>940.116</ele>
        <time>2012-05-19T09:52:02Z</time>
      </trkpt>
      <trkpt lat="44.89365" lon="3.92717">
        <ele>938.156</ele>
        <time>2012-05-19T09:52:07Z</time>
      </trkpt>
      <trkpt lat="44.89366" lon="3.92703">
        <ele>934.684</ele>
        <time>2012-05-19T09:52:19Z</time>
      </trkpt>
      <trkpt lat="44.89365" lon="3.92699">
        <ele>935.035</ele>
        <time>2012-05-19T09:52:23Z</time>
      </trkpt>
      <trkpt lat="44.89363" lon="3.92683">
        <ele>931.328</ele>
        <time>2012-05-19T09:53:55Z</time>
      </trkpt>
      <trkpt lat="44.89361" lon="3.92675">
        <ele>932.348</ele>
        <time>2012-05-19T09:54:03Z</time>
      </trkpt>
      <trkpt lat="44.8936" lon="3.92671">
        <ele>930.804</ele>
        <time>2012-05-19T09:54:05Z</time>
      </trkpt>
      <trkpt lat="44.89357" lon="3.9266">
        <ele>930.14</ele>
        <time>2012-05-19T09:54:12Z</time>
      </trkpt>
      <trkpt lat="44.89354" lon="3.92655">
        <ele>930.016</ele>
        <time>2012-05-19T09:54:18Z</time>
      </trkpt>
      <trkpt lat="44.8935" lon="3.92636">
        <ele>924.262</ele>
        <time>2012-05-19T09:54:35Z</time>
      </trkpt>
      <trkpt lat="44.89347" lon="3.92626">
        <ele>922.223</ele>
        <time>2012-05-19T09:54:47Z</time>
      </trkpt>
      <trkpt lat="44.89344" lon="3.9261">
        <ele>918.356</ele>
        <time>2012-05-19T09:55:49Z</time>
      </trkpt>
      <trkpt lat="44.89351" lon="3.92595">
        <ele>916.934</ele>
        <time>2012-05-19T09:56:21Z</time>
      </trkpt>
      <trkpt lat="44.89354" lon="3.92589">
        <ele>914.886</ele>
        <time>2012-05-19T09:56:26Z</time>
      </trkpt>
      <trkpt lat="44.89356" lon="3.92584">
        <ele>913.491</ele>
        <time>2012-05-19T09:56:30Z</time>
      </trkpt>
      <trkpt lat="44.89355" lon="3.92579">
        <ele>913.091</ele>
        <time>2012-05-19T09:56:33Z</time>
      </trkpt>
      <trkpt lat="44.89353" lon="3.92577">
        <ele>911.927</ele>
        <time>2012-05-19T09:56:36Z</time>
      </trkpt>
      <trkpt lat="44.89349" lon="3.92564">
        <ele>909.608</ele>
        <time>2012-05-19T09:56:46Z</time>
      </trkpt>
      <trkpt lat="44.89343" lon="3.92554">
        <ele>905.579</ele>
        <time>2012-05-19T09:56:54Z</time>
      </trkpt>
      <trkpt lat="44.89342" lon="3.92547">
        <ele>905.166</ele>
        <time>2012-05-19T09:56:59Z</time>
      </trkpt>
      <trkpt lat="44.89335" lon="3.92535">
        <ele>902.915</ele>
        <time>2012-05-19T09:57:11Z</time>
      </trkpt>
      <trkpt lat="44.89334" lon="3.92515">
        <ele>899.988</ele>
        <time>2012-05-19T09:57:34Z</time>
      </trkpt>
      <trkpt lat="44.89334" lon="3.9251">
        <ele>898.526</ele>
        <time>2012-05-19T09:57:38Z</time>
      </trkpt>
      <trkpt lat="44.89338" lon="3.92479">
        <ele>896.298</ele>
        <time>2012-05-19T09:57:56Z</time>
      </trkpt>
      <trkpt lat="44.89338" lon="3.92474">
        <ele>894.843</ele>
        <time>2012-05-19T09:57:59Z</time>
      </trkpt>
      <trkpt lat="44.8934" lon="3.92456">
        <ele>892.475</ele>
        <time>2012-05-19T09:58:11Z</time>
      </trkpt>
      <trkpt lat="44.89345" lon="3.92436">
        <ele>888.251</ele>
        <time>2012-05-19T09:58:23Z</time>
      </trkpt>
      <trkpt lat="44.89346" lon="3.92432">
        <ele>887.041</ele>
        <time>2012-05-19T09:58:26Z</time>
      </trkpt>
      <trkpt lat="44.89349" lon="3.9241">
        <ele>884.238</ele>
        <time>2012-05-19T09:58:39Z</time>
      </trkpt>
      <trkpt lat="44.8935" lon="3.92404">
        <ele>883.889</ele>
        <time>2012-05-19T09:58:43Z</time>
      </trkpt>
      <trkpt lat="44.89349" lon="3.92395">
        <ele>883.987</ele>
        <time>2012-05-19T09:59:41Z</time>
      </trkpt>
      <trkpt lat="44.8935" lon="3.9239">
        <ele>881.598</ele>
        <time>2012-05-19T09:59:48Z</time>
      </trkpt>
      <trkpt lat="44.89352" lon="3.9237">
        <ele>878.11</ele>
        <time>2012-05-19T10:00:05Z</time>
      </trkpt>
      <trkpt lat="44.89352" lon="3.92358">
        <ele>874.82</ele>
        <time>2012-05-19T10:00:16Z</time>
      </trkpt>
      <trkpt lat="44.89352" lon="3.92347">
        <ele>872.18</ele>
        <time>2012-05-19T10:00:25Z</time>
      </trkpt>
      <trkpt lat="44.89354" lon="3.92335">
        <ele>869.032</ele>
        <time>2012-05-19T10:00:37Z</time>
      </trkpt>
      <trkpt lat="44.89357" lon="3.92317">
        <ele>865.219</ele>
        <time>2012-05-19T10:00:53Z</time>
      </trkpt>
      <trkpt lat="44.89352" lon="3.92313">
        <ele>863.86</ele>
        <time>2012-05-19T10:01:00Z</time>
      </trkpt>
      <trkpt lat="44.89342" lon="3.92315">
        <ele>865.709</ele>
        <time>2012-05-19T10:02:10Z</time>
      </trkpt>
      <trkpt lat="44.89351" lon="3.92305">
        <ele>863.24</ele>
        <time>2012-05-19T10:02:24Z</time>
      </trkpt>
      <trkpt lat="44.89366" lon="3.92303">
        <ele>859.337</ele>
        <time>2012-05-19T10:02:39Z</time>
      </trkpt>
      <trkpt lat="44.8937" lon="3.92304">
        <ele>858.83</ele>
        <time>2012-05-19T10:02:44Z</time>
      </trkpt>
      <trkpt lat="44.89373" lon="3.92299">
        <ele>857.026</ele>
        <time>2012-05-19T10:02:49Z</time>
      </trkpt>
      <trkpt lat="44.89367" lon="3.92293">
        <ele>856.529</ele>
        <time>2012-05-19T10:02:55Z</time>
      </trkpt>
      <trkpt lat="44.89362" lon="3.9229">
        <ele>855.963</ele>
        <time>2012-05-19T10:03:00Z</time>
      </trkpt>
      <trkpt lat="44.89351" lon="3.92273">
        <ele>854.553</ele>
        <time>2012-05-19T10:03:13Z</time>
      </trkpt>
      <trkpt lat="44.89339" lon="3.92271">
        <ele>851.796</ele>
        <time>2012-05-19T10:03:23Z</time>
      </trkpt>
      <trkpt lat="44.89333" lon="3.92268">
        <ele>850.552</ele>
        <time>2012-05-19T10:03:29Z</time>
      </trkpt>
      <trkpt lat="44.89325" lon="3.9227">
        <ele>850.881</ele>
        <time>2012-05-19T10:03:48Z</time>
      </trkpt>
      <trkpt lat="44.89329" lon="3.92266">
        <ele>847.727</ele>
        <time>2012-05-19T10:04:31Z</time>
      </trkpt>
      <trkpt lat="44.89333" lon="3.92263">
        <ele>847.543</ele>
        <time>2012-05-19T10:04:39Z</time>
      </trkpt>
      <trkpt lat="44.89336" lon="3.92261">
        <ele>846.491</ele>
        <time>2012-05-19T10:04:44Z</time>
      </trkpt>
      <trkpt lat="44.89339" lon="3.92257">
        <ele>844.567</ele>
        <time>2012-05-19T10:04:49Z</time>
      </trkpt>
      <trkpt lat="44.89344" lon="3.9225">
        <ele>842.99</ele>
        <time>2012-05-19T10:04:59Z</time>
      </trkpt>
      <trkpt lat="44.89327" lon="3.92242">
        <ele>840.593</ele>
        <time>2012-05-19T10:07:35Z</time>
      </trkpt>
      <trkpt lat="44.89324" lon="3.92242">
        <ele>843.94</ele>
        <time>2012-05-19T10:07:38Z</time>
      </trkpt>
      <trkpt lat="44.89322" lon="3.92243">
        <ele>841.605</ele>
        <time>2012-05-19T10:07:40Z</time>
      </trkpt>
      <trkpt lat="44.89311" lon="3.92254">
        <ele>839.121</ele>
        <time>2012-05-19T10:07:51Z</time>
      </trkpt>
      <trkpt lat="44.89303" lon="3.92261">
        <ele>837.664</ele>
        <time>2012-05-19T10:07:58Z</time>
      </trkpt>
      <trkpt lat="44.89301" lon="3.92263">
        <ele>835.461</ele>
        <time>2012-05-19T10:08:00Z</time>
      </trkpt>
      <trkpt lat="44.89298" lon="3.92266">
        <ele>836.528</ele>
        <time>2012-05-19T10:08:03Z</time>
      </trkpt>
      <trkpt lat="44.89294" lon="3.92269">
        <ele>833.738</ele>
        <time>2012-05-19T10:08:08Z</time>
      </trkpt>
      <trkpt lat="44.89287" lon="3.92281">
        <ele>830.698</ele>
        <time>2012-05-19T10:08:20Z</time>
      </trkpt>
      <trkpt lat="44.89276" lon="3.9229">
        <ele>828.045</ele>
        <time>2012-05-19T10:08:29Z</time>
      </trkpt>
      <trkpt lat="44.89274" lon="3.92292">
        <ele>826.523</ele>
        <time>2012-05-19T10:08:31Z</time>
      </trkpt>
      <trkpt lat="44.89259" lon="3.92311">
        <ele>823.063</ele>
        <time>2012-05-19T10:08:48Z</time>
      </trkpt>
      <trkpt lat="44.89254" lon="3.92315">
        <ele>821.287</ele>
        <time>2012-05-19T10:08:52Z</time>
      </trkpt>
      <trkpt lat="44.89238" lon="3.92335">
        <ele>819.984</ele>
        <time>2012-05-19T10:09:09Z</time>
      </trkpt>
      <trkpt lat="44.89228" lon="3.92345">
        <ele>818.23</ele>
        <time>2012-05-19T10:09:18Z</time>
      </trkpt>
      <trkpt lat="44.89223" lon="3.92349">
        <ele>816.859</ele>
        <time>2012-05-19T10:09:22Z</time>
      </trkpt>
      <trkpt lat="44.89215" lon="3.9236">
        <ele>818.167</ele>
        <time>2012-05-19T10:09:57Z</time>
      </trkpt>
      <trkpt lat="44.89209" lon="3.92365">
        <ele>816.481</ele>
        <time>2012-05-19T10:10:05Z</time>
      </trkpt>
      <trkpt lat="44.89196" lon="3.92384">
        <ele>813.492</ele>
        <time>2012-05-19T10:10:20Z</time>
      </trkpt>
      <trkpt lat="44.89187" lon="3.92393">
        <ele>811.602</ele>
        <time>2012-05-19T10:10:30Z</time>
      </trkpt>
      <trkpt lat="44.89183" lon="3.92398">
        <ele>810.124</ele>
        <time>2012-05-19T10:10:35Z</time>
      </trkpt>
      <trkpt lat="44.89178" lon="3.92406">
        <ele>808.839</ele>
        <time>2012-05-19T10:10:41Z</time>
      </trkpt>
      <trkpt lat="44.89172" lon="3.92416">
        <ele>805.239</ele>
        <time>2012-05-19T10:10:49Z</time>
      </trkpt>
      <trkpt lat="44.89169" lon="3.92423">
        <ele>807.144</ele>
        <time>2012-05-19T10:10:53Z</time>
      </trkpt>
      <trkpt lat="44.89154" lon="3.92443">
        <ele>805.835</ele>
        <time>2012-05-19T10:11:11Z</time>
      </trkpt>
      <trkpt lat="44.89152" lon="3.92446">
        <ele>805.724</ele>
        <time>2012-05-19T10:11:14Z</time>
      </trkpt>
      <trkpt lat="44.89139" lon="3.92464">
        <ele>802.772</ele>
        <time>2012-05-19T10:11:34Z</time>
      </trkpt>
      <trkpt lat="44.8913" lon="3.92478">
        <ele>800.343</ele>
        <time>2012-05-19T10:11:45Z</time>
      </trkpt>
      <trkpt lat="44.89124" lon="3.92491">
        <ele>798.324</ele>
        <time>2012-05-19T10:11:56Z</time>
      </trkpt>
      <trkpt lat="44.89123" lon="3.92494">
        <ele>797.963</ele>
        <time>2012-05-19T10:11:58Z</time>
      </trkpt>
      <trkpt lat="44.89119" lon="3.92503">
        <ele>796.266</ele>
        <time>2012-05-19T10:12:04Z</time>
      </trkpt>
      <trkpt lat="44.89106" lon="3.92509">
        <ele>793.296</ele>
        <time>2012-05-19T10:12:15Z</time>
      </trkpt>
      <trkpt lat="44.89101" lon="3.92504">
        <ele>791.674</ele>
        <time>2012-05-19T10:12:19Z</time>
      </trkpt>
      <trkpt lat="44.89096" lon="3.92493">
        <ele>791.211</ele>
        <time>2012-05-19T10:12:26Z</time>
      </trkpt>
      <trkpt lat="44.89085" lon="3.92482">
        <ele>787.857</ele>
        <time>2012-05-19T10:12:38Z</time>
      </trkpt>
      <trkpt lat="44.89073" lon="3.92475">
        <ele>784.543</ele>
        <time>2012-05-19T10:12:49Z</time>
      </trkpt>
      <trkpt lat="44.89058" lon="3.92466">
        <ele>781.483</ele>
        <time>2012-05-19T10:13:03Z</time>
      </trkpt>
      <trkpt lat="44.89036" lon="3.92456">
        <ele>778.641</ele>
        <time>2012-05-19T10:13:21Z</time>
      </trkpt>
      <trkpt lat="44.89033" lon="3.92455">
        <ele>777.659</ele>
        <time>2012-05-19T10:13:23Z</time>
      </trkpt>
      <trkpt lat="44.8902" lon="3.92444">
        <ele>776.318</ele>
        <time>2012-05-19T10:13:36Z</time>
      </trkpt>
      <trkpt lat="44.89015" lon="3.92442">
        <ele>775.053</ele>
        <time>2012-05-19T10:13:41Z</time>
      </trkpt>
      <trkpt lat="44.89" lon="3.92456">
        <ele>774.082</ele>
        <time>2012-05-19T10:13:53Z</time>
      </trkpt>
      <trkpt lat="44.88999" lon="3.92457">
        <ele>772.932</ele>
        <time>2012-05-19T10:13:54Z</time>
      </trkpt>
      <trkpt lat="44.88987" lon="3.92472">
        <ele>771.038</ele>
        <time>2012-05-19T10:14:30Z</time>
      </trkpt>
      <trkpt lat="44.88961" lon="3.92468">
        <ele>769.367</ele>
        <time>2012-05-19T10:14:49Z</time>
      </trkpt>
      <trkpt lat="44.88933" lon="3.92459">
        <ele>768.463</ele>
        <time>2012-05-19T10:15:10Z</time>
      </trkpt>
      <trkpt lat="44.88924" lon="3.92458">
        <ele>767.451</ele>
        <time>2012-05-19T10:15:26Z</time>
      </trkpt>
      <trkpt lat="44.88923" lon="3.9245">
        <ele>766.834</ele>
        <time>2012-05-19T10:15:31Z</time>
      </trkpt>
      <trkpt lat="44.88932" lon="3.92419">
        <ele>765.337</ele>
        <time>2012-05-19T10:15:49Z</time>
      </trkpt>
      <trkpt lat="44.8893" lon="3.92395">
        <ele>766.24</ele>
        <time>2012-05-19T10:16:03Z</time>
      </trkpt>
      <trkpt lat="44.88928" lon="3.92385">
        <ele>766.981</ele>
        <time>2012-05-19T10:16:23Z</time>
      </trkpt>
      <trkpt lat="44.88926" lon="3.92373">
        <ele>766.139</ele>
        <time>2012-05-19T10:16:40Z</time>
      </trkpt>
      <trkpt lat="44.88928" lon="3.92344">
        <ele>766.296</ele>
        <time>2012-05-19T10:16:57Z</time>
      </trkpt>
      <trkpt lat="44.88936" lon="3.92316">
        <ele>768.765</ele>
        <time>2012-05-19T10:17:16Z</time>
      </trkpt>
      <trkpt lat="44.88937" lon="3.92312">
        <ele>770.201</ele>
        <time>2012-05-19T10:17:19Z</time>
      </trkpt>
      <trkpt lat="44.88936" lon="3.92306">
        <ele>770.623</ele>
        <time>2012-05-19T10:17:24Z</time>
      </trkpt>
      <trkpt lat="44.88925" lon="3.92291">
        <ele>771.68</ele>
        <time>2012-05-19T10:17:37Z</time>
      </trkpt>
      <trkpt lat="44.88906" lon="3.92269">
        <ele>772.826</ele>
        <time>2012-05-19T10:17:58Z</time>
      </trkpt>
      <trkpt lat="44.88904" lon="3.92266">
        <ele>772.178</ele>
        <time>2012-05-19T10:18:01Z</time>
      </trkpt>
      <trkpt lat="44.88898" lon="3.92247">
        <ele>771.738</ele>
        <time>2012-05-19T10:18:14Z</time>
      </trkpt>
      <trkpt lat="44.88896" lon="3.92229">
        <ele>774.74</ele>
        <time>2012-05-19T10:19:31Z</time>
      </trkpt>
      <trkpt lat="44.88899" lon="3.92228">
        <ele>772.401</ele>
        <time>2012-05-19T10:20:24Z</time>
      </trkpt>
      <trkpt lat="44.88905" lon="3.92224">
        <ele>772.085</ele>
        <time>2012-05-19T10:20:29Z</time>
      </trkpt>
      <trkpt lat="44.88924" lon="3.92204">
        <ele>771.379</ele>
        <time>2012-05-19T10:20:52Z</time>
      </trkpt>
      <trkpt lat="44.88926" lon="3.92199">
        <ele>771.021</ele>
        <time>2012-05-19T10:20:59Z</time>
      </trkpt>
      <trkpt lat="44.88939" lon="3.92198">
        <ele>770.907</ele>
        <time>2012-05-19T10:21:10Z</time>
      </trkpt>
      <trkpt lat="44.88952" lon="3.92214">
        <ele>774.428</ele>
        <time>2012-05-19T10:21:34Z</time>
      </trkpt>
      <trkpt lat="44.88959" lon="3.92216">
        <ele>774.816</ele>
        <time>2012-05-19T10:22:26Z</time>
      </trkpt>
      <trkpt lat="44.88964" lon="3.92216">
        <ele>771.122</ele>
        <time>2012-05-19T10:22:31Z</time>
      </trkpt>
      <trkpt lat="44.88973" lon="3.92217">
        <ele>769.537</ele>
        <time>2012-05-19T10:22:41Z</time>
      </trkpt>
      <trkpt lat="44.88971" lon="3.92223">
        <ele>767.341</ele>
        <time>2012-05-19T10:22:47Z</time>
      </trkpt>
      <trkpt lat="44.88974" lon="3.92231">
        <ele>764.77</ele>
        <time>2012-05-19T10:22:54Z</time>
      </trkpt>
      <trkpt lat="44.88976" lon="3.92237">
        <ele>762.832</ele>
        <time>2012-05-19T10:23:02Z</time>
      </trkpt>
      <trkpt lat="44.8898" lon="3.92242">
        <ele>761.336</ele>
        <time>2012-05-19T11:40:34Z</time>
      </trkpt>
      <trkpt lat="44.88981" lon="3.92237">
        <ele>762.349</ele>
        <time>2012-05-19T11:40:39Z</time>
      </trkpt>
      <trkpt lat="44.88975" lon="3.92227">
        <ele>763.455</ele>
        <time>2012-05-19T11:40:53Z</time>
      </trkpt>
      <trkpt lat="44.88973" lon="3.92222">
        <ele>764.561</ele>
        <time>2012-05-19T11:41:01Z</time>
      </trkpt>
      <trkpt lat="44.8897" lon="3.92215">
        <ele>768.583</ele>
        <time>2012-05-19T11:41:14Z</time>
      </trkpt>
      <trkpt lat="44.88959" lon="3.92219">
        <ele>770.644</ele>
        <time>2012-05-19T11:41:27Z</time>
      </trkpt>
      <trkpt lat="44.88946" lon="3.92214">
        <ele>773.025</ele>
        <time>2012-05-19T11:41:41Z</time>
      </trkpt>
      <trkpt lat="44.88944" lon="3.92206">
        <ele>773.718</ele>
        <time>2012-05-19T11:42:41Z</time>
      </trkpt>
      <trkpt lat="44.88946" lon="3.92203">
        <ele>773.28</ele>
        <time>2012-05-19T11:42:43Z</time>
      </trkpt>
      <trkpt lat="44.88953" lon="3.92199">
        <ele>773.725</ele>
        <time>2012-05-19T11:42:51Z</time>
      </trkpt>
      <trkpt lat="44.88962" lon="3.92192">
        <ele>774.681</ele>
        <time>2012-05-19T11:43:01Z</time>
      </trkpt>
      <trkpt lat="44.88969" lon="3.92178">
        <ele>775.25</ele>
        <time>2012-05-19T11:43:14Z</time>
      </trkpt>
      <trkpt lat="44.88972" lon="3.92169">
        <ele>776.48</ele>
        <time>2012-05-19T11:43:20Z</time>
      </trkpt>
      <trkpt lat="44.88976" lon="3.92157">
        <ele>777.597</ele>
        <time>2012-05-19T11:43:30Z</time>
      </trkpt>
      <trkpt lat="44.88979" lon="3.92141">
        <ele>778.325</ele>
        <time>2012-05-19T11:43:46Z</time>
      </trkpt>
      <trkpt lat="44.8898" lon="3.92132">
        <ele>778.514</ele>
        <time>2012-05-19T11:43:55Z</time>
      </trkpt>
      <trkpt lat="44.88979" lon="3.92127">
        <ele>778.631</ele>
        <time>2012-05-19T11:43:59Z</time>
      </trkpt>
      <trkpt lat="44.8898" lon="3.92121">
        <ele>779.133</ele>
        <time>2012-05-19T11:44:03Z</time>
      </trkpt>
      <trkpt lat="44.88981" lon="3.92117">
        <ele>779.966</ele>
        <time>2012-05-19T11:44:07Z</time>
      </trkpt>
      <trkpt lat="44.88984" lon="3.92091">
        <ele>781.062</ele>
        <time>2012-05-19T11:44:26Z</time>
      </trkpt>
      <trkpt lat="44.88986" lon="3.92073">
        <ele>781.32</ele>
        <time>2012-05-19T11:44:38Z</time>
      </trkpt>
      <trkpt lat="44.88989" lon="3.92049">
        <ele>782.665</ele>
        <time>2012-05-19T11:44:56Z</time>
      </trkpt>
      <trkpt lat="44.88995" lon="3.92025">
        <ele>784.402</ele>
        <time>2012-05-19T11:45:14Z</time>
      </trkpt>
      <trkpt lat="44.89001" lon="3.92">
        <ele>785.914</ele>
        <time>2012-05-19T11:45:34Z</time>
      </trkpt>
      <trkpt lat="44.89004" lon="3.91985">
        <ele>787.617</ele>
        <time>2012-05-19T11:45:45Z</time>
      </trkpt>
      <trkpt lat="44.89005" lon="3.91972">
        <ele>788.049</ele>
        <time>2012-05-19T11:45:54Z</time>
      </trkpt>
      <trkpt lat="44.89008" lon="3.91964">
        <ele>788.974</ele>
        <time>2012-05-19T11:46:00Z</time>
      </trkpt>
      <trkpt lat="44.89008" lon="3.91959">
        <ele>786.715</ele>
        <time>2012-05-19T11:46:03Z</time>
      </trkpt>
      <trkpt lat="44.89012" lon="3.91946">
        <ele>788.834</ele>
        <time>2012-05-19T11:46:12Z</time>
      </trkpt>
      <trkpt lat="44.89015" lon="3.91925">
        <ele>790.467</ele>
        <time>2012-05-19T11:46:28Z</time>
      </trkpt>
      <trkpt lat="44.89017" lon="3.91916">
        <ele>791.454</ele>
        <time>2012-05-19T11:46:34Z</time>
      </trkpt>
      <trkpt lat="44.89022" lon="3.91901">
        <ele>792.303</ele>
        <time>2012-05-19T11:46:46Z</time>
      </trkpt>
      <trkpt lat="44.89023" lon="3.91894">
        <ele>792.002</ele>
        <time>2012-05-19T11:46:51Z</time>
      </trkpt>
      <trkpt lat="44.89025" lon="3.91875">
        <ele>793.239</ele>
        <time>2012-05-19T11:47:06Z</time>
      </trkpt>
      <trkpt lat="44.89026" lon="3.91869">
        <ele>793.361</ele>
        <time>2012-05-19T11:47:11Z</time>
      </trkpt>
      <trkpt lat="44.89027" lon="3.91844">
        <ele>794.666</ele>
        <time>2012-05-19T11:47:30Z</time>
      </trkpt>
      <trkpt lat="44.89029" lon="3.91828">
        <ele>794.413</ele>
        <time>2012-05-19T11:47:43Z</time>
      </trkpt>
      <trkpt lat="44.89031" lon="3.91808">
        <ele>794.948</ele>
        <time>2012-05-19T11:47:57Z</time>
      </trkpt>
      <trkpt lat="44.89032" lon="3.91796">
        <ele>794.827</ele>
        <time>2012-05-19T11:48:06Z</time>
      </trkpt>
      <trkpt lat="44.89033" lon="3.91776">
        <ele>795.055</ele>
        <time>2012-05-19T11:48:21Z</time>
      </trkpt>
      <trkpt lat="44.89034" lon="3.91762">
        <ele>796.857</ele>
        <time>2012-05-19T11:48:31Z</time>
      </trkpt>
      <trkpt lat="44.89036" lon="3.91748">
        <ele>796.727</ele>
        <time>2012-05-19T11:48:40Z</time>
      </trkpt>
      <trkpt lat="44.89035" lon="3.91744">
        <ele>796.458</ele>
        <time>2012-05-19T11:48:43Z</time>
      </trkpt>
      <trkpt lat="44.89035" lon="3.91739">
        <ele>796.3</ele>
        <time>2012-05-19T11:48:46Z</time>
      </trkpt>
      <trkpt lat="44.89037" lon="3.9172">
        <ele>796.386</ele>
        <time>2012-05-19T11:48:58Z</time>
      </trkpt>
      <trkpt lat="44.89038" lon="3.91693">
        <ele>797.914</ele>
        <time>2012-05-19T11:49:16Z</time>
      </trkpt>
      <trkpt lat="44.89037" lon="3.91664">
        <ele>798.135</ele>
        <time>2012-05-19T11:49:34Z</time>
      </trkpt>
      <trkpt lat="44.89036" lon="3.91656">
        <ele>798.991</ele>
        <time>2012-05-19T11:49:40Z</time>
      </trkpt>
      <trkpt lat="44.89036" lon="3.91652">
        <ele>799.941</ele>
        <time>2012-05-19T11:49:43Z</time>
      </trkpt>
      <trkpt lat="44.89034" lon="3.91639">
        <ele>799.043</ele>
        <time>2012-05-19T11:49:52Z</time>
      </trkpt>
      <trkpt lat="44.89028" lon="3.91605">
        <ele>797.214</ele>
        <time>2012-05-19T11:50:13Z</time>
      </trkpt>
      <trkpt lat="44.89028" lon="3.9159">
        <ele>798.018</ele>
        <time>2012-05-19T11:50:22Z</time>
      </trkpt>
      <trkpt lat="44.89028" lon="3.91568">
        <ele>793.6</ele>
        <time>2012-05-19T11:50:35Z</time>
      </trkpt>
      <trkpt lat="44.89028" lon="3.91566">
        <ele>793.448</ele>
        <time>2012-05-19T11:50:37Z</time>
      </trkpt>
      <trkpt lat="44.89029" lon="3.91556">
        <ele>792.865</ele>
        <time>2012-05-19T11:50:44Z</time>
      </trkpt>
      <trkpt lat="44.89029" lon="3.91545">
        <ele>791.245</ele>
        <time>2012-05-19T11:50:51Z</time>
      </trkpt>
      <trkpt lat="44.8903" lon="3.91532">
        <ele>789.649</ele>
        <time>2012-05-19T11:50:59Z</time>
      </trkpt>
      <trkpt lat="44.89027" lon="3.91521">
        <ele>790.457</ele>
        <time>2012-05-19T11:51:06Z</time>
      </trkpt>
      <trkpt lat="44.89025" lon="3.91483">
        <ele>791.123</ele>
        <time>2012-05-19T11:51:30Z</time>
      </trkpt>
      <trkpt lat="44.89025" lon="3.91459">
        <ele>792.026</ele>
        <time>2012-05-19T11:51:47Z</time>
      </trkpt>
      <trkpt lat="44.89025" lon="3.91439">
        <ele>789.86</ele>
        <time>2012-05-19T11:52:01Z</time>
      </trkpt>
      <trkpt lat="44.89025" lon="3.91433">
        <ele>789.429</ele>
        <time>2012-05-19T11:52:05Z</time>
      </trkpt>
      <trkpt lat="44.89026" lon="3.91421">
        <ele>789.474</ele>
        <time>2012-05-19T11:52:13Z</time>
      </trkpt>
      <trkpt lat="44.89023" lon="3.91411">
        <ele>793.494</ele>
        <time>2012-05-19T11:52:24Z</time>
      </trkpt>
      <trkpt lat="44.89016" lon="3.91412">
        <ele>797.049</ele>
        <time>2012-05-19T11:52:33Z</time>
      </trkpt>
      <trkpt lat="44.89012" lon="3.91414">
        <ele>797.76</ele>
        <time>2012-05-19T11:52:38Z</time>
      </trkpt>
      <trkpt lat="44.88996" lon="3.91415">
        <ele>799.586</ele>
        <time>2012-05-19T11:52:57Z</time>
      </trkpt>
      <trkpt lat="44.88989" lon="3.91415">
        <ele>799.287</ele>
        <time>2012-05-19T11:53:06Z</time>
      </trkpt>
      <trkpt lat="44.88985" lon="3.91415">
        <ele>802.135</ele>
        <time>2012-05-19T11:53:10Z</time>
      </trkpt>
      <trkpt lat="44.88974" lon="3.91408">
        <ele>804.45</ele>
        <time>2012-05-19T11:53:25Z</time>
      </trkpt>
      <trkpt lat="44.88971" lon="3.91399">
        <ele>807.081</ele>
        <time>2012-05-19T11:53:37Z</time>
      </trkpt>
      <trkpt lat="44.8897" lon="3.91384">
        <ele>810.48</ele>
        <time>2012-05-19T11:53:48Z</time>
      </trkpt>
      <trkpt lat="44.88964" lon="3.91382">
        <ele>813.868</ele>
        <time>2012-05-19T11:54:02Z</time>
      </trkpt>
      <trkpt lat="44.88949" lon="3.91389">
        <ele>817.442</ele>
        <time>2012-05-19T11:54:19Z</time>
      </trkpt>
      <trkpt lat="44.88941" lon="3.9139">
        <ele>820.551</ele>
        <time>2012-05-19T11:54:30Z</time>
      </trkpt>
      <trkpt lat="44.8893" lon="3.91388">
        <ele>823.182</ele>
        <time>2012-05-19T11:54:47Z</time>
      </trkpt>
      <trkpt lat="44.88926" lon="3.91378">
        <ele>825.095</ele>
        <time>2012-05-19T11:54:59Z</time>
      </trkpt>
      <trkpt lat="44.8892" lon="3.91372">
        <ele>826.361</ele>
        <time>2012-05-19T11:55:10Z</time>
      </trkpt>
      <trkpt lat="44.88917" lon="3.91376">
        <ele>827.926</ele>
        <time>2012-05-19T11:55:15Z</time>
      </trkpt>
      <trkpt lat="44.8891" lon="3.91375">
        <ele>831.465</ele>
        <time>2012-05-19T11:55:23Z</time>
      </trkpt>
      <trkpt lat="44.88903" lon="3.91372">
        <ele>834.039</ele>
        <time>2012-05-19T11:55:34Z</time>
      </trkpt>
      <trkpt lat="44.88892" lon="3.91369">
        <ele>836.044</ele>
        <time>2012-05-19T11:55:51Z</time>
      </trkpt>
      <trkpt lat="44.88886" lon="3.91368">
        <ele>837.825</ele>
        <time>2012-05-19T11:56:00Z</time>
      </trkpt>
      <trkpt lat="44.88877" lon="3.91363">
        <ele>841.208</ele>
        <time>2012-05-19T11:56:17Z</time>
      </trkpt>
      <trkpt lat="44.8887" lon="3.9136">
        <ele>841.927</ele>
        <time>2012-05-19T11:56:25Z</time>
      </trkpt>
      <trkpt lat="44.88861" lon="3.9136">
        <ele>844.96</ele>
        <time>2012-05-19T11:56:36Z</time>
      </trkpt>
      <trkpt lat="44.8885" lon="3.91354">
        <ele>847.149</ele>
        <time>2012-05-19T11:56:52Z</time>
      </trkpt>
      <trkpt lat="44.88837" lon="3.91353">
        <ele>851.055</ele>
        <time>2012-05-19T11:57:08Z</time>
      </trkpt>
      <trkpt lat="44.88823" lon="3.91347">
        <ele>853.078</ele>
        <time>2012-05-19T11:57:26Z</time>
      </trkpt>
      <trkpt lat="44.88814" lon="3.91345">
        <ele>856.294</ele>
        <time>2012-05-19T11:57:38Z</time>
      </trkpt>
      <trkpt lat="44.88808" lon="3.91338">
        <ele>858.496</ele>
        <time>2012-05-19T11:58:24Z</time>
      </trkpt>
      <trkpt lat="44.88795" lon="3.91338">
        <ele>859.677</ele>
        <time>2012-05-19T11:58:54Z</time>
      </trkpt>
      <trkpt lat="44.88779" lon="3.91336">
        <ele>862.874</ele>
        <time>2012-05-19T11:59:16Z</time>
      </trkpt>
      <trkpt lat="44.88771" lon="3.91334">
        <ele>865.235</ele>
        <time>2012-05-19T11:59:24Z</time>
      </trkpt>
      <trkpt lat="44.88754" lon="3.91331">
        <ele>867.606</ele>
        <time>2012-05-19T11:59:46Z</time>
      </trkpt>
      <trkpt lat="44.88739" lon="3.91328">
        <ele>869.844</ele>
        <time>2012-05-19T12:00:05Z</time>
      </trkpt>
      <trkpt lat="44.88731" lon="3.91332">
        <ele>872.938</ele>
        <time>2012-05-19T12:00:15Z</time>
      </trkpt>
      <trkpt lat="44.88729" lon="3.91333">
        <ele>873.999</ele>
        <time>2012-05-19T12:00:17Z</time>
      </trkpt>
      <trkpt lat="44.88719" lon="3.91334">
        <ele>874.702</ele>
        <time>2012-05-19T12:00:34Z</time>
      </trkpt>
      <trkpt lat="44.8871" lon="3.91338">
        <ele>878.354</ele>
        <time>2012-05-19T12:00:44Z</time>
      </trkpt>
      <trkpt lat="44.88708" lon="3.91339">
        <ele>878.354</ele>
        <time>2012-05-19T12:00:45Z</time>
      </trkpt>
      <trkpt lat="44.88699" lon="3.91348">
        <ele>879.3</ele>
        <time>2012-05-19T12:00:57Z</time>
      </trkpt>
      <trkpt lat="44.88696" lon="3.9135">
        <ele>879.105</ele>
        <time>2012-05-19T12:01:00Z</time>
      </trkpt>
      <trkpt lat="44.8869" lon="3.91357">
        <ele>880.438</ele>
        <time>2012-05-19T12:01:12Z</time>
      </trkpt>
      <trkpt lat="44.88682" lon="3.91369">
        <ele>881.127</ele>
        <time>2012-05-19T12:01:27Z</time>
      </trkpt>
      <trkpt lat="44.88668" lon="3.91377">
        <ele>883.497</ele>
        <time>2012-05-19T12:01:39Z</time>
      </trkpt>
      <trkpt lat="44.88666" lon="3.91385">
        <ele>884.792</ele>
        <time>2012-05-19T12:02:29Z</time>
      </trkpt>
      <trkpt lat="44.88655" lon="3.91388">
        <ele>886.321</ele>
        <time>2012-05-19T12:02:37Z</time>
      </trkpt>
      <trkpt lat="44.88642" lon="3.91391">
        <ele>887.05</ele>
        <time>2012-05-19T12:02:50Z</time>
      </trkpt>
      <trkpt lat="44.88618" lon="3.91395">
        <ele>886.162</ele>
        <time>2012-05-19T12:03:08Z</time>
      </trkpt>
      <trkpt lat="44.88606" lon="3.914">
        <ele>886.457</ele>
        <time>2012-05-19T12:03:19Z</time>
      </trkpt>
      <trkpt lat="44.88598" lon="3.914">
        <ele>886.925</ele>
        <time>2012-05-19T12:03:24Z</time>
      </trkpt>
      <trkpt lat="44.88576" lon="3.91389">
        <ele>889.101</ele>
        <time>2012-05-19T12:03:44Z</time>
      </trkpt>
      <trkpt lat="44.88573" lon="3.91384">
        <ele>891.149</ele>
        <time>2012-05-19T12:03:49Z</time>
      </trkpt>
      <trkpt lat="44.88566" lon="3.91359">
        <ele>893.211</ele>
        <time>2012-05-19T12:04:09Z</time>
      </trkpt>
      <trkpt lat="44.88565" lon="3.91341">
        <ele>895.452</ele>
        <time>2012-05-19T12:04:24Z</time>
      </trkpt>
      <trkpt lat="44.88566" lon="3.91333">
        <ele>895.635</ele>
        <time>2012-05-19T12:04:30Z</time>
      </trkpt>
      <trkpt lat="44.88569" lon="3.91313">
        <ele>897.841</ele>
        <time>2012-05-19T12:04:49Z</time>
      </trkpt>
      <trkpt lat="44.88574" lon="3.91299">
        <ele>901.353</ele>
        <time>2012-05-19T12:05:01Z</time>
      </trkpt>
      <trkpt lat="44.88577" lon="3.91273">
        <ele>902.668</ele>
        <time>2012-05-19T12:05:22Z</time>
      </trkpt>
      <trkpt lat="44.88578" lon="3.91263">
        <ele>903.915</ele>
        <time>2012-05-19T12:05:30Z</time>
      </trkpt>
      <trkpt lat="44.88579" lon="3.9125">
        <ele>906.537</ele>
        <time>2012-05-19T12:05:39Z</time>
      </trkpt>
      <trkpt lat="44.88582" lon="3.91231">
        <ele>910.284</ele>
        <time>2012-05-19T12:05:54Z</time>
      </trkpt>
      <trkpt lat="44.88584" lon="3.91212">
        <ele>913.449</ele>
        <time>2012-05-19T12:06:10Z</time>
      </trkpt>
      <trkpt lat="44.8858" lon="3.91193">
        <ele>916.792</ele>
        <time>2012-05-19T12:06:26Z</time>
      </trkpt>
      <trkpt lat="44.88575" lon="3.91182">
        <ele>919.021</ele>
        <time>2012-05-19T12:06:38Z</time>
      </trkpt>
      <trkpt lat="44.88561" lon="3.91165">
        <ele>921.524</ele>
        <time>2012-05-19T12:06:57Z</time>
      </trkpt>
      <trkpt lat="44.88553" lon="3.91159">
        <ele>921.719</ele>
        <time>2012-05-19T12:07:09Z</time>
      </trkpt>
      <trkpt lat="44.88553" lon="3.91153">
        <ele>922.379</ele>
        <time>2012-05-19T12:07:14Z</time>
      </trkpt>
      <trkpt lat="44.88556" lon="3.9115">
        <ele>922.305</ele>
        <time>2012-05-19T12:07:18Z</time>
      </trkpt>
      <trkpt lat="44.88559" lon="3.9115">
        <ele>923.897</ele>
        <time>2012-05-19T12:07:21Z</time>
      </trkpt>
      <trkpt lat="44.88563" lon="3.91151">
        <ele>924.933</ele>
        <time>2012-05-19T12:07:25Z</time>
      </trkpt>
      <trkpt lat="44.88573" lon="3.91154">
        <ele>923.193</ele>
        <time>2012-05-19T12:07:36Z</time>
      </trkpt>
      <trkpt lat="44.88579" lon="3.91153">
        <ele>925.193</ele>
        <time>2012-05-19T12:07:41Z</time>
      </trkpt>
      <trkpt lat="44.88582" lon="3.91153">
        <ele>926.698</ele>
        <time>2012-05-19T12:07:44Z</time>
      </trkpt>
      <trkpt lat="44.88589" lon="3.91151">
        <ele>926.172</ele>
        <time>2012-05-19T12:07:52Z</time>
      </trkpt>
      <trkpt lat="44.88593" lon="3.91151">
        <ele>927.913</ele>
        <time>2012-05-19T12:07:55Z</time>
      </trkpt>
      <trkpt lat="44.88598" lon="3.91149">
        <ele>930.662</ele>
        <time>2012-05-19T12:08:00Z</time>
      </trkpt>
      <trkpt lat="44.88605" lon="3.91147">
        <ele>934.764</ele>
        <time>2012-05-19T12:08:08Z</time>
      </trkpt>
      <trkpt lat="44.88606" lon="3.91146">
        <ele>934.765</ele>
        <time>2012-05-19T12:08:09Z</time>
      </trkpt>
      <trkpt lat="44.88619" lon="3.9113">
        <ele>936.296</ele>
        <time>2012-05-19T12:08:28Z</time>
      </trkpt>
      <trkpt lat="44.88619" lon="3.91123">
        <ele>937.187</ele>
        <time>2012-05-19T12:08:33Z</time>
      </trkpt>
      <trkpt lat="44.88619" lon="3.91107">
        <ele>939.512</ele>
        <time>2012-05-19T12:08:45Z</time>
      </trkpt>
      <trkpt lat="44.88619" lon="3.91098">
        <ele>940.555</ele>
        <time>2012-05-19T12:08:51Z</time>
      </trkpt>
      <trkpt lat="44.88619" lon="3.91082">
        <ele>939.846</ele>
        <time>2012-05-19T12:09:02Z</time>
      </trkpt>
      <trkpt lat="44.88618" lon="3.91076">
        <ele>942.349</ele>
        <time>2012-05-19T12:09:07Z</time>
      </trkpt>
      <trkpt lat="44.88618" lon="3.91073">
        <ele>944.019</ele>
        <time>2012-05-19T12:09:09Z</time>
      </trkpt>
      <trkpt lat="44.88616" lon="3.91043">
        <ele>945.241</ele>
        <time>2012-05-19T12:09:29Z</time>
      </trkpt>
      <trkpt lat="44.88617" lon="3.91018">
        <ele>946.68</ele>
        <time>2012-05-19T12:09:47Z</time>
      </trkpt>
      <trkpt lat="44.88617" lon="3.90991">
        <ele>947.843</ele>
        <time>2012-05-19T12:10:04Z</time>
      </trkpt>
      <trkpt lat="44.88618" lon="3.90953">
        <ele>949.776</ele>
        <time>2012-05-19T12:10:28Z</time>
      </trkpt>
      <trkpt lat="44.88618" lon="3.90936">
        <ele>951.588</ele>
        <time>2012-05-19T12:10:39Z</time>
      </trkpt>
      <trkpt lat="44.8862" lon="3.9092">
        <ele>950.07</ele>
        <time>2012-05-19T12:10:49Z</time>
      </trkpt>
      <trkpt lat="44.8862" lon="3.90911">
        <ele>953.867</ele>
        <time>2012-05-19T12:10:54Z</time>
      </trkpt>
      <trkpt lat="44.8862" lon="3.90898">
        <ele>953.697</ele>
        <time>2012-05-19T12:11:03Z</time>
      </trkpt>
      <trkpt lat="44.88622" lon="3.90886">
        <ele>952.975</ele>
        <time>2012-05-19T12:11:11Z</time>
      </trkpt>
      <trkpt lat="44.88622" lon="3.9088">
        <ele>953.843</ele>
        <time>2012-05-19T12:11:15Z</time>
      </trkpt>
      <trkpt lat="44.88623" lon="3.90862">
        <ele>954.729</ele>
        <time>2012-05-19T12:11:26Z</time>
      </trkpt>
      <trkpt lat="44.8862" lon="3.90838">
        <ele>955.515</ele>
        <time>2012-05-19T12:11:43Z</time>
      </trkpt>
      <trkpt lat="44.88617" lon="3.90812">
        <ele>954.743</ele>
        <time>2012-05-19T12:25:37Z</time>
      </trkpt>
      <trkpt lat="44.88621" lon="3.90802">
        <ele>954.126</ele>
        <time>2012-05-19T12:25:55Z</time>
      </trkpt>
      <trkpt lat="44.88623" lon="3.90787">
        <ele>954.588</ele>
        <time>2012-05-19T12:26:10Z</time>
      </trkpt>
      <trkpt lat="44.88623" lon="3.90768">
        <ele>954.309</ele>
        <time>2012-05-19T12:26:26Z</time>
      </trkpt>
      <trkpt lat="44.88622" lon="3.90762">
        <ele>953.865</ele>
        <time>2012-05-19T12:26:30Z</time>
      </trkpt>
      <trkpt lat="44.88624" lon="3.90739">
        <ele>953.326</ele>
        <time>2012-05-19T12:26:45Z</time>
      </trkpt>
      <trkpt lat="44.88624" lon="3.90733">
        <ele>954.059</ele>
        <time>2012-05-19T12:26:48Z</time>
      </trkpt>
      <trkpt lat="44.88624" lon="3.90728">
        <ele>953.987</ele>
        <time>2012-05-19T12:26:51Z</time>
      </trkpt>
      <trkpt lat="44.88624" lon="3.90698">
        <ele>953.537</ele>
        <time>2012-05-19T12:27:11Z</time>
      </trkpt>
      <trkpt lat="44.8862" lon="3.90665">
        <ele>952.207</ele>
        <time>2012-05-19T12:27:32Z</time>
      </trkpt>
      <trkpt lat="44.8861" lon="3.90645">
        <ele>948.617</ele>
        <time>2012-05-19T12:27:48Z</time>
      </trkpt>
      <trkpt lat="44.88608" lon="3.90642">
        <ele>949.038</ele>
        <time>2012-05-19T12:27:52Z</time>
      </trkpt>
      <trkpt lat="44.88602" lon="3.90633">
        <ele>947.423</ele>
        <time>2012-05-19T12:28:01Z</time>
      </trkpt>
      <trkpt lat="44.88596" lon="3.9062">
        <ele>946.169</ele>
        <time>2012-05-19T12:28:12Z</time>
      </trkpt>
      <trkpt lat="44.88601" lon="3.90614">
        <ele>945.892</ele>
        <time>2012-05-19T12:28:19Z</time>
      </trkpt>
      <trkpt lat="44.88587" lon="3.90591">
        <ele>943.297</ele>
        <time>2012-05-19T12:28:38Z</time>
      </trkpt>
      <trkpt lat="44.88587" lon="3.90569">
        <ele>944.498</ele>
        <time>2012-05-19T12:28:51Z</time>
      </trkpt>
      <trkpt lat="44.88588" lon="3.90533">
        <ele>943.725</ele>
        <time>2012-05-19T12:29:14Z</time>
      </trkpt>
      <trkpt lat="44.88589" lon="3.90526">
        <ele>945.455</ele>
        <time>2012-05-19T12:29:20Z</time>
      </trkpt>
      <trkpt lat="44.88594" lon="3.90523">
        <ele>944.346</ele>
        <time>2012-05-19T12:31:16Z</time>
      </trkpt>
      <trkpt lat="44.8858" lon="3.90496">
        <ele>943.582</ele>
        <time>2012-05-19T12:31:36Z</time>
      </trkpt>
      <trkpt lat="44.88581" lon="3.90475">
        <ele>946.197</ele>
        <time>2012-05-19T12:31:49Z</time>
      </trkpt>
      <trkpt lat="44.88581" lon="3.90471">
        <ele>946.978</ele>
        <time>2012-05-19T12:31:52Z</time>
      </trkpt>
      <trkpt lat="44.88582" lon="3.90465">
        <ele>947.09</ele>
        <time>2012-05-19T12:31:56Z</time>
      </trkpt>
      <trkpt lat="44.88583" lon="3.90456">
        <ele>946.968</ele>
        <time>2012-05-19T12:32:02Z</time>
      </trkpt>
      <trkpt lat="44.88585" lon="3.90451">
        <ele>946.731</ele>
        <time>2012-05-19T12:32:05Z</time>
      </trkpt>
      <trkpt lat="44.88587" lon="3.90442">
        <ele>947.205</ele>
        <time>2012-05-19T12:32:10Z</time>
      </trkpt>
      <trkpt lat="44.88588" lon="3.90439">
        <ele>947.417</ele>
        <time>2012-05-19T12:32:12Z</time>
      </trkpt>
      <trkpt lat="44.88597" lon="3.90413">
        <ele>948.912</ele>
        <time>2012-05-19T12:32:29Z</time>
      </trkpt>
      <trkpt lat="44.88602" lon="3.90401">
        <ele>950.174</ele>
        <time>2012-05-19T12:32:37Z</time>
      </trkpt>
      <trkpt lat="44.88609" lon="3.90384">
        <ele>951.035</ele>
        <time>2012-05-19T12:32:50Z</time>
      </trkpt>
      <trkpt lat="44.88612" lon="3.90365">
        <ele>951.882</ele>
        <time>2012-05-19T12:33:01Z</time>
      </trkpt>
      <trkpt lat="44.88618" lon="3.90343">
        <ele>953.367</ele>
        <time>2012-05-19T12:33:15Z</time>
      </trkpt>
      <trkpt lat="44.8862" lon="3.9034">
        <ele>953.401</ele>
        <time>2012-05-19T12:33:17Z</time>
      </trkpt>
      <trkpt lat="44.88621" lon="3.90331">
        <ele>954.026</ele>
        <time>2012-05-19T12:33:23Z</time>
      </trkpt>
      <trkpt lat="44.88624" lon="3.90325">
        <ele>954.313</ele>
        <time>2012-05-19T12:33:27Z</time>
      </trkpt>
      <trkpt lat="44.88631" lon="3.90299">
        <ele>956.191</ele>
        <time>2012-05-19T12:33:46Z</time>
      </trkpt>
      <trkpt lat="44.88632" lon="3.90294">
        <ele>956.648</ele>
        <time>2012-05-19T12:33:50Z</time>
      </trkpt>
      <trkpt lat="44.88636" lon="3.90285">
        <ele>957.495</ele>
        <time>2012-05-19T12:33:58Z</time>
      </trkpt>
      <trkpt lat="44.88642" lon="3.90259">
        <ele>960.36</ele>
        <time>2012-05-19T12:34:17Z</time>
      </trkpt>
      <trkpt lat="44.88641" lon="3.9023">
        <ele>963.502</ele>
        <time>2012-05-19T12:34:39Z</time>
      </trkpt>
      <trkpt lat="44.88641" lon="3.90226">
        <ele>964.58</ele>
        <time>2012-05-19T12:34:42Z</time>
      </trkpt>
      <trkpt lat="44.88636" lon="3.90203">
        <ele>967.244</ele>
        <time>2012-05-19T12:35:02Z</time>
      </trkpt>
      <trkpt lat="44.88633" lon="3.9017">
        <ele>970.376</ele>
        <time>2012-05-19T12:35:29Z</time>
      </trkpt>
      <trkpt lat="44.88638" lon="3.90149">
        <ele>971.815</ele>
        <time>2012-05-19T12:35:46Z</time>
      </trkpt>
      <trkpt lat="44.88641" lon="3.90135">
        <ele>974.908</ele>
        <time>2012-05-19T12:35:57Z</time>
      </trkpt>
      <trkpt lat="44.88644" lon="3.90124">
        <ele>975.721</ele>
        <time>2012-05-19T12:36:07Z</time>
      </trkpt>
      <trkpt lat="44.88643" lon="3.90118">
        <ele>975.204</ele>
        <time>2012-05-19T12:36:11Z</time>
      </trkpt>
      <trkpt lat="44.88636" lon="3.90106">
        <ele>975.174</ele>
        <time>2012-05-19T12:36:21Z</time>
      </trkpt>
      <trkpt lat="44.88627" lon="3.901">
        <ele>977.67</ele>
        <time>2012-05-19T12:36:33Z</time>
      </trkpt>
      <trkpt lat="44.88623" lon="3.90095">
        <ele>977.175</ele>
        <time>2012-05-19T12:36:38Z</time>
      </trkpt>
      <trkpt lat="44.88608" lon="3.90082">
        <ele>977.449</ele>
        <time>2012-05-19T12:36:57Z</time>
      </trkpt>
      <trkpt lat="44.88603" lon="3.90077">
        <ele>979.032</ele>
        <time>2012-05-19T12:37:05Z</time>
      </trkpt>
      <trkpt lat="44.88599" lon="3.90053">
        <ele>979.986</ele>
        <time>2012-05-19T12:37:21Z</time>
      </trkpt>
      <trkpt lat="44.88597" lon="3.90036">
        <ele>980.634</ele>
        <time>2012-05-19T12:37:33Z</time>
      </trkpt>
      <trkpt lat="44.88595" lon="3.90013">
        <ele>981.491</ele>
        <time>2012-05-19T12:37:49Z</time>
      </trkpt>
      <trkpt lat="44.88594" lon="3.90006">
        <ele>983.143</ele>
        <time>2012-05-19T12:37:54Z</time>
      </trkpt>
      <trkpt lat="44.8859" lon="3.89977">
        <ele>984.271</ele>
        <time>2012-05-19T12:38:14Z</time>
      </trkpt>
      <trkpt lat="44.88588" lon="3.89961">
        <ele>985.429</ele>
        <time>2012-05-19T12:38:26Z</time>
      </trkpt>
      <trkpt lat="44.88585" lon="3.89949">
        <ele>986.754</ele>
        <time>2012-05-19T12:38:34Z</time>
      </trkpt>
      <trkpt lat="44.88581" lon="3.89916">
        <ele>987.021</ele>
        <time>2012-05-19T12:38:53Z</time>
      </trkpt>
      <trkpt lat="44.88574" lon="3.89878">
        <ele>987.823</ele>
        <time>2012-05-19T12:39:16Z</time>
      </trkpt>
      <trkpt lat="44.88567" lon="3.89838">
        <ele>989.505</ele>
        <time>2012-05-19T12:39:41Z</time>
      </trkpt>
      <trkpt lat="44.88559" lon="3.89793">
        <ele>989.397</ele>
        <time>2012-05-19T12:40:05Z</time>
      </trkpt>
      <trkpt lat="44.88558" lon="3.89788">
        <ele>990.177</ele>
        <time>2012-05-19T12:40:08Z</time>
      </trkpt>
      <trkpt lat="44.88549" lon="3.89751">
        <ele>991.048</ele>
        <time>2012-05-19T12:40:30Z</time>
      </trkpt>
      <trkpt lat="44.88539" lon="3.89702">
        <ele>990.316</ele>
        <time>2012-05-19T12:40:58Z</time>
      </trkpt>
      <trkpt lat="44.88534" lon="3.89684">
        <ele>989.749</ele>
        <time>2012-05-19T12:41:08Z</time>
      </trkpt>
      <trkpt lat="44.88533" lon="3.8968">
        <ele>990.983</ele>
        <time>2012-05-19T12:41:10Z</time>
      </trkpt>
      <trkpt lat="44.88532" lon="3.89677">
        <ele>989.306</ele>
        <time>2012-05-19T12:41:12Z</time>
      </trkpt>
      <trkpt lat="44.88531" lon="3.8967">
        <ele>989.801</ele>
        <time>2012-05-19T12:41:16Z</time>
      </trkpt>
      <trkpt lat="44.8853" lon="3.89664">
        <ele>991.364</ele>
        <time>2012-05-19T12:41:19Z</time>
      </trkpt>
      <trkpt lat="44.8853" lon="3.8966">
        <ele>989.113</ele>
        <time>2012-05-19T12:41:21Z</time>
      </trkpt>
      <trkpt lat="44.88527" lon="3.89645">
        <ele>988.839</ele>
        <time>2012-05-19T12:41:29Z</time>
      </trkpt>
      <trkpt lat="44.88524" lon="3.89613">
        <ele>991.57</ele>
        <time>2012-05-19T12:41:44Z</time>
      </trkpt>
      <trkpt lat="44.88527" lon="3.89573">
        <ele>991.355</ele>
        <time>2012-05-19T12:42:05Z</time>
      </trkpt>
      <trkpt lat="44.8853" lon="3.89556">
        <ele>992.804</ele>
        <time>2012-05-19T12:42:15Z</time>
      </trkpt>
      <trkpt lat="44.88531" lon="3.89551">
        <ele>991.525</ele>
        <time>2012-05-19T12:42:18Z</time>
      </trkpt>
      <trkpt lat="44.88528" lon="3.8951">
        <ele>988.988</ele>
        <time>2012-05-19T12:42:43Z</time>
      </trkpt>
      <trkpt lat="44.88518" lon="3.89483">
        <ele>990.108</ele>
        <time>2012-05-19T12:43:00Z</time>
      </trkpt>
      <trkpt lat="44.88512" lon="3.89468">
        <ele>990.345</ele>
        <time>2012-05-19T12:43:10Z</time>
      </trkpt>
      <trkpt lat="44.88503" lon="3.89442">
        <ele>990.247</ele>
        <time>2012-05-19T12:43:27Z</time>
      </trkpt>
      <trkpt lat="44.885" lon="3.89438">
        <ele>991.455</ele>
        <time>2012-05-19T12:43:32Z</time>
      </trkpt>
      <trkpt lat="44.88498" lon="3.89432">
        <ele>989.646</ele>
        <time>2012-05-19T12:43:36Z</time>
      </trkpt>
      <trkpt lat="44.88497" lon="3.89428">
        <ele>990.872</ele>
        <time>2012-05-19T12:43:38Z</time>
      </trkpt>
      <trkpt lat="44.88489" lon="3.894">
        <ele>989.173</ele>
        <time>2012-05-19T12:43:55Z</time>
      </trkpt>
      <trkpt lat="44.88479" lon="3.8936">
        <ele>989.45</ele>
        <time>2012-05-19T12:44:20Z</time>
      </trkpt>
      <trkpt lat="44.8847" lon="3.89339">
        <ele>989.98</ele>
        <time>2012-05-19T12:44:35Z</time>
      </trkpt>
      <trkpt lat="44.88467" lon="3.89334">
        <ele>988.331</ele>
        <time>2012-05-19T12:44:39Z</time>
      </trkpt>
      <trkpt lat="44.88465" lon="3.89331">
        <ele>987.911</ele>
        <time>2012-05-19T12:44:42Z</time>
      </trkpt>
      <trkpt lat="44.8846" lon="3.89322">
        <ele>989.331</ele>
        <time>2012-05-19T12:44:54Z</time>
      </trkpt>
      <trkpt lat="44.88459" lon="3.89318">
        <ele>987.72</ele>
        <time>2012-05-19T12:44:57Z</time>
      </trkpt>
      <trkpt lat="44.88445" lon="3.89294">
        <ele>989.195</ele>
        <time>2012-05-19T12:45:19Z</time>
      </trkpt>
      <trkpt lat="44.88435" lon="3.89278">
        <ele>987.827</ele>
        <time>2012-05-19T12:45:33Z</time>
      </trkpt>
      <trkpt lat="44.88415" lon="3.89256">
        <ele>987.563</ele>
        <time>2012-05-19T12:45:54Z</time>
      </trkpt>
      <trkpt lat="44.88398" lon="3.89235">
        <ele>986.969</ele>
        <time>2012-05-19T12:46:13Z</time>
      </trkpt>
      <trkpt lat="44.88375" lon="3.8921">
        <ele>984.971</ele>
        <time>2012-05-19T12:46:37Z</time>
      </trkpt>
      <trkpt lat="44.88366" lon="3.89203">
        <ele>982.202</ele>
        <time>2012-05-19T12:46:46Z</time>
      </trkpt>
      <trkpt lat="44.88361" lon="3.89199">
        <ele>981.881</ele>
        <time>2012-05-19T12:46:50Z</time>
      </trkpt>
      <trkpt lat="44.8836" lon="3.89196">
        <ele>980.298</ele>
        <time>2012-05-19T12:46:52Z</time>
      </trkpt>
      <trkpt lat="44.88359" lon="3.8919">
        <ele>981.01</ele>
        <time>2012-05-19T12:46:56Z</time>
      </trkpt>
      <trkpt lat="44.88353" lon="3.89176">
        <ele>980.165</ele>
        <time>2012-05-19T12:47:05Z</time>
      </trkpt>
      <trkpt lat="44.88346" lon="3.8916">
        <ele>976.056</ele>
        <time>2012-05-19T12:47:18Z</time>
      </trkpt>
      <trkpt lat="44.88317" lon="3.89137">
        <ele>972.969</ele>
        <time>2012-05-19T12:47:44Z</time>
      </trkpt>
      <trkpt lat="44.88307" lon="3.89123">
        <ele>972.514</ele>
        <time>2012-05-19T12:47:57Z</time>
      </trkpt>
      <trkpt lat="44.88306" lon="3.8912">
        <ele>972.056</ele>
        <time>2012-05-19T12:48:00Z</time>
      </trkpt>
      <trkpt lat="44.88305" lon="3.89117">
        <ele>971.651</ele>
        <time>2012-05-19T12:48:03Z</time>
      </trkpt>
      <trkpt lat="44.88289" lon="3.89092">
        <ele>970.906</ele>
        <time>2012-05-19T12:48:25Z</time>
      </trkpt>
      <trkpt lat="44.88285" lon="3.89074">
        <ele>969.752</ele>
        <time>2012-05-19T12:48:37Z</time>
      </trkpt>
      <trkpt lat="44.88284" lon="3.89039">
        <ele>966.3</ele>
        <time>2012-05-19T12:48:57Z</time>
      </trkpt>
      <trkpt lat="44.88287" lon="3.89015">
        <ele>965.355</ele>
        <time>2012-05-19T12:49:12Z</time>
      </trkpt>
      <trkpt lat="44.88289" lon="3.89009">
        <ele>965.377</ele>
        <time>2012-05-19T12:49:16Z</time>
      </trkpt>
      <trkpt lat="44.88291" lon="3.89008">
        <ele>964.998</ele>
        <time>2012-05-19T12:49:18Z</time>
      </trkpt>
      <trkpt lat="44.88294" lon="3.89006">
        <ele>964.847</ele>
        <time>2012-05-19T12:49:21Z</time>
      </trkpt>
      <trkpt lat="44.88309" lon="3.89001">
        <ele>965.014</ele>
        <time>2012-05-19T12:49:36Z</time>
      </trkpt>
      <trkpt lat="44.88312" lon="3.88999">
        <ele>965.354</ele>
        <time>2012-05-19T12:49:41Z</time>
      </trkpt>
      <trkpt lat="44.88331" lon="3.88997">
        <ele>966.646</ele>
        <time>2012-05-19T12:50:00Z</time>
      </trkpt>
      <trkpt lat="44.88352" lon="3.89001">
        <ele>967.295</ele>
        <time>2012-05-19T12:50:19Z</time>
      </trkpt>
      <trkpt lat="44.88363" lon="3.89005">
        <ele>970.049</ele>
        <time>2012-05-19T12:50:31Z</time>
      </trkpt>
      <trkpt lat="44.88365" lon="3.89005">
        <ele>969.602</ele>
        <time>2012-05-19T12:50:33Z</time>
      </trkpt>
      <trkpt lat="44.8837" lon="3.89006">
        <ele>968.401</ele>
        <time>2012-05-19T12:50:52Z</time>
      </trkpt>
      <trkpt lat="44.88375" lon="3.89002">
        <ele>969.596</ele>
        <time>2012-05-19T12:51:06Z</time>
      </trkpt>
      <trkpt lat="44.88377" lon="3.89001">
        <ele>971.24</ele>
        <time>2012-05-19T12:51:44Z</time>
      </trkpt>
      <trkpt lat="44.88389" lon="3.89002">
        <ele>972.856</ele>
        <time>2012-05-19T12:51:58Z</time>
      </trkpt>
      <trkpt lat="44.88394" lon="3.89001">
        <ele>974.338</ele>
        <time>2012-05-19T12:52:55Z</time>
      </trkpt>
      <trkpt lat="44.88385" lon="3.88992">
        <ele>975.658</ele>
        <time>2012-05-19T12:53:12Z</time>
      </trkpt>
      <trkpt lat="44.88376" lon="3.88981">
        <ele>980.252</ele>
        <time>2012-05-19T12:53:28Z</time>
      </trkpt>
      <trkpt lat="44.88364" lon="3.88964">
        <ele>981.598</ele>
        <time>2012-05-19T12:53:52Z</time>
      </trkpt>
      <trkpt lat="44.88366" lon="3.8896">
        <ele>981.848</ele>
        <time>2012-05-19T12:54:10Z</time>
      </trkpt>
      <trkpt lat="44.88363" lon="3.88956">
        <ele>984.761</ele>
        <time>2012-05-19T12:54:19Z</time>
      </trkpt>
      <trkpt lat="44.88361" lon="3.8895">
        <ele>983.604</ele>
        <time>2012-05-19T12:54:25Z</time>
      </trkpt>
      <trkpt lat="44.88361" lon="3.88942">
        <ele>984.715</ele>
        <time>2012-05-19T12:54:32Z</time>
      </trkpt>
      <trkpt lat="44.88373" lon="3.88931">
        <ele>989.137</ele>
        <time>2012-05-19T12:54:55Z</time>
      </trkpt>
      <trkpt lat="44.88374" lon="3.8893">
        <ele>989.542</ele>
        <time>2012-05-19T12:54:57Z</time>
      </trkpt>
      <trkpt lat="44.88385" lon="3.88915">
        <ele>989.368</ele>
        <time>2012-05-19T12:55:16Z</time>
      </trkpt>
      <trkpt lat="44.88392" lon="3.88897">
        <ele>992.462</ele>
        <time>2012-05-19T12:55:34Z</time>
      </trkpt>
      <trkpt lat="44.88393" lon="3.88891">
        <ele>994.644</ele>
        <time>2012-05-19T12:55:39Z</time>
      </trkpt>
      <trkpt lat="44.88395" lon="3.88874">
        <ele>995.659</ele>
        <time>2012-05-19T12:55:54Z</time>
      </trkpt>
      <trkpt lat="44.88395" lon="3.88867">
        <ele>997.41</ele>
        <time>2012-05-19T12:56:00Z</time>
      </trkpt>
      <trkpt lat="44.88395" lon="3.88865">
        <ele>998.643</ele>
        <time>2012-05-19T12:56:02Z</time>
      </trkpt>
      <trkpt lat="44.88406" lon="3.88838">
        <ele>998.315</ele>
        <time>2012-05-19T12:56:27Z</time>
      </trkpt>
      <trkpt lat="44.88408" lon="3.88835">
        <ele>999.451</ele>
        <time>2012-05-19T12:56:30Z</time>
      </trkpt>
      <trkpt lat="44.88418" lon="3.88816">
        <ele>1000.201</ele>
        <time>2012-05-19T12:56:48Z</time>
      </trkpt>
      <trkpt lat="44.88422" lon="3.88812">
        <ele>1001.791</ele>
        <time>2012-05-19T12:56:53Z</time>
      </trkpt>
      <trkpt lat="44.88426" lon="3.88806">
        <ele>1001.74</ele>
        <time>2012-05-19T12:56:59Z</time>
      </trkpt>
      <trkpt lat="44.88431" lon="3.88798">
        <ele>1003.781</ele>
        <time>2012-05-19T12:57:06Z</time>
      </trkpt>
      <trkpt lat="44.88436" lon="3.88791">
        <ele>1003.862</ele>
        <time>2012-05-19T12:57:12Z</time>
      </trkpt>
      <trkpt lat="44.88449" lon="3.88768">
        <ele>1002.439</ele>
        <time>2012-05-19T12:57:32Z</time>
      </trkpt>
      <trkpt lat="44.88459" lon="3.8875">
        <ele>1004.825</ele>
        <time>2012-05-19T12:57:48Z</time>
      </trkpt>
      <trkpt lat="44.88472" lon="3.88718">
        <ele>1006.259</ele>
        <time>2012-05-19T12:58:11Z</time>
      </trkpt>
      <trkpt lat="44.88488" lon="3.88683">
        <ele>1006.286</ele>
        <time>2012-05-19T12:58:34Z</time>
      </trkpt>
      <trkpt lat="44.88505" lon="3.88641">
        <ele>1007.687</ele>
        <time>2012-05-19T12:58:59Z</time>
      </trkpt>
      <trkpt lat="44.88506" lon="3.88637">
        <ele>1006.444</ele>
        <time>2012-05-19T12:59:01Z</time>
      </trkpt>
      <trkpt lat="44.88508" lon="3.88602">
        <ele>1006.867</ele>
        <time>2012-05-19T12:59:21Z</time>
      </trkpt>
      <trkpt lat="44.88518" lon="3.88573">
        <ele>1007.937</ele>
        <time>2012-05-19T12:59:43Z</time>
      </trkpt>
      <trkpt lat="44.88532" lon="3.88564">
        <ele>1009.6</ele>
        <time>2012-05-19T12:59:56Z</time>
      </trkpt>
      <trkpt lat="44.88542" lon="3.8855">
        <ele>1012.339</ele>
        <time>2012-05-19T13:00:05Z</time>
      </trkpt>
      <trkpt lat="44.88543" lon="3.88547">
        <ele>1013.595</ele>
        <time>2012-05-19T13:00:07Z</time>
      </trkpt>
      <trkpt lat="44.88546" lon="3.8854">
        <ele>1011.168</ele>
        <time>2012-05-19T13:00:11Z</time>
      </trkpt>
      <trkpt lat="44.88549" lon="3.88524">
        <ele>1012.536</ele>
        <time>2012-05-19T13:00:20Z</time>
      </trkpt>
      <trkpt lat="44.88559" lon="3.88473">
        <ele>1011.44</ele>
        <time>2012-05-19T13:00:48Z</time>
      </trkpt>
      <trkpt lat="44.88572" lon="3.88428">
        <ele>1012.001</ele>
        <time>2012-05-19T13:01:14Z</time>
      </trkpt>
      <trkpt lat="44.88576" lon="3.8839">
        <ele>1012.957</ele>
        <time>2012-05-19T13:01:36Z</time>
      </trkpt>
      <trkpt lat="44.88577" lon="3.88387">
        <ele>1013.84</ele>
        <time>2012-05-19T13:01:42Z</time>
      </trkpt>
      <trkpt lat="44.88583" lon="3.88387">
        <ele>1012.55</ele>
        <time>2012-05-19T13:01:47Z</time>
      </trkpt>
      <trkpt lat="44.88614" lon="3.88385">
        <ele>1012.945</ele>
        <time>2012-05-19T13:02:12Z</time>
      </trkpt>
      <trkpt lat="44.88647" lon="3.88377">
        <ele>1012.825</ele>
        <time>2012-05-19T13:02:39Z</time>
      </trkpt>
      <trkpt lat="44.88673" lon="3.88358">
        <ele>1014.241</ele>
        <time>2012-05-19T13:03:03Z</time>
      </trkpt>
      <trkpt lat="44.88672" lon="3.88321">
        <ele>1014.328</ele>
        <time>2012-05-19T13:03:25Z</time>
      </trkpt>
      <trkpt lat="44.88671" lon="3.88316">
        <ele>1014.966</ele>
        <time>2012-05-19T13:03:28Z</time>
      </trkpt>
      <trkpt lat="44.88673" lon="3.88309">
        <ele>1014.651</ele>
        <time>2012-05-19T13:03:34Z</time>
      </trkpt>
      <trkpt lat="44.8867" lon="3.88303">
        <ele>1015.703</ele>
        <time>2012-05-19T13:03:38Z</time>
      </trkpt>
      <trkpt lat="44.88671" lon="3.8827">
        <ele>1017.351</ele>
        <time>2012-05-19T13:03:58Z</time>
      </trkpt>
      <trkpt lat="44.88683" lon="3.88246">
        <ele>1017.553</ele>
        <time>2012-05-19T13:04:17Z</time>
      </trkpt>
      <trkpt lat="44.88708" lon="3.88241">
        <ele>1017.769</ele>
        <time>2012-05-19T13:04:38Z</time>
      </trkpt>
      <trkpt lat="44.88726" lon="3.8824">
        <ele>1018.666</ele>
        <time>2012-05-19T13:04:54Z</time>
      </trkpt>
      <trkpt lat="44.88744" lon="3.88234">
        <ele>1020.22</ele>
        <time>2012-05-19T13:05:12Z</time>
      </trkpt>
      <trkpt lat="44.88748" lon="3.88221">
        <ele>1020.153</ele>
        <time>2012-05-19T13:05:20Z</time>
      </trkpt>
      <trkpt lat="44.88749" lon="3.88218">
        <ele>1020.439</ele>
        <time>2012-05-19T13:05:22Z</time>
      </trkpt>
      <trkpt lat="44.88752" lon="3.88196">
        <ele>1024.091</ele>
        <time>2012-05-19T13:05:37Z</time>
      </trkpt>
      <trkpt lat="44.88755" lon="3.8816">
        <ele>1023.216</ele>
        <time>2012-05-19T13:06:01Z</time>
      </trkpt>
      <trkpt lat="44.88755" lon="3.88137">
        <ele>1024.729</ele>
        <time>2012-05-19T13:06:16Z</time>
      </trkpt>
      <trkpt lat="44.88756" lon="3.88133">
        <ele>1024.819</ele>
        <time>2012-05-19T13:06:19Z</time>
      </trkpt>
      <trkpt lat="44.88764" lon="3.88119">
        <ele>1025.411</ele>
        <time>2012-05-19T13:06:33Z</time>
      </trkpt>
      <trkpt lat="44.88759" lon="3.88117">
        <ele>1025.865</ele>
        <time>2012-05-19T13:06:58Z</time>
      </trkpt>
      <trkpt lat="44.88752" lon="3.88116">
        <ele>1025.752</ele>
        <time>2012-05-19T13:07:06Z</time>
      </trkpt>
      <trkpt lat="44.8874" lon="3.88103">
        <ele>1026.416</ele>
        <time>2012-05-19T13:07:20Z</time>
      </trkpt>
      <trkpt lat="44.88739" lon="3.88098">
        <ele>1025.413</ele>
        <time>2012-05-19T13:07:24Z</time>
      </trkpt>
      <trkpt lat="44.88735" lon="3.88093">
        <ele>1026.004</ele>
        <time>2012-05-19T13:07:29Z</time>
      </trkpt>
      <trkpt lat="44.88728" lon="3.88084">
        <ele>1027.338</ele>
        <time>2012-05-19T13:07:39Z</time>
      </trkpt>
      <trkpt lat="44.8872" lon="3.88077">
        <ele>1026.879</ele>
        <time>2012-05-19T13:07:47Z</time>
      </trkpt>
      <trkpt lat="44.88694" lon="3.88061">
        <ele>1027.419</ele>
        <time>2012-05-19T13:08:11Z</time>
      </trkpt>
      <trkpt lat="44.88688" lon="3.88061">
        <ele>1028.496</ele>
        <time>2012-05-19T13:08:17Z</time>
      </trkpt>
      <trkpt lat="44.8868" lon="3.88061">
        <ele>1028.465</ele>
        <time>2012-05-19T13:08:25Z</time>
      </trkpt>
      <trkpt lat="44.88676" lon="3.8806">
        <ele>1027.712</ele>
        <time>2012-05-19T13:08:28Z</time>
      </trkpt>
      <trkpt lat="44.8866" lon="3.88059">
        <ele>1027.251</ele>
        <time>2012-05-19T13:08:40Z</time>
      </trkpt>
      <trkpt lat="44.88641" lon="3.88048">
        <ele>1028.612</ele>
        <time>2012-05-19T13:08:57Z</time>
      </trkpt>
      <trkpt lat="44.88623" lon="3.88031">
        <ele>1029.339</ele>
        <time>2012-05-19T13:09:15Z</time>
      </trkpt>
      <trkpt lat="44.88621" lon="3.88027">
        <ele>1028.892</ele>
        <time>2012-05-19T13:09:18Z</time>
      </trkpt>
      <trkpt lat="44.88596" lon="3.88016">
        <ele>1027.561</ele>
        <time>2012-05-19T13:09:41Z</time>
      </trkpt>
      <trkpt lat="44.88575" lon="3.88005">
        <ele>1026.878</ele>
        <time>2012-05-19T13:10:01Z</time>
      </trkpt>
      <trkpt lat="44.88575" lon="3.87978">
        <ele>1027.641</ele>
        <time>2012-05-19T13:10:22Z</time>
      </trkpt>
      <trkpt lat="44.88577" lon="3.87953">
        <ele>1029.737</ele>
        <time>2012-05-19T13:10:38Z</time>
      </trkpt>
      <trkpt lat="44.88576" lon="3.87935">
        <ele>1030.861</ele>
        <time>2012-05-19T13:10:50Z</time>
      </trkpt>
      <trkpt lat="44.88576" lon="3.87897">
        <ele>1030.685</ele>
        <time>2012-05-19T13:11:15Z</time>
      </trkpt>
      <trkpt lat="44.88574" lon="3.87863">
        <ele>1031.34</ele>
        <time>2012-05-19T13:11:37Z</time>
      </trkpt>
      <trkpt lat="44.88572" lon="3.87841">
        <ele>1032.334</ele>
        <time>2012-05-19T13:11:51Z</time>
      </trkpt>
      <trkpt lat="44.8857" lon="3.87827">
        <ele>1032.189</ele>
        <time>2012-05-19T13:12:00Z</time>
      </trkpt>
      <trkpt lat="44.88566" lon="3.87788">
        <ele>1031.821</ele>
        <time>2012-05-19T13:12:25Z</time>
      </trkpt>
      <trkpt lat="44.88566" lon="3.87783">
        <ele>1033.356</ele>
        <time>2012-05-19T13:12:29Z</time>
      </trkpt>
      <trkpt lat="44.88564" lon="3.87745">
        <ele>1034.88</ele>
        <time>2012-05-19T13:12:55Z</time>
      </trkpt>
      <trkpt lat="44.88563" lon="3.87707">
        <ele>1037.799</ele>
        <time>2012-05-19T13:13:21Z</time>
      </trkpt>
      <trkpt lat="44.8857" lon="3.8768">
        <ele>1039.209</ele>
        <time>2012-05-19T13:13:43Z</time>
      </trkpt>
      <trkpt lat="44.88568" lon="3.87669">
        <ele>1039.423</ele>
        <time>2012-05-19T13:13:54Z</time>
      </trkpt>
      <trkpt lat="44.88565" lon="3.87666">
        <ele>1040.151</ele>
        <time>2012-05-19T13:14:00Z</time>
      </trkpt>
      <trkpt lat="44.88563" lon="3.87661">
        <ele>1039.277</ele>
        <time>2012-05-19T13:14:06Z</time>
      </trkpt>
      <trkpt lat="44.88561" lon="3.87658">
        <ele>1039.479</ele>
        <time>2012-05-19T13:14:10Z</time>
      </trkpt>
      <trkpt lat="44.88549" lon="3.87638">
        <ele>1040.741</ele>
        <time>2012-05-19T13:14:29Z</time>
      </trkpt>
      <trkpt lat="44.88547" lon="3.87635">
        <ele>1042.601</ele>
        <time>2012-05-19T13:14:32Z</time>
      </trkpt>
      <trkpt lat="44.88545" lon="3.87633">
        <ele>1040.224</ele>
        <time>2012-05-19T13:14:34Z</time>
      </trkpt>
      <trkpt lat="44.88527" lon="3.87608">
        <ele>1041.407</ele>
        <time>2012-05-19T13:14:57Z</time>
      </trkpt>
      <trkpt lat="44.88518" lon="3.87581">
        <ele>1043.325</ele>
        <time>2012-05-19T13:15:16Z</time>
      </trkpt>
      <trkpt lat="44.88512" lon="3.87571">
        <ele>1041.253</ele>
        <time>2012-05-19T13:15:24Z</time>
      </trkpt>
      <trkpt lat="44.88498" lon="3.87567">
        <ele>1044.496</ele>
        <time>2012-05-19T13:15:36Z</time>
      </trkpt>
      <trkpt lat="44.8848" lon="3.87571">
        <ele>1042.997</ele>
        <time>2012-05-19T13:15:52Z</time>
      </trkpt>
      <trkpt lat="44.88456" lon="3.87573">
        <ele>1045.871</ele>
        <time>2012-05-19T13:16:13Z</time>
      </trkpt>
      <trkpt lat="44.88453" lon="3.87574">
        <ele>1044.161</ele>
        <time>2012-05-19T13:16:16Z</time>
      </trkpt>
      <trkpt lat="44.88448" lon="3.8757">
        <ele>1044.855</ele>
        <time>2012-05-19T13:16:21Z</time>
      </trkpt>
      <trkpt lat="44.88447" lon="3.87569">
        <ele>1045.798</ele>
        <time>2012-05-19T13:16:24Z</time>
      </trkpt>
      <trkpt lat="44.88447" lon="3.87558">
        <ele>1044.61</ele>
        <time>2012-05-19T13:16:30Z</time>
      </trkpt>
      <trkpt lat="44.88447" lon="3.87552">
        <ele>1046.39</ele>
        <time>2012-05-19T13:16:34Z</time>
      </trkpt>
      <trkpt lat="44.88444" lon="3.87546">
        <ele>1044.169</ele>
        <time>2012-05-19T13:16:41Z</time>
      </trkpt>
      <trkpt lat="44.88443" lon="3.87535">
        <ele>1044.508</ele>
        <time>2012-05-19T13:16:55Z</time>
      </trkpt>
      <trkpt lat="44.88444" lon="3.87514">
        <ele>1043.885</ele>
        <time>2012-05-19T13:17:06Z</time>
      </trkpt>
      <trkpt lat="44.88441" lon="3.87476">
        <ele>1045.909</ele>
        <time>2012-05-19T13:17:29Z</time>
      </trkpt>
      <trkpt lat="44.88434" lon="3.87455">
        <ele>1044.664</ele>
        <time>2012-05-19T13:17:43Z</time>
      </trkpt>
      <trkpt lat="44.88432" lon="3.87453">
        <ele>1045.908</ele>
        <time>2012-05-19T13:17:45Z</time>
      </trkpt>
      <trkpt lat="44.88419" lon="3.87424">
        <ele>1045.736</ele>
        <time>2012-05-19T13:18:06Z</time>
      </trkpt>
      <trkpt lat="44.88415" lon="3.87406">
        <ele>1047.26</ele>
        <time>2012-05-19T13:18:17Z</time>
      </trkpt>
      <trkpt lat="44.88418" lon="3.87366">
        <ele>1045.845</ele>
        <time>2012-05-19T13:18:41Z</time>
      </trkpt>
      <trkpt lat="44.8842" lon="3.8735">
        <ele>1046.982</ele>
        <time>2012-05-19T13:18:51Z</time>
      </trkpt>
      <trkpt lat="44.88425" lon="3.87309">
        <ele>1045.798</ele>
        <time>2012-05-19T13:19:16Z</time>
      </trkpt>
      <trkpt lat="44.88428" lon="3.87274">
        <ele>1045.654</ele>
        <time>2012-05-19T13:19:37Z</time>
      </trkpt>
      <trkpt lat="44.88433" lon="3.8723">
        <ele>1044.935</ele>
        <time>2012-05-19T13:20:03Z</time>
      </trkpt>
      <trkpt lat="44.8844" lon="3.87189">
        <ele>1046.257</ele>
        <time>2012-05-19T13:20:28Z</time>
      </trkpt>
      <trkpt lat="44.8844" lon="3.87185">
        <ele>1044.711</ele>
        <time>2012-05-19T13:20:30Z</time>
      </trkpt>
      <trkpt lat="44.8845" lon="3.87145">
        <ele>1044.8</ele>
        <time>2012-05-19T13:20:55Z</time>
      </trkpt>
      <trkpt lat="44.88455" lon="3.87105">
        <ele>1044.311</ele>
        <time>2012-05-19T13:21:20Z</time>
      </trkpt>
      <trkpt lat="44.88449" lon="3.87061">
        <ele>1043.248</ele>
        <time>2012-05-19T13:21:46Z</time>
      </trkpt>
      <trkpt lat="44.88441" lon="3.87022">
        <ele>1045.178</ele>
        <time>2012-05-19T13:22:11Z</time>
      </trkpt>
      <trkpt lat="44.88435" lon="3.86972">
        <ele>1045.941</ele>
        <time>2012-05-19T13:22:42Z</time>
      </trkpt>
      <trkpt lat="44.88433" lon="3.86932">
        <ele>1048.503</ele>
        <time>2012-05-19T13:23:06Z</time>
      </trkpt>
      <trkpt lat="44.88429" lon="3.8689">
        <ele>1047.128</ele>
        <time>2012-05-19T13:23:31Z</time>
      </trkpt>
      <trkpt lat="44.88428" lon="3.86882">
        <ele>1049.003</ele>
        <time>2012-05-19T13:23:36Z</time>
      </trkpt>
      <trkpt lat="44.88427" lon="3.86875">
        <ele>1047.694</ele>
        <time>2012-05-19T13:23:40Z</time>
      </trkpt>
      <trkpt lat="44.88423" lon="3.8684">
        <ele>1047.98</ele>
        <time>2012-05-19T13:24:02Z</time>
      </trkpt>
      <trkpt lat="44.88421" lon="3.86829">
        <ele>1048.983</ele>
        <time>2012-05-19T13:24:09Z</time>
      </trkpt>
      <trkpt lat="44.88417" lon="3.86808">
        <ele>1049.461</ele>
        <time>2012-05-19T13:24:22Z</time>
      </trkpt>
      <trkpt lat="44.88413" lon="3.86764">
        <ele>1052.353</ele>
        <time>2012-05-19T13:24:49Z</time>
      </trkpt>
      <trkpt lat="44.88412" lon="3.86746">
        <ele>1052.2</ele>
        <time>2012-05-19T13:25:00Z</time>
      </trkpt>
      <trkpt lat="44.8841" lon="3.86704">
        <ele>1052.315</ele>
        <time>2012-05-19T13:25:25Z</time>
      </trkpt>
      <trkpt lat="44.88403" lon="3.86654">
        <ele>1052.872</ele>
        <time>2012-05-19T13:25:55Z</time>
      </trkpt>
      <trkpt lat="44.88398" lon="3.86626">
        <ele>1054.56</ele>
        <time>2012-05-19T13:26:12Z</time>
      </trkpt>
      <trkpt lat="44.88395" lon="3.86599">
        <ele>1054.569</ele>
        <time>2012-05-19T13:26:28Z</time>
      </trkpt>
      <trkpt lat="44.8839" lon="3.86556">
        <ele>1054.601</ele>
        <time>2012-05-19T13:26:54Z</time>
      </trkpt>
      <trkpt lat="44.88387" lon="3.86544">
        <ele>1056.73</ele>
        <time>2012-05-19T13:27:02Z</time>
      </trkpt>
      <trkpt lat="44.88386" lon="3.86539">
        <ele>1055.841</ele>
        <time>2012-05-19T13:27:05Z</time>
      </trkpt>
      <trkpt lat="44.8838" lon="3.86515">
        <ele>1056.607</ele>
        <time>2012-05-19T13:27:23Z</time>
      </trkpt>
      <trkpt lat="44.88381" lon="3.86504">
        <ele>1058.554</ele>
        <time>2012-05-19T13:27:41Z</time>
      </trkpt>
      <trkpt lat="44.88378" lon="3.86461">
        <ele>1060.274</ele>
        <time>2012-05-19T13:28:08Z</time>
      </trkpt>
      <trkpt lat="44.88378" lon="3.86448">
        <ele>1057.98</ele>
        <time>2012-05-19T13:28:16Z</time>
      </trkpt>
      <trkpt lat="44.88373" lon="3.86412">
        <ele>1059.959</ele>
        <time>2012-05-19T13:28:37Z</time>
      </trkpt>
      <trkpt lat="44.88364" lon="3.86378">
        <ele>1060.694</ele>
        <time>2012-05-19T13:28:59Z</time>
      </trkpt>
      <trkpt lat="44.88362" lon="3.86376">
        <ele>1062.536</ele>
        <time>2012-05-19T13:29:02Z</time>
      </trkpt>
      <trkpt lat="44.88361" lon="3.86371">
        <ele>1060.271</ele>
        <time>2012-05-19T13:29:05Z</time>
      </trkpt>
      <trkpt lat="44.8835" lon="3.86331">
        <ele>1061.028</ele>
        <time>2012-05-19T13:29:28Z</time>
      </trkpt>
      <trkpt lat="44.88341" lon="3.86302">
        <ele>1061.646</ele>
        <time>2012-05-19T13:29:45Z</time>
      </trkpt>
      <trkpt lat="44.88335" lon="3.86287">
        <ele>1061.111</ele>
        <time>2012-05-19T13:29:55Z</time>
      </trkpt>
      <trkpt lat="44.88324" lon="3.86264">
        <ele>1064.424</ele>
        <time>2012-05-19T13:30:11Z</time>
      </trkpt>
      <trkpt lat="44.88303" lon="3.86236">
        <ele>1065.858</ele>
        <time>2012-05-19T13:30:35Z</time>
      </trkpt>
      <trkpt lat="44.88283" lon="3.86197">
        <ele>1067.092</ele>
        <time>2012-05-19T13:31:04Z</time>
      </trkpt>
      <trkpt lat="44.88268" lon="3.86168">
        <ele>1068.099</ele>
        <time>2012-05-19T13:31:27Z</time>
      </trkpt>
      <trkpt lat="44.88255" lon="3.86143">
        <ele>1068.554</ele>
        <time>2012-05-19T13:31:45Z</time>
      </trkpt>
      <trkpt lat="44.88248" lon="3.86109">
        <ele>1070.118</ele>
        <time>2012-05-19T13:32:07Z</time>
      </trkpt>
      <trkpt lat="44.88239" lon="3.86075">
        <ele>1069.65</ele>
        <time>2012-05-19T13:32:29Z</time>
      </trkpt>
      <trkpt lat="44.88228" lon="3.86052">
        <ele>1071.337</ele>
        <time>2012-05-19T13:32:46Z</time>
      </trkpt>
      <trkpt lat="44.88225" lon="3.86043">
        <ele>1071.171</ele>
        <time>2012-05-19T13:32:52Z</time>
      </trkpt>
      <trkpt lat="44.88216" lon="3.86013">
        <ele>1069.345</ele>
        <time>2012-05-19T13:33:13Z</time>
      </trkpt>
      <trkpt lat="44.88215" lon="3.8601">
        <ele>1071.456</ele>
        <time>2012-05-19T13:33:15Z</time>
      </trkpt>
      <trkpt lat="44.88214" lon="3.86005">
        <ele>1072.936</ele>
        <time>2012-05-19T13:33:19Z</time>
      </trkpt>
      <trkpt lat="44.88209" lon="3.8598">
        <ele>1072.317</ele>
        <time>2012-05-19T13:33:34Z</time>
      </trkpt>
      <trkpt lat="44.88205" lon="3.85969">
        <ele>1073.898</ele>
        <time>2012-05-19T13:33:41Z</time>
      </trkpt>
      <trkpt lat="44.88203" lon="3.85958">
        <ele>1074.806</ele>
        <time>2012-05-19T13:33:49Z</time>
      </trkpt>
      <trkpt lat="44.88202" lon="3.85953">
        <ele>1073.881</ele>
        <time>2012-05-19T13:33:52Z</time>
      </trkpt>
      <trkpt lat="44.88199" lon="3.85949">
        <ele>1072.608</ele>
        <time>2012-05-19T13:33:55Z</time>
      </trkpt>
      <trkpt lat="44.88197" lon="3.85941">
        <ele>1074.286</ele>
        <time>2012-05-19T13:34:00Z</time>
      </trkpt>
      <trkpt lat="44.88196" lon="3.85934">
        <ele>1075.441</ele>
        <time>2012-05-19T13:34:04Z</time>
      </trkpt>
      <trkpt lat="44.88191" lon="3.85899">
        <ele>1076.45</ele>
        <time>2012-05-19T13:34:26Z</time>
      </trkpt>
      <trkpt lat="44.8819" lon="3.85891">
        <ele>1074.783</ele>
        <time>2012-05-19T13:34:31Z</time>
      </trkpt>
      <trkpt lat="44.88183" lon="3.85859">
        <ele>1077.88</ele>
        <time>2012-05-19T13:34:51Z</time>
      </trkpt>
      <trkpt lat="44.88175" lon="3.85809">
        <ele>1078.394</ele>
        <time>2012-05-19T13:35:21Z</time>
      </trkpt>
      <trkpt lat="44.88172" lon="3.85777">
        <ele>1080.033</ele>
        <time>2012-05-19T13:35:42Z</time>
      </trkpt>
      <trkpt lat="44.88166" lon="3.85745">
        <ele>1080.794</ele>
        <time>2012-05-19T13:36:02Z</time>
      </trkpt>
      <trkpt lat="44.88161" lon="3.85706">
        <ele>1081.283</ele>
        <time>2012-05-19T13:36:28Z</time>
      </trkpt>
      <trkpt lat="44.88153" lon="3.85671">
        <ele>1083.013</ele>
        <time>2012-05-19T13:36:51Z</time>
      </trkpt>
      <trkpt lat="44.88151" lon="3.85662">
        <ele>1081.869</ele>
        <time>2012-05-19T13:36:57Z</time>
      </trkpt>
      <trkpt lat="44.88151" lon="3.85659">
        <ele>1083.855</ele>
        <time>2012-05-19T13:36:59Z</time>
      </trkpt>
      <trkpt lat="44.88144" lon="3.85631">
        <ele>1086.559</ele>
        <time>2012-05-19T13:37:18Z</time>
      </trkpt>
      <trkpt lat="44.88137" lon="3.85595">
        <ele>1088.397</ele>
        <time>2012-05-19T13:37:41Z</time>
      </trkpt>
      <trkpt lat="44.88132" lon="3.85577">
        <ele>1087.967</ele>
        <time>2012-05-19T13:37:54Z</time>
      </trkpt>
      <trkpt lat="44.88123" lon="3.85545">
        <ele>1089.695</ele>
        <time>2012-05-19T13:38:15Z</time>
      </trkpt>
      <trkpt lat="44.88116" lon="3.85522">
        <ele>1088.988</ele>
        <time>2012-05-19T13:38:29Z</time>
      </trkpt>
      <trkpt lat="44.88105" lon="3.85486">
        <ele>1087.149</ele>
        <time>2012-05-19T13:38:53Z</time>
      </trkpt>
      <trkpt lat="44.88104" lon="3.85483">
        <ele>1085.795</ele>
        <time>2012-05-19T13:38:55Z</time>
      </trkpt>
      <trkpt lat="44.88093" lon="3.85454">
        <ele>1084.494</ele>
        <time>2012-05-19T13:39:14Z</time>
      </trkpt>
      <trkpt lat="44.88084" lon="3.85415">
        <ele>1082.994</ele>
        <time>2012-05-19T13:39:38Z</time>
      </trkpt>
      <trkpt lat="44.8808" lon="3.85368">
        <ele>1082.282</ele>
        <time>2012-05-19T13:40:06Z</time>
      </trkpt>
      <trkpt lat="44.88077" lon="3.8532">
        <ele>1082.891</ele>
        <time>2012-05-19T13:40:33Z</time>
      </trkpt>
      <trkpt lat="44.88077" lon="3.85311">
        <ele>1080.278</ele>
        <time>2012-05-19T13:40:38Z</time>
      </trkpt>
      <trkpt lat="44.88077" lon="3.8527">
        <ele>1080.038</ele>
        <time>2012-05-19T13:41:02Z</time>
      </trkpt>
      <trkpt lat="44.88074" lon="3.85238">
        <ele>1080.351</ele>
        <time>2012-05-19T13:41:21Z</time>
      </trkpt>
      <trkpt lat="44.8807" lon="3.8521">
        <ele>1078.584</ele>
        <time>2012-05-19T13:41:37Z</time>
      </trkpt>
      <trkpt lat="44.88069" lon="3.85206">
        <ele>1080.487</ele>
        <time>2012-05-19T13:41:39Z</time>
      </trkpt>
      <trkpt lat="44.88062" lon="3.85172">
        <ele>1080.053</ele>
        <time>2012-05-19T13:42:00Z</time>
      </trkpt>
      <trkpt lat="44.88056" lon="3.8513">
        <ele>1080.586</ele>
        <time>2012-05-19T13:42:26Z</time>
      </trkpt>
      <trkpt lat="44.88054" lon="3.85102">
        <ele>1081.2</ele>
        <time>2012-05-19T13:42:43Z</time>
      </trkpt>
      <trkpt lat="44.88053" lon="3.85087">
        <ele>1083.656</ele>
        <time>2012-05-19T13:42:53Z</time>
      </trkpt>
      <trkpt lat="44.88046" lon="3.85058">
        <ele>1083.093</ele>
        <time>2012-05-19T13:43:12Z</time>
      </trkpt>
      <trkpt lat="44.88045" lon="3.85054">
        <ele>1085.312</ele>
        <time>2012-05-19T13:43:16Z</time>
      </trkpt>
      <trkpt lat="44.88039" lon="3.85033">
        <ele>1087.137</ele>
        <time>2012-05-19T13:43:31Z</time>
      </trkpt>
      <trkpt lat="44.88034" lon="3.85016">
        <ele>1088.592</ele>
        <time>2012-05-19T13:43:43Z</time>
      </trkpt>
      <trkpt lat="44.88032" lon="3.85011">
        <ele>1089.085</ele>
        <time>2012-05-19T13:43:47Z</time>
      </trkpt>
      <trkpt lat="44.88031" lon="3.85008">
        <ele>1089.286</ele>
        <time>2012-05-19T13:43:49Z</time>
      </trkpt>
      <trkpt lat="44.88023" lon="3.84995">
        <ele>1089.946</ele>
        <time>2012-05-19T13:44:01Z</time>
      </trkpt>
      <trkpt lat="44.8802" lon="3.84994">
        <ele>1089.83</ele>
        <time>2012-05-19T13:44:03Z</time>
      </trkpt>
      <trkpt lat="44.88013" lon="3.84978">
        <ele>1091.437</ele>
        <time>2012-05-19T13:48:12Z</time>
      </trkpt>
      <trkpt lat="44.88016" lon="3.84971">
        <ele>1090.172</ele>
        <time>2012-05-19T13:55:41Z</time>
      </trkpt>
      <trkpt lat="44.88013" lon="3.84971">
        <ele>1092.221</ele>
        <time>2012-05-19T13:55:43Z</time>
      </trkpt>
      <trkpt lat="44.8799" lon="3.84972">
        <ele>1092.519</ele>
        <time>2012-05-19T13:56:05Z</time>
      </trkpt>
      <trkpt lat="44.87986" lon="3.84973">
        <ele>1092.616</ele>
        <time>2012-05-19T13:56:09Z</time>
      </trkpt>
      <trkpt lat="44.87982" lon="3.84974">
        <ele>1092.184</ele>
        <time>2012-05-19T13:56:12Z</time>
      </trkpt>
      <trkpt lat="44.87971" lon="3.84973">
        <ele>1092.509</ele>
        <time>2012-05-19T13:56:21Z</time>
      </trkpt>
      <trkpt lat="44.87971" lon="3.84952">
        <ele>1092.205</ele>
        <time>2012-05-19T13:56:34Z</time>
      </trkpt>
      <trkpt lat="44.87971" lon="3.84946">
        <ele>1092.205</ele>
        <time>2012-05-19T13:56:38Z</time>
      </trkpt>
      <trkpt lat="44.87971" lon="3.84942">
        <ele>1092.824</ele>
        <time>2012-05-19T13:56:41Z</time>
      </trkpt>
      <trkpt lat="44.87969" lon="3.84935">
        <ele>1092.955</ele>
        <time>2012-05-19T13:56:46Z</time>
      </trkpt>
      <trkpt lat="44.87946" lon="3.84936">
        <ele>1093.283</ele>
        <time>2012-05-19T13:57:03Z</time>
      </trkpt>
      <trkpt lat="44.87942" lon="3.84936">
        <ele>1091.415</ele>
        <time>2012-05-19T13:57:08Z</time>
      </trkpt>
      <trkpt lat="44.87935" lon="3.84935">
        <ele>1091.499</ele>
        <time>2012-05-19T13:57:21Z</time>
      </trkpt>
      <trkpt lat="44.87928" lon="3.84946">
        <ele>1091.535</ele>
        <time>2012-05-19T13:57:35Z</time>
      </trkpt>
      <trkpt lat="44.87926" lon="3.84948">
        <ele>1091.525</ele>
        <time>2012-05-19T13:57:37Z</time>
      </trkpt>
      <trkpt lat="44.87916" lon="3.84949">
        <ele>1093.614</ele>
        <time>2012-05-19T13:57:45Z</time>
      </trkpt>
      <trkpt lat="44.87904" lon="3.84947">
        <ele>1090.613</ele>
        <time>2012-05-19T13:57:55Z</time>
      </trkpt>
      <trkpt lat="44.87894" lon="3.84945">
        <ele>1091.294</ele>
        <time>2012-05-19T13:58:05Z</time>
      </trkpt>
      <trkpt lat="44.87882" lon="3.84917">
        <ele>1090.042</ele>
        <time>2012-05-19T13:58:24Z</time>
      </trkpt>
      <trkpt lat="44.87869" lon="3.84901">
        <ele>1091.396</ele>
        <time>2012-05-19T13:58:39Z</time>
      </trkpt>
      <trkpt lat="44.87867" lon="3.84897">
        <ele>1089.922</ele>
        <time>2012-05-19T13:58:42Z</time>
      </trkpt>
      <trkpt lat="44.87864" lon="3.84892">
        <ele>1087.84</ele>
        <time>2012-05-19T13:58:46Z</time>
      </trkpt>
      <trkpt lat="44.87859" lon="3.84882">
        <ele>1087.652</ele>
        <time>2012-05-19T13:58:53Z</time>
      </trkpt>
      <trkpt lat="44.87858" lon="3.84879">
        <ele>1090.585</ele>
        <time>2012-05-19T13:58:55Z</time>
      </trkpt>
      <trkpt lat="44.87855" lon="3.84875">
        <ele>1091.329</ele>
        <time>2012-05-19T13:58:59Z</time>
      </trkpt>
      <trkpt lat="44.87854" lon="3.84872">
        <ele>1089.584</ele>
        <time>2012-05-19T13:59:01Z</time>
      </trkpt>
      <trkpt lat="44.87834" lon="3.84847">
        <ele>1089.484</ele>
        <time>2012-05-19T13:59:21Z</time>
      </trkpt>
      <trkpt lat="44.87825" lon="3.84817">
        <ele>1090.505</ele>
        <time>2012-05-19T13:59:40Z</time>
      </trkpt>
      <trkpt lat="44.87819" lon="3.84788">
        <ele>1090.927</ele>
        <time>2012-05-19T13:59:58Z</time>
      </trkpt>
      <trkpt lat="44.87813" lon="3.84752">
        <ele>1092.741</ele>
        <time>2012-05-19T14:00:20Z</time>
      </trkpt>
      <trkpt lat="44.87809" lon="3.84717">
        <ele>1093.172</ele>
        <time>2012-05-19T14:00:40Z</time>
      </trkpt>
      <trkpt lat="44.87813" lon="3.84702">
        <ele>1092.745</ele>
        <time>2012-05-19T14:00:49Z</time>
      </trkpt>
      <trkpt lat="44.87818" lon="3.84686">
        <ele>1093.832</ele>
        <time>2012-05-19T14:00:59Z</time>
      </trkpt>
      <trkpt lat="44.87818" lon="3.84679">
        <ele>1092.844</ele>
        <time>2012-05-19T14:01:04Z</time>
      </trkpt>
      <trkpt lat="44.87822" lon="3.84659">
        <ele>1093.198</ele>
        <time>2012-05-19T14:01:16Z</time>
      </trkpt>
      <trkpt lat="44.87831" lon="3.84619">
        <ele>1093.072</ele>
        <time>2012-05-19T14:01:40Z</time>
      </trkpt>
      <trkpt lat="44.87834" lon="3.84598">
        <ele>1093.417</ele>
        <time>2012-05-19T14:01:52Z</time>
      </trkpt>
      <trkpt lat="44.87834" lon="3.84595">
        <ele>1091.662</ele>
        <time>2012-05-19T14:01:54Z</time>
      </trkpt>
      <trkpt lat="44.87835" lon="3.84582">
        <ele>1094.492</ele>
        <time>2012-05-19T14:02:03Z</time>
      </trkpt>
      <trkpt lat="44.87836" lon="3.84578">
        <ele>1093.541</ele>
        <time>2012-05-19T14:02:06Z</time>
      </trkpt>
      <trkpt lat="44.87837" lon="3.84563">
        <ele>1093.774</ele>
        <time>2012-05-19T14:02:15Z</time>
      </trkpt>
      <trkpt lat="44.87837" lon="3.84556">
        <ele>1091.529</ele>
        <time>2012-05-19T14:02:19Z</time>
      </trkpt>
      <trkpt lat="44.87836" lon="3.84551">
        <ele>1094.075</ele>
        <time>2012-05-19T14:02:22Z</time>
      </trkpt>
      <trkpt lat="44.87835" lon="3.84547">
        <ele>1092.59</ele>
        <time>2012-05-19T14:02:24Z</time>
      </trkpt>
      <trkpt lat="44.87831" lon="3.84527">
        <ele>1093.221</ele>
        <time>2012-05-19T14:02:38Z</time>
      </trkpt>
      <trkpt lat="44.87823" lon="3.84486">
        <ele>1092.373</ele>
        <time>2012-05-19T14:03:04Z</time>
      </trkpt>
      <trkpt lat="44.87822" lon="3.84462">
        <ele>1093.859</ele>
        <time>2012-05-19T14:03:18Z</time>
      </trkpt>
      <trkpt lat="44.87821" lon="3.84454">
        <ele>1091.994</ele>
        <time>2012-05-19T14:03:22Z</time>
      </trkpt>
      <trkpt lat="44.87825" lon="3.84421">
        <ele>1094.819</ele>
        <time>2012-05-19T14:03:42Z</time>
      </trkpt>
      <trkpt lat="44.87828" lon="3.84402">
        <ele>1093.721</ele>
        <time>2012-05-19T14:03:54Z</time>
      </trkpt>
      <trkpt lat="44.87829" lon="3.84386">
        <ele>1095.993</ele>
        <time>2012-05-19T14:04:03Z</time>
      </trkpt>
      <trkpt lat="44.87828" lon="3.84379">
        <ele>1093.76</ele>
        <time>2012-05-19T14:04:07Z</time>
      </trkpt>
      <trkpt lat="44.87821" lon="3.84348">
        <ele>1093.026</ele>
        <time>2012-05-19T14:04:26Z</time>
      </trkpt>
      <trkpt lat="44.8782" lon="3.84345">
        <ele>1095.41</ele>
        <time>2012-05-19T14:04:28Z</time>
      </trkpt>
      <trkpt lat="44.87818" lon="3.84339">
        <ele>1092.807</ele>
        <time>2012-05-19T14:04:32Z</time>
      </trkpt>
      <trkpt lat="44.87814" lon="3.8432">
        <ele>1096.691</ele>
        <time>2012-05-19T14:04:45Z</time>
      </trkpt>
      <trkpt lat="44.87807" lon="3.84296">
        <ele>1096.45</ele>
        <time>2012-05-19T14:05:00Z</time>
      </trkpt>
      <trkpt lat="44.87807" lon="3.84293">
        <ele>1095.429</ele>
        <time>2012-05-19T14:05:03Z</time>
      </trkpt>
      <trkpt lat="44.87797" lon="3.84279">
        <ele>1096.46</ele>
        <time>2012-05-19T14:05:33Z</time>
      </trkpt>
      <trkpt lat="44.8779" lon="3.8425">
        <ele>1097.398</ele>
        <time>2012-05-19T14:05:50Z</time>
      </trkpt>
      <trkpt lat="44.8778" lon="3.84231">
        <ele>1097.159</ele>
        <time>2012-05-19T14:06:03Z</time>
      </trkpt>
      <trkpt lat="44.87772" lon="3.84197">
        <ele>1095.956</ele>
        <time>2012-05-19T14:06:23Z</time>
      </trkpt>
      <trkpt lat="44.87771" lon="3.84183">
        <ele>1096.399</ele>
        <time>2012-05-19T14:06:31Z</time>
      </trkpt>
      <trkpt lat="44.87771" lon="3.84156">
        <ele>1097.177</ele>
        <time>2012-05-19T14:06:47Z</time>
      </trkpt>
      <trkpt lat="44.87768" lon="3.84117">
        <ele>1098.014</ele>
        <time>2012-05-19T14:07:11Z</time>
      </trkpt>
      <trkpt lat="44.87779" lon="3.84084">
        <ele>1098.989</ele>
        <time>2012-05-19T14:07:32Z</time>
      </trkpt>
      <trkpt lat="44.87793" lon="3.8405">
        <ele>1100.845</ele>
        <time>2012-05-19T14:07:56Z</time>
      </trkpt>
      <trkpt lat="44.87794" lon="3.84046">
        <ele>1099.547</ele>
        <time>2012-05-19T14:07:59Z</time>
      </trkpt>
      <trkpt lat="44.87796" lon="3.84013">
        <ele>1102.269</ele>
        <time>2012-05-19T14:08:21Z</time>
      </trkpt>
      <trkpt lat="44.87796" lon="3.83995">
        <ele>1102.774</ele>
        <time>2012-05-19T14:08:36Z</time>
      </trkpt>
      <trkpt lat="44.8779" lon="3.83954">
        <ele>1102.762</ele>
        <time>2012-05-19T14:09:01Z</time>
      </trkpt>
      <trkpt lat="44.87788" lon="3.83949">
        <ele>1101.03</ele>
        <time>2012-05-19T14:09:04Z</time>
      </trkpt>
      <trkpt lat="44.87787" lon="3.83947">
        <ele>1102.478</ele>
        <time>2012-05-19T14:09:06Z</time>
      </trkpt>
      <trkpt lat="44.87785" lon="3.83944">
        <ele>1103.794</ele>
        <time>2012-05-19T14:09:08Z</time>
      </trkpt>
      <trkpt lat="44.87782" lon="3.83941">
        <ele>1102.242</ele>
        <time>2012-05-19T14:09:11Z</time>
      </trkpt>
      <trkpt lat="44.87752" lon="3.83929">
        <ele>1100.581</ele>
        <time>2012-05-19T14:09:35Z</time>
      </trkpt>
      <trkpt lat="44.87724" lon="3.83924">
        <ele>1104.572</ele>
        <time>2012-05-19T14:10:00Z</time>
      </trkpt>
      <trkpt lat="44.87702" lon="3.83909">
        <ele>1105.501</ele>
        <time>2012-05-19T14:10:23Z</time>
      </trkpt>
      <trkpt lat="44.87695" lon="3.83898">
        <ele>1108.609</ele>
        <time>2012-05-19T14:10:36Z</time>
      </trkpt>
      <trkpt lat="44.87684" lon="3.83869">
        <ele>1111.041</ele>
        <time>2012-05-19T14:10:56Z</time>
      </trkpt>
      <trkpt lat="44.87676" lon="3.83842">
        <ele>1111.406</ele>
        <time>2012-05-19T14:11:15Z</time>
      </trkpt>
      <trkpt lat="44.87675" lon="3.83839">
        <ele>1110.559</ele>
        <time>2012-05-19T14:11:19Z</time>
      </trkpt>
      <trkpt lat="44.87673" lon="3.83834">
        <ele>1109.696</ele>
        <time>2012-05-19T14:11:23Z</time>
      </trkpt>
      <trkpt lat="44.87661" lon="3.83801">
        <ele>1111.273</ele>
        <time>2012-05-19T14:11:45Z</time>
      </trkpt>
      <trkpt lat="44.87656" lon="3.83786">
        <ele>1110.715</ele>
        <time>2012-05-19T14:11:55Z</time>
      </trkpt>
      <trkpt lat="44.87655" lon="3.83784">
        <ele>1112.411</ele>
        <time>2012-05-19T14:11:57Z</time>
      </trkpt>
      <trkpt lat="44.87643" lon="3.83756">
        <ele>1114.947</ele>
        <time>2012-05-19T14:12:18Z</time>
      </trkpt>
      <trkpt lat="44.87629" lon="3.83718">
        <ele>1115.208</ele>
        <time>2012-05-19T14:12:45Z</time>
      </trkpt>
      <trkpt lat="44.87611" lon="3.83679">
        <ele>1113.611</ele>
        <time>2012-05-19T14:13:12Z</time>
      </trkpt>
      <trkpt lat="44.87605" lon="3.83669">
        <ele>1113.761</ele>
        <time>2012-05-19T14:13:19Z</time>
      </trkpt>
      <trkpt lat="44.87599" lon="3.83657">
        <ele>1113.974</ele>
        <time>2012-05-19T14:13:29Z</time>
      </trkpt>
      <trkpt lat="44.87591" lon="3.83644">
        <ele>1115.536</ele>
        <time>2012-05-19T14:13:38Z</time>
      </trkpt>
      <trkpt lat="44.87567" lon="3.83617">
        <ele>1114.977</ele>
        <time>2012-05-19T14:14:04Z</time>
      </trkpt>
      <trkpt lat="44.87559" lon="3.8361">
        <ele>1116.621</ele>
        <time>2012-05-19T14:14:12Z</time>
      </trkpt>
      <trkpt lat="44.87555" lon="3.83606">
        <ele>1114.422</ele>
        <time>2012-05-19T14:14:16Z</time>
      </trkpt>
      <trkpt lat="44.87544" lon="3.83596">
        <ele>1116.507</ele>
        <time>2012-05-19T14:14:29Z</time>
      </trkpt>
      <trkpt lat="44.87541" lon="3.83592">
        <ele>1114.389</ele>
        <time>2012-05-19T14:14:33Z</time>
      </trkpt>
      <trkpt lat="44.87519" lon="3.83567">
        <ele>1115.189</ele>
        <time>2012-05-19T14:14:56Z</time>
      </trkpt>
      <trkpt lat="44.87498" lon="3.83547">
        <ele>1115.624</ele>
        <time>2012-05-19T14:15:20Z</time>
      </trkpt>
      <trkpt lat="44.87473" lon="3.83526">
        <ele>1117.767</ele>
        <time>2012-05-19T14:15:46Z</time>
      </trkpt>
      <trkpt lat="44.87456" lon="3.83508">
        <ele>1117.258</ele>
        <time>2012-05-19T14:16:06Z</time>
      </trkpt>
      <trkpt lat="44.87455" lon="3.83503">
        <ele>1115.296</ele>
        <time>2012-05-19T14:16:10Z</time>
      </trkpt>
      <trkpt lat="44.87453" lon="3.8349">
        <ele>1117.819</ele>
        <time>2012-05-19T14:16:19Z</time>
      </trkpt>
      <trkpt lat="44.8746" lon="3.83463">
        <ele>1115.988</ele>
        <time>2012-05-19T14:16:39Z</time>
      </trkpt>
      <trkpt lat="44.87459" lon="3.83447">
        <ele>1116.72</ele>
        <time>2012-05-19T14:16:51Z</time>
      </trkpt>
      <trkpt lat="44.87455" lon="3.83447">
        <ele>1119.195</ele>
        <time>2012-05-19T14:16:55Z</time>
      </trkpt>
      <trkpt lat="44.87433" lon="3.83444">
        <ele>1119.58</ele>
        <time>2012-05-19T14:17:14Z</time>
      </trkpt>
      <trkpt lat="44.87403" lon="3.83441">
        <ele>1117.332</ele>
        <time>2012-05-19T14:17:40Z</time>
      </trkpt>
      <trkpt lat="44.87378" lon="3.83439">
        <ele>1118.367</ele>
        <time>2012-05-19T14:18:03Z</time>
      </trkpt>
      <trkpt lat="44.87375" lon="3.83438">
        <ele>1118.028</ele>
        <time>2012-05-19T14:18:06Z</time>
      </trkpt>
      <trkpt lat="44.87366" lon="3.83439">
        <ele>1115.938</ele>
        <time>2012-05-19T14:18:17Z</time>
      </trkpt>
      <trkpt lat="44.87358" lon="3.83438">
        <ele>1118.327</ele>
        <time>2012-05-19T14:18:25Z</time>
      </trkpt>
      <trkpt lat="44.87331" lon="3.83447">
        <ele>1118.069</ele>
        <time>2012-05-19T14:18:48Z</time>
      </trkpt>
      <trkpt lat="44.87301" lon="3.83453">
        <ele>1118.7</ele>
        <time>2012-05-19T14:19:14Z</time>
      </trkpt>
      <trkpt lat="44.87273" lon="3.83446">
        <ele>1121.137</ele>
        <time>2012-05-19T14:19:37Z</time>
      </trkpt>
      <trkpt lat="44.87254" lon="3.83442">
        <ele>1119.031</ele>
        <time>2012-05-19T14:19:54Z</time>
      </trkpt>
      <trkpt lat="44.87248" lon="3.83439">
        <ele>1119.557</ele>
        <time>2012-05-19T14:20:00Z</time>
      </trkpt>
      <trkpt lat="44.8723" lon="3.83434">
        <ele>1122.099</ele>
        <time>2012-05-19T14:20:15Z</time>
      </trkpt>
      <trkpt lat="44.87228" lon="3.83434">
        <ele>1120.876</ele>
        <time>2012-05-19T14:20:17Z</time>
      </trkpt>
      <trkpt lat="44.872" lon="3.83427">
        <ele>1120.567</ele>
        <time>2012-05-19T14:20:41Z</time>
      </trkpt>
      <trkpt lat="44.87188" lon="3.83425">
        <ele>1121.924</ele>
        <time>2012-05-19T14:20:51Z</time>
      </trkpt>
      <trkpt lat="44.87175" lon="3.83423">
        <ele>1122.434</ele>
        <time>2012-05-19T14:21:04Z</time>
      </trkpt>
      <trkpt lat="44.87171" lon="3.8342">
        <ele>1121.3</ele>
        <time>2012-05-19T14:21:20Z</time>
      </trkpt>
      <trkpt lat="44.87169" lon="3.83417">
        <ele>1119.933</ele>
        <time>2012-05-19T14:21:23Z</time>
      </trkpt>
      <trkpt lat="44.87164" lon="3.83416">
        <ele>1121.778</ele>
        <time>2012-05-19T14:21:27Z</time>
      </trkpt>
      <trkpt lat="44.87159" lon="3.83413">
        <ele>1121.904</ele>
        <time>2012-05-19T14:21:31Z</time>
      </trkpt>
      <trkpt lat="44.87149" lon="3.8341">
        <ele>1123.031</ele>
        <time>2012-05-19T14:21:39Z</time>
      </trkpt>
      <trkpt lat="44.87145" lon="3.83408">
        <ele>1121.359</ele>
        <time>2012-05-19T14:21:42Z</time>
      </trkpt>
      <trkpt lat="44.87121" lon="3.83398">
        <ele>1123.656</ele>
        <time>2012-05-19T14:22:01Z</time>
      </trkpt>
      <trkpt lat="44.87119" lon="3.83397">
        <ele>1122.352</ele>
        <time>2012-05-19T14:22:03Z</time>
      </trkpt>
      <trkpt lat="44.87115" lon="3.83395">
        <ele>1121.866</ele>
        <time>2012-05-19T14:22:06Z</time>
      </trkpt>
      <trkpt lat="44.87095" lon="3.8339">
        <ele>1125.482</ele>
        <time>2012-05-19T14:22:24Z</time>
      </trkpt>
      <trkpt lat="44.87092" lon="3.8339">
        <ele>1123.426</ele>
        <time>2012-05-19T14:22:28Z</time>
      </trkpt>
      <trkpt lat="44.87089" lon="3.8339">
        <ele>1124.45</ele>
        <time>2012-05-19T14:22:31Z</time>
      </trkpt>
      <trkpt lat="44.87086" lon="3.83393">
        <ele>1126.226</ele>
        <time>2012-05-19T14:22:34Z</time>
      </trkpt>
      <trkpt lat="44.87064" lon="3.83412">
        <ele>1127.034</ele>
        <time>2012-05-19T14:22:57Z</time>
      </trkpt>
      <trkpt lat="44.87061" lon="3.83415">
        <ele>1128.971</ele>
        <time>2012-05-19T14:23:00Z</time>
      </trkpt>
      <trkpt lat="44.87039" lon="3.83426">
        <ele>1129.029</ele>
        <time>2012-05-19T14:23:21Z</time>
      </trkpt>
      <trkpt lat="44.87013" lon="3.8342">
        <ele>1129.746</ele>
        <time>2012-05-19T14:23:44Z</time>
      </trkpt>
      <trkpt lat="44.87002" lon="3.83417">
        <ele>1131.91</ele>
        <time>2012-05-19T14:23:54Z</time>
      </trkpt>
      <trkpt lat="44.86987" lon="3.83413">
        <ele>1133.442</ele>
        <time>2012-05-19T14:24:09Z</time>
      </trkpt>
      <trkpt lat="44.8698" lon="3.83414">
        <ele>1134.797</ele>
        <time>2012-05-19T14:24:16Z</time>
      </trkpt>
      <trkpt lat="44.86965" lon="3.83423">
        <ele>1137.207</ele>
        <time>2012-05-19T14:24:30Z</time>
      </trkpt>
      <trkpt lat="44.86957" lon="3.83427">
        <ele>1137.312</ele>
        <time>2012-05-19T14:24:37Z</time>
      </trkpt>
      <trkpt lat="44.86945" lon="3.83434">
        <ele>1136.819</ele>
        <time>2012-05-19T14:24:48Z</time>
      </trkpt>
      <trkpt lat="44.86937" lon="3.83437">
        <ele>1138.159</ele>
        <time>2012-05-19T14:24:56Z</time>
      </trkpt>
      <trkpt lat="44.86916" lon="3.83441">
        <ele>1140.941</ele>
        <time>2012-05-19T14:25:15Z</time>
      </trkpt>
      <trkpt lat="44.86912" lon="3.83441">
        <ele>1140.401</ele>
        <time>2012-05-19T14:25:19Z</time>
      </trkpt>
      <trkpt lat="44.86888" lon="3.83444">
        <ele>1140.299</ele>
        <time>2012-05-19T14:25:39Z</time>
      </trkpt>
      <trkpt lat="44.86876" lon="3.83446">
        <ele>1141.47</ele>
        <time>2012-05-19T14:25:52Z</time>
      </trkpt>
      <trkpt lat="44.8685" lon="3.8345">
        <ele>1139.162</ele>
        <time>2012-05-19T14:26:13Z</time>
      </trkpt>
      <trkpt lat="44.8682" lon="3.83461">
        <ele>1139.391</ele>
        <time>2012-05-19T14:26:39Z</time>
      </trkpt>
      <trkpt lat="44.86792" lon="3.83478">
        <ele>1140.385</ele>
        <time>2012-05-19T14:27:06Z</time>
      </trkpt>
      <trkpt lat="44.86768" lon="3.8348">
        <ele>1140.357</ele>
        <time>2012-05-19T14:27:26Z</time>
      </trkpt>
      <trkpt lat="44.86752" lon="3.83477">
        <ele>1141.64</ele>
        <time>2012-05-19T14:27:40Z</time>
      </trkpt>
      <trkpt lat="44.86729" lon="3.83471">
        <ele>1140.382</ele>
        <time>2012-05-19T14:28:00Z</time>
      </trkpt>
      <trkpt lat="44.86704" lon="3.83462">
        <ele>1140.178</ele>
        <time>2012-05-19T14:28:22Z</time>
      </trkpt>
      <trkpt lat="44.86698" lon="3.8346">
        <ele>1141.177</ele>
        <time>2012-05-19T14:28:27Z</time>
      </trkpt>
      <trkpt lat="44.86675" lon="3.83458">
        <ele>1141.118</ele>
        <time>2012-05-19T14:28:48Z</time>
      </trkpt>
      <trkpt lat="44.86654" lon="3.83449">
        <ele>1141.052</ele>
        <time>2012-05-19T14:29:07Z</time>
      </trkpt>
      <trkpt lat="44.86645" lon="3.83435">
        <ele>1140.971</ele>
        <time>2012-05-19T14:29:19Z</time>
      </trkpt>
      <trkpt lat="44.86638" lon="3.83429">
        <ele>1140.53</ele>
        <time>2012-05-19T14:29:36Z</time>
      </trkpt>
      <trkpt lat="44.86636" lon="3.8343">
        <ele>1140.632</ele>
        <time>2012-05-19T14:34:29Z</time>
      </trkpt>
      <trkpt lat="44.86633" lon="3.83425">
        <ele>1141.06</ele>
        <time>2012-05-19T14:34:55Z</time>
      </trkpt>
      <trkpt lat="44.86616" lon="3.83422">
        <ele>1139.337</ele>
        <time>2012-05-19T14:35:11Z</time>
      </trkpt>
      <trkpt lat="44.86612" lon="3.83421">
        <ele>1136.577</ele>
        <time>2012-05-19T14:35:16Z</time>
      </trkpt>
      <trkpt lat="44.86605" lon="3.83419">
        <ele>1138.953</ele>
        <time>2012-05-19T14:35:24Z</time>
      </trkpt>
      <trkpt lat="44.86592" lon="3.83416">
        <ele>1139.449</ele>
        <time>2012-05-19T14:35:42Z</time>
      </trkpt>
      <trkpt lat="44.86583" lon="3.83415">
        <ele>1139.164</ele>
        <time>2012-05-19T14:35:52Z</time>
      </trkpt>
      <trkpt lat="44.86575" lon="3.83413">
        <ele>1136.798</ele>
        <time>2012-05-19T14:36:00Z</time>
      </trkpt>
      <trkpt lat="44.86571" lon="3.83411">
        <ele>1135.299</ele>
        <time>2012-05-19T14:36:04Z</time>
      </trkpt>
      <trkpt lat="44.86567" lon="3.8341">
        <ele>1138.026</ele>
        <time>2012-05-19T14:36:07Z</time>
      </trkpt>
      <trkpt lat="44.86558" lon="3.83406">
        <ele>1141.563</ele>
        <time>2012-05-19T14:36:16Z</time>
      </trkpt>
      <trkpt lat="44.86542" lon="3.83406">
        <ele>1142.194</ele>
        <time>2012-05-19T14:36:30Z</time>
      </trkpt>
      <trkpt lat="44.86519" lon="3.83409">
        <ele>1140.447</ele>
        <time>2012-05-19T14:36:50Z</time>
      </trkpt>
      <trkpt lat="44.86495" lon="3.83419">
        <ele>1141.429</ele>
        <time>2012-05-19T14:37:12Z</time>
      </trkpt>
      <trkpt lat="44.86471" lon="3.83429">
        <ele>1142.968</ele>
        <time>2012-05-19T14:37:33Z</time>
      </trkpt>
      <trkpt lat="44.86463" lon="3.8343">
        <ele>1142.043</ele>
        <time>2012-05-19T14:37:39Z</time>
      </trkpt>
      <trkpt lat="44.86453" lon="3.83434">
        <ele>1143.886</ele>
        <time>2012-05-19T14:37:48Z</time>
      </trkpt>
      <trkpt lat="44.86444" lon="3.83441">
        <ele>1141.753</ele>
        <time>2012-05-19T14:37:56Z</time>
      </trkpt>
      <trkpt lat="44.86424" lon="3.83445">
        <ele>1141.984</ele>
        <time>2012-05-19T14:38:14Z</time>
      </trkpt>
      <trkpt lat="44.86401" lon="3.83453">
        <ele>1142.283</ele>
        <time>2012-05-19T14:38:36Z</time>
      </trkpt>
      <trkpt lat="44.86381" lon="3.83461">
        <ele>1145.014</ele>
        <time>2012-05-19T14:38:53Z</time>
      </trkpt>
      <trkpt lat="44.86379" lon="3.83461">
        <ele>1142.755</ele>
        <time>2012-05-19T14:38:55Z</time>
      </trkpt>
      <trkpt lat="44.86356" lon="3.83471">
        <ele>1143.237</ele>
        <time>2012-05-19T14:39:14Z</time>
      </trkpt>
      <trkpt lat="44.86353" lon="3.83471">
        <ele>1144.465</ele>
        <time>2012-05-19T14:39:16Z</time>
      </trkpt>
      <trkpt lat="44.86332" lon="3.8348">
        <ele>1143.11</ele>
        <time>2012-05-19T14:39:33Z</time>
      </trkpt>
      <trkpt lat="44.8631" lon="3.83488">
        <ele>1143.76</ele>
        <time>2012-05-19T14:39:52Z</time>
      </trkpt>
      <trkpt lat="44.86286" lon="3.83502">
        <ele>1143.039</ele>
        <time>2012-05-19T14:40:12Z</time>
      </trkpt>
      <trkpt lat="44.86274" lon="3.83513">
        <ele>1144.798</ele>
        <time>2012-05-19T14:40:24Z</time>
      </trkpt>
      <trkpt lat="44.86266" lon="3.83521">
        <ele>1146.172</ele>
        <time>2012-05-19T14:40:32Z</time>
      </trkpt>
      <trkpt lat="44.86263" lon="3.83525">
        <ele>1144.232</ele>
        <time>2012-05-19T14:40:35Z</time>
      </trkpt>
      <trkpt lat="44.86244" lon="3.83551">
        <ele>1142.691</ele>
        <time>2012-05-19T14:40:56Z</time>
      </trkpt>
      <trkpt lat="44.86226" lon="3.83571">
        <ele>1142.934</ele>
        <time>2012-05-19T14:41:15Z</time>
      </trkpt>
      <trkpt lat="44.86202" lon="3.83604">
        <ele>1142.321</ele>
        <time>2012-05-19T14:41:42Z</time>
      </trkpt>
      <trkpt lat="44.862" lon="3.83606">
        <ele>1143.755</ele>
        <time>2012-05-19T14:41:44Z</time>
      </trkpt>
      <trkpt lat="44.86198" lon="3.83607">
        <ele>1142.442</ele>
        <time>2012-05-19T14:41:46Z</time>
      </trkpt>
      <trkpt lat="44.86176" lon="3.83608">
        <ele>1141.799</ele>
        <time>2012-05-19T14:42:05Z</time>
      </trkpt>
      <trkpt lat="44.86159" lon="3.83586">
        <ele>1142.439</ele>
        <time>2012-05-19T14:42:24Z</time>
      </trkpt>
      <trkpt lat="44.86156" lon="3.83581">
        <ele>1144.039</ele>
        <time>2012-05-19T14:42:28Z</time>
      </trkpt>
      <trkpt lat="44.86153" lon="3.83577">
        <ele>1143.637</ele>
        <time>2012-05-19T14:42:31Z</time>
      </trkpt>
      <trkpt lat="44.86149" lon="3.83577">
        <ele>1144.703</ele>
        <time>2012-05-19T14:42:35Z</time>
      </trkpt>
      <trkpt lat="44.86145" lon="3.83574">
        <ele>1142.609</ele>
        <time>2012-05-19T14:42:39Z</time>
      </trkpt>
      <trkpt lat="44.86143" lon="3.83573">
        <ele>1145.315</ele>
        <time>2012-05-19T14:42:41Z</time>
      </trkpt>
      <trkpt lat="44.86137" lon="3.83568">
        <ele>1144.052</ele>
        <time>2012-05-19T14:42:47Z</time>
      </trkpt>
      <trkpt lat="44.86135" lon="3.83565">
        <ele>1141.76</ele>
        <time>2012-05-19T14:42:49Z</time>
      </trkpt>
      <trkpt lat="44.86112" lon="3.83546">
        <ele>1142.582</ele>
        <time>2012-05-19T14:43:10Z</time>
      </trkpt>
      <trkpt lat="44.86081" lon="3.83532">
        <ele>1141.683</ele>
        <time>2012-05-19T14:43:37Z</time>
      </trkpt>
      <trkpt lat="44.86054" lon="3.83526">
        <ele>1143.791</ele>
        <time>2012-05-19T14:44:01Z</time>
      </trkpt>
      <trkpt lat="44.8602" lon="3.83521">
        <ele>1142.876</ele>
        <time>2012-05-19T14:44:29Z</time>
      </trkpt>
      <trkpt lat="44.85988" lon="3.83517">
        <ele>1144.144</ele>
        <time>2012-05-19T14:44:57Z</time>
      </trkpt>
      <trkpt lat="44.85959" lon="3.83516">
        <ele>1143.803</ele>
        <time>2012-05-19T14:45:21Z</time>
      </trkpt>
      <trkpt lat="44.8595" lon="3.83516">
        <ele>1144.068</ele>
        <time>2012-05-19T14:45:28Z</time>
      </trkpt>
      <trkpt lat="44.85929" lon="3.83517">
        <ele>1145.011</ele>
        <time>2012-05-19T14:45:46Z</time>
      </trkpt>
      <trkpt lat="44.85925" lon="3.83516">
        <ele>1143.689</ele>
        <time>2012-05-19T14:45:49Z</time>
      </trkpt>
      <trkpt lat="44.85893" lon="3.83514">
        <ele>1144.372</ele>
        <time>2012-05-19T14:46:13Z</time>
      </trkpt>
      <trkpt lat="44.85887" lon="3.83513">
        <ele>1145.552</ele>
        <time>2012-05-19T14:46:18Z</time>
      </trkpt>
      <trkpt lat="44.85864" lon="3.83505">
        <ele>1145.56</ele>
        <time>2012-05-19T14:46:40Z</time>
      </trkpt>
      <trkpt lat="44.8585" lon="3.83499">
        <ele>1145.668</ele>
        <time>2012-05-19T14:46:52Z</time>
      </trkpt>
      <trkpt lat="44.85826" lon="3.83491">
        <ele>1145.355</ele>
        <time>2012-05-19T14:47:11Z</time>
      </trkpt>
      <trkpt lat="44.85788" lon="3.83475">
        <ele>1144.729</ele>
        <time>2012-05-19T14:47:42Z</time>
      </trkpt>
      <trkpt lat="44.85758" lon="3.83462">
        <ele>1144.512</ele>
        <time>2012-05-19T14:48:07Z</time>
      </trkpt>
      <trkpt lat="44.85729" lon="3.83455">
        <ele>1144.352</ele>
        <time>2012-05-19T14:48:31Z</time>
      </trkpt>
      <trkpt lat="44.85696" lon="3.83445">
        <ele>1145.938</ele>
        <time>2012-05-19T14:48:57Z</time>
      </trkpt>
      <trkpt lat="44.85666" lon="3.83431">
        <ele>1144.838</ele>
        <time>2012-05-19T14:49:23Z</time>
      </trkpt>
      <trkpt lat="44.85639" lon="3.83408">
        <ele>1144.278</ele>
        <time>2012-05-19T14:49:48Z</time>
      </trkpt>
      <trkpt lat="44.85628" lon="3.83395">
        <ele>1145.667</ele>
        <time>2012-05-19T14:50:00Z</time>
      </trkpt>
      <trkpt lat="44.8562" lon="3.83382">
        <ele>1145.197</ele>
        <time>2012-05-19T14:50:11Z</time>
      </trkpt>
      <trkpt lat="44.85598" lon="3.83354">
        <ele>1144.352</ele>
        <time>2012-05-19T14:50:47Z</time>
      </trkpt>
      <trkpt lat="44.85589" lon="3.83332">
        <ele>1143.437</ele>
        <time>2012-05-19T14:51:01Z</time>
      </trkpt>
      <trkpt lat="44.85567" lon="3.83299">
        <ele>1143.105</ele>
        <time>2012-05-19T14:51:26Z</time>
      </trkpt>
      <trkpt lat="44.8555" lon="3.83265">
        <ele>1142.83</ele>
        <time>2012-05-19T14:51:49Z</time>
      </trkpt>
      <trkpt lat="44.8554" lon="3.83227">
        <ele>1143.665</ele>
        <time>2012-05-19T14:52:12Z</time>
      </trkpt>
      <trkpt lat="44.85527" lon="3.83186">
        <ele>1141.876</ele>
        <time>2012-05-19T14:52:38Z</time>
      </trkpt>
      <trkpt lat="44.85514" lon="3.83151">
        <ele>1141.316</ele>
        <time>2012-05-19T14:53:01Z</time>
      </trkpt>
      <trkpt lat="44.85507" lon="3.83119">
        <ele>1139.933</ele>
        <time>2012-05-19T14:53:21Z</time>
      </trkpt>
      <trkpt lat="44.85498" lon="3.8306">
        <ele>1139.248</ele>
        <time>2012-05-19T14:53:56Z</time>
      </trkpt>
      <trkpt lat="44.85498" lon="3.8305">
        <ele>1140.033</ele>
        <time>2012-05-19T14:54:02Z</time>
      </trkpt>
      <trkpt lat="44.85496" lon="3.83032">
        <ele>1137.942</ele>
        <time>2012-05-19T14:54:13Z</time>
      </trkpt>
      <trkpt lat="44.85492" lon="3.82991">
        <ele>1137.454</ele>
        <time>2012-05-19T14:54:37Z</time>
      </trkpt>
      <trkpt lat="44.85493" lon="3.82947">
        <ele>1138.254</ele>
        <time>2012-05-19T14:55:02Z</time>
      </trkpt>
      <trkpt lat="44.85498" lon="3.82913">
        <ele>1139.195</ele>
        <time>2012-05-19T14:55:22Z</time>
      </trkpt>
      <trkpt lat="44.85501" lon="3.82885">
        <ele>1135.926</ele>
        <time>2012-05-19T14:55:40Z</time>
      </trkpt>
      <trkpt lat="44.85497" lon="3.8285">
        <ele>1133.682</ele>
        <time>2012-05-19T14:56:02Z</time>
      </trkpt>
      <trkpt lat="44.85495" lon="3.82841">
        <ele>1133.733</ele>
        <time>2012-05-19T14:56:08Z</time>
      </trkpt>
      <trkpt lat="44.85481" lon="3.82811">
        <ele>1133.352</ele>
        <time>2012-05-19T14:56:29Z</time>
      </trkpt>
      <trkpt lat="44.85479" lon="3.82807">
        <ele>1131.78</ele>
        <time>2012-05-19T14:56:32Z</time>
      </trkpt>
      <trkpt lat="44.85473" lon="3.82803">
        <ele>1131.917</ele>
        <time>2012-05-19T14:56:37Z</time>
      </trkpt>
      <trkpt lat="44.85453" lon="3.82794">
        <ele>1132.066</ele>
        <time>2012-05-19T14:56:54Z</time>
      </trkpt>
      <trkpt lat="44.85449" lon="3.82793">
        <ele>1131.538</ele>
        <time>2012-05-19T14:56:58Z</time>
      </trkpt>
      <trkpt lat="44.8544" lon="3.82796">
        <ele>1131.315</ele>
        <time>2012-05-19T14:57:04Z</time>
      </trkpt>
      <trkpt lat="44.8543" lon="3.828">
        <ele>1130.333</ele>
        <time>2012-05-19T14:58:23Z</time>
      </trkpt>
      <trkpt lat="44.85428" lon="3.8279">
        <ele>1130.512</ele>
        <time>2012-05-19T14:58:29Z</time>
      </trkpt>
      <trkpt lat="44.85412" lon="3.82762">
        <ele>1130.491</ele>
        <time>2012-05-19T14:58:48Z</time>
      </trkpt>
      <trkpt lat="44.85402" lon="3.82753">
        <ele>1131.531</ele>
        <time>2012-05-19T14:58:59Z</time>
      </trkpt>
      <trkpt lat="44.85395" lon="3.82749">
        <ele>1133.408</ele>
        <time>2012-05-19T14:59:04Z</time>
      </trkpt>
      <trkpt lat="44.85372" lon="3.82743">
        <ele>1133.719</ele>
        <time>2012-05-19T14:59:22Z</time>
      </trkpt>
      <trkpt lat="44.85359" lon="3.82742">
        <ele>1131.732</ele>
        <time>2012-05-19T14:59:31Z</time>
      </trkpt>
      <trkpt lat="44.8535" lon="3.82737">
        <ele>1129.496</ele>
        <time>2012-05-19T14:59:39Z</time>
      </trkpt>
      <trkpt lat="44.85325" lon="3.82716">
        <ele>1132.065</ele>
        <time>2012-05-19T15:00:01Z</time>
      </trkpt>
      <trkpt lat="44.85302" lon="3.82699">
        <ele>1130.744</ele>
        <time>2012-05-19T15:00:21Z</time>
      </trkpt>
      <trkpt lat="44.85291" lon="3.82691">
        <ele>1131.557</ele>
        <time>2012-05-19T15:00:30Z</time>
      </trkpt>
      <trkpt lat="44.85266" lon="3.82677">
        <ele>1131.348</ele>
        <time>2012-05-19T15:00:49Z</time>
      </trkpt>
      <trkpt lat="44.85244" lon="3.82652">
        <ele>1131.144</ele>
        <time>2012-05-19T15:01:10Z</time>
      </trkpt>
      <trkpt lat="44.85241" lon="3.82645">
        <ele>1132.231</ele>
        <time>2012-05-19T15:01:40Z</time>
      </trkpt>
      <trkpt lat="44.85241" lon="3.82641">
        <ele>1132.388</ele>
        <time>2012-05-19T15:01:52Z</time>
      </trkpt>
      <trkpt lat="44.85233" lon="3.82643">
        <ele>1132.035</ele>
        <time>2012-05-19T15:02:06Z</time>
      </trkpt>
      <trkpt lat="44.85222" lon="3.82634">
        <ele>1132.369</ele>
        <time>2012-05-19T15:02:25Z</time>
      </trkpt>
      <trkpt lat="44.85218" lon="3.82631">
        <ele>1133.15</ele>
        <time>2012-05-19T15:02:45Z</time>
      </trkpt>
      <trkpt lat="44.8521" lon="3.82623">
        <ele>1132.716</ele>
        <time>2012-05-19T15:03:02Z</time>
      </trkpt>
      <trkpt lat="44.85199" lon="3.82612">
        <ele>1133.312</ele>
        <time>2012-05-19T15:03:21Z</time>
      </trkpt>
      <trkpt lat="44.85174" lon="3.826">
        <ele>1132.411</ele>
        <time>2012-05-19T15:03:42Z</time>
      </trkpt>
      <trkpt lat="44.85169" lon="3.82601">
        <ele>1131.879</ele>
        <time>2012-05-19T15:03:46Z</time>
      </trkpt>
      <trkpt lat="44.85148" lon="3.82598">
        <ele>1130.191</ele>
        <time>2012-05-19T15:04:03Z</time>
      </trkpt>
      <trkpt lat="44.85126" lon="3.82595">
        <ele>1129.528</ele>
        <time>2012-05-19T15:04:20Z</time>
      </trkpt>
      <trkpt lat="44.85123" lon="3.82595">
        <ele>1128.27</ele>
        <time>2012-05-19T15:04:22Z</time>
      </trkpt>
      <trkpt lat="44.85103" lon="3.82594">
        <ele>1127.497</ele>
        <time>2012-05-19T15:04:39Z</time>
      </trkpt>
      <trkpt lat="44.8509" lon="3.82599">
        <ele>1128.981</ele>
        <time>2012-05-19T15:04:49Z</time>
      </trkpt>
      <trkpt lat="44.85076" lon="3.82606">
        <ele>1125.774</ele>
        <time>2012-05-19T15:05:01Z</time>
      </trkpt>
      <trkpt lat="44.85064" lon="3.82612">
        <ele>1122.437</ele>
        <time>2012-05-19T15:05:12Z</time>
      </trkpt>
      <trkpt lat="44.85048" lon="3.82621">
        <ele>1118.618</ele>
        <time>2012-05-19T15:05:28Z</time>
      </trkpt>
      <trkpt lat="44.85043" lon="3.82623">
        <ele>1117.303</ele>
        <time>2012-05-19T15:05:34Z</time>
      </trkpt>
      <trkpt lat="44.85021" lon="3.82634">
        <ele>1115.964</ele>
        <time>2012-05-19T15:05:53Z</time>
      </trkpt>
      <trkpt lat="44.84999" lon="3.82652">
        <ele>1113.307</ele>
        <time>2012-05-19T15:06:14Z</time>
      </trkpt>
      <trkpt lat="44.84985" lon="3.82668">
        <ele>1111.249</ele>
        <time>2012-05-19T15:06:32Z</time>
      </trkpt>
      <trkpt lat="44.84973" lon="3.82678">
        <ele>1109.749</ele>
        <time>2012-05-19T15:06:45Z</time>
      </trkpt>
      <trkpt lat="44.84971" lon="3.8268">
        <ele>1109.636</ele>
        <time>2012-05-19T15:06:47Z</time>
      </trkpt>
      <trkpt lat="44.84949" lon="3.82684">
        <ele>1107.428</ele>
        <time>2012-05-19T15:07:08Z</time>
      </trkpt>
      <trkpt lat="44.84933" lon="3.82675">
        <ele>1107.612</ele>
        <time>2012-05-19T15:07:25Z</time>
      </trkpt>
      <trkpt lat="44.8492" lon="3.8266">
        <ele>1109.548</ele>
        <time>2012-05-19T15:07:44Z</time>
      </trkpt>
      <trkpt lat="44.84911" lon="3.82652">
        <ele>1111.355</ele>
        <time>2012-05-19T15:08:00Z</time>
      </trkpt>
      <trkpt lat="44.84908" lon="3.82656">
        <ele>1113.002</ele>
        <time>2012-05-19T15:08:04Z</time>
      </trkpt>
      <trkpt lat="44.84886" lon="3.82678">
        <ele>1110.934</ele>
        <time>2012-05-19T15:08:25Z</time>
      </trkpt>
      <trkpt lat="44.84866" lon="3.82692">
        <ele>1111.011</ele>
        <time>2012-05-19T15:08:46Z</time>
      </trkpt>
      <trkpt lat="44.84841" lon="3.82689">
        <ele>1109.971</ele>
        <time>2012-05-19T15:09:08Z</time>
      </trkpt>
      <trkpt lat="44.84818" lon="3.8268">
        <ele>1108.375</ele>
        <time>2012-05-19T15:09:31Z</time>
      </trkpt>
      <trkpt lat="44.84804" lon="3.82675">
        <ele>1107.951</ele>
        <time>2012-05-19T15:09:44Z</time>
      </trkpt>
      <trkpt lat="44.84784" lon="3.82665">
        <ele>1107.967</ele>
        <time>2012-05-19T15:10:04Z</time>
      </trkpt>
      <trkpt lat="44.84771" lon="3.82664">
        <ele>1106.729</ele>
        <time>2012-05-19T15:10:14Z</time>
      </trkpt>
      <trkpt lat="44.84768" lon="3.82664">
        <ele>1105.037</ele>
        <time>2012-05-19T15:10:17Z</time>
      </trkpt>
      <trkpt lat="44.84758" lon="3.82661">
        <ele>1106.594</ele>
        <time>2012-05-19T15:10:25Z</time>
      </trkpt>
      <trkpt lat="44.84732" lon="3.82658">
        <ele>1106.978</ele>
        <time>2012-05-19T15:10:48Z</time>
      </trkpt>
      <trkpt lat="44.847" lon="3.82652">
        <ele>1105.586</ele>
        <time>2012-05-19T15:11:16Z</time>
      </trkpt>
      <trkpt lat="44.84689" lon="3.82645">
        <ele>1106.401</ele>
        <time>2012-05-19T15:11:42Z</time>
      </trkpt>
      <trkpt lat="44.84679" lon="3.82657">
        <ele>1105.729</ele>
        <time>2012-05-19T15:11:57Z</time>
      </trkpt>
      <trkpt lat="44.84653" lon="3.82691">
        <ele>1102.696</ele>
        <time>2012-05-19T15:12:24Z</time>
      </trkpt>
      <trkpt lat="44.84629" lon="3.82721">
        <ele>1100.43</ele>
        <time>2012-05-19T15:12:50Z</time>
      </trkpt>
      <trkpt lat="44.84617" lon="3.82744">
        <ele>1100.015</ele>
        <time>2012-05-19T15:13:07Z</time>
      </trkpt>
      <trkpt lat="44.84601" lon="3.82768">
        <ele>1100.325</ele>
        <time>2012-05-19T15:13:27Z</time>
      </trkpt>
      <trkpt lat="44.84582" lon="3.82784">
        <ele>1098.638</ele>
        <time>2012-05-19T15:13:45Z</time>
      </trkpt>
      <trkpt lat="44.84569" lon="3.82792">
        <ele>1097.576</ele>
        <time>2012-05-19T15:13:56Z</time>
      </trkpt>
      <trkpt lat="44.84548" lon="3.82811">
        <ele>1097.847</ele>
        <time>2012-05-19T15:14:16Z</time>
      </trkpt>
      <trkpt lat="44.84547" lon="3.82812">
        <ele>1097.847</ele>
        <time>2012-05-19T15:14:17Z</time>
      </trkpt>
      <trkpt lat="44.84524" lon="3.82841">
        <ele>1096.387</ele>
        <time>2012-05-19T15:14:42Z</time>
      </trkpt>
      <trkpt lat="44.84519" lon="3.82845">
        <ele>1096.77</ele>
        <time>2012-05-19T15:14:46Z</time>
      </trkpt>
      <trkpt lat="44.84514" lon="3.8285">
        <ele>1095.977</ele>
        <time>2012-05-19T15:14:51Z</time>
      </trkpt>
      <trkpt lat="44.84494" lon="3.82868">
        <ele>1094.621</ele>
        <time>2012-05-19T15:15:10Z</time>
      </trkpt>
      <trkpt lat="44.84482" lon="3.82877">
        <ele>1093.315</ele>
        <time>2012-05-19T15:15:20Z</time>
      </trkpt>
      <trkpt lat="44.84479" lon="3.82878">
        <ele>1094.05</ele>
        <time>2012-05-19T15:15:22Z</time>
      </trkpt>
      <trkpt lat="44.84463" lon="3.82886">
        <ele>1094.003</ele>
        <time>2012-05-19T15:15:37Z</time>
      </trkpt>
      <trkpt lat="44.8446" lon="3.82896">
        <ele>1091.407</ele>
        <time>2012-05-19T15:17:32Z</time>
      </trkpt>
      <trkpt lat="44.84431" lon="3.82923">
        <ele>1090.117</ele>
        <time>2012-05-19T15:18:01Z</time>
      </trkpt>
      <trkpt lat="44.8442" lon="3.82934">
        <ele>1089.375</ele>
        <time>2012-05-19T15:18:11Z</time>
      </trkpt>
      <trkpt lat="44.84408" lon="3.82948">
        <ele>1088.688</ele>
        <time>2012-05-19T15:18:24Z</time>
      </trkpt>
      <trkpt lat="44.84405" lon="3.82953">
        <ele>1089.301</ele>
        <time>2012-05-19T15:18:28Z</time>
      </trkpt>
      <trkpt lat="44.84391" lon="3.82971">
        <ele>1089.314</ele>
        <time>2012-05-19T15:18:45Z</time>
      </trkpt>
      <trkpt lat="44.84371" lon="3.82994">
        <ele>1090.555</ele>
        <time>2012-05-19T15:19:07Z</time>
      </trkpt>
      <trkpt lat="44.84353" lon="3.83001">
        <ele>1091.774</ele>
        <time>2012-05-19T15:19:25Z</time>
      </trkpt>
      <trkpt lat="44.84345" lon="3.82999">
        <ele>1092.208</ele>
        <time>2012-05-19T15:19:31Z</time>
      </trkpt>
      <trkpt lat="44.84342" lon="3.82998">
        <ele>1090.943</ele>
        <time>2012-05-19T15:19:34Z</time>
      </trkpt>
      <trkpt lat="44.84339" lon="3.82999">
        <ele>1092.321</ele>
        <time>2012-05-19T15:19:37Z</time>
      </trkpt>
      <trkpt lat="44.84317" lon="3.82994">
        <ele>1094.019</ele>
        <time>2012-05-19T15:19:56Z</time>
      </trkpt>
      <trkpt lat="44.84312" lon="3.82991">
        <ele>1094.791</ele>
        <time>2012-05-19T15:20:02Z</time>
      </trkpt>
      <trkpt lat="44.84309" lon="3.82988">
        <ele>1095.204</ele>
        <time>2012-05-19T15:20:06Z</time>
      </trkpt>
      <trkpt lat="44.84305" lon="3.82979">
        <ele>1095.439</ele>
        <time>2012-05-19T15:20:12Z</time>
      </trkpt>
      <trkpt lat="44.84298" lon="3.82966">
        <ele>1092.326</ele>
        <time>2012-05-19T15:20:21Z</time>
      </trkpt>
      <trkpt lat="44.84285" lon="3.82929">
        <ele>1093.139</ele>
        <time>2012-05-19T15:20:44Z</time>
      </trkpt>
      <trkpt lat="44.84283" lon="3.82924">
        <ele>1091.379</ele>
        <time>2012-05-19T15:20:47Z</time>
      </trkpt>
      <trkpt lat="44.84275" lon="3.82904">
        <ele>1091.655</ele>
        <time>2012-05-19T15:21:02Z</time>
      </trkpt>
      <trkpt lat="44.84269" lon="3.82889">
        <ele>1091.868</ele>
        <time>2012-05-19T15:21:12Z</time>
      </trkpt>
      <trkpt lat="44.84256" lon="3.82861">
        <ele>1091.698</ele>
        <time>2012-05-19T15:21:31Z</time>
      </trkpt>
      <trkpt lat="44.84246" lon="3.82822">
        <ele>1092.575</ele>
        <time>2012-05-19T15:21:56Z</time>
      </trkpt>
      <trkpt lat="44.84246" lon="3.82799">
        <ele>1092.015</ele>
        <time>2012-05-19T15:22:09Z</time>
      </trkpt>
      <trkpt lat="44.84244" lon="3.82795">
        <ele>1091.068</ele>
        <time>2012-05-19T15:22:12Z</time>
      </trkpt>
      <trkpt lat="44.84235" lon="3.82767">
        <ele>1087.248</ele>
        <time>2012-05-19T15:22:34Z</time>
      </trkpt>
      <trkpt lat="44.84234" lon="3.82757">
        <ele>1085.306</ele>
        <time>2012-05-19T15:22:40Z</time>
      </trkpt>
      <trkpt lat="44.84226" lon="3.8273">
        <ele>1083.37</ele>
        <time>2012-05-19T15:23:04Z</time>
      </trkpt>
      <trkpt lat="44.84227" lon="3.82726">
        <ele>1083.537</ele>
        <time>2012-05-19T15:23:39Z</time>
      </trkpt>
      <trkpt lat="44.84228" lon="3.82715">
        <ele>1083.524</ele>
        <time>2012-05-19T15:23:48Z</time>
      </trkpt>
      <trkpt lat="44.84227" lon="3.82702">
        <ele>1083.714</ele>
        <time>2012-05-19T15:26:07Z</time>
      </trkpt>
    </trkseg>
  </trk>
</gpx>